LiveATC.Net - Listen to live air traffic control over the Internet!
Airport/ARTCC Code
Frequency Search
(e.g., 124.400, 128.75)
Site-wide search
 


Browse Feeds
Top 50 Feeds
Coverage Map
Bad Weather Areas

LiveATC FAQ
Offer LiveATC feed
Contact LiveATC.net
Press Inquiries

LiveATC on iPhone
LiveATC on Android

Windows Phone
Windows 8/10

LiveATC Mobile
(Mobile browser)

ATC Audio Archives
Interesting Recordings

LiveATC Forums

Home Page
About LiveATC.net
Make a Donation
Terms of Use
Privacy Policy

Canadian Air Freqs

AIRMETs/SIGMETs

FAA Airport Status
Nat'l Airspace Status
Arrival Demand Charts


Server Software By:
Icecast.org
Liquidsoap

Select an area of interest:
U.S. Feeds: Class B Airports | Class C Airports | Class D/Other Airports | ARTCC (Centers)
International Feeds: Canada | Europe | Oceania | Asia | South America | North/Central America | Africa
Misc Feeds: HF Feeds
Search by ICAO/IATA airport code:   (e.g., kbos, kjfk, lax, eham, etc.)


Currently Available Live Feeds: 2708
Status Updated: Wed Jan 20 2021 16:23:04 UTC


NOTICE

Unauthorized use prohibited. See LiveATC.net Terms of Service

U.S. Class C Airport Feeds

 

F45 CTAF/Dep (Archives)
West Palm Beach, Florida, United States

Feed Status: UP
Listen in your browser - HTML5 player(in browser, HTML5)
Click here to listen with your own player(launches your MP3 player)

KPBI Airport Info (Airnav.com)

KPBI Flight Activity (Flightaware)

Listeners: 26 out of 1377 total

North County CTAF: 123.075
Palm Beach Departure (North): 128.300

KABE Gnd/Twr/App (Archives)
Allentown, Pennsylvania, United States

Feed Status: UP
Listen in your browser - HTML5 player(in browser, HTML5)
Click here to listen with your own player(launches your MP3 player)

KABE 201551Z 31013G20KT 10SM SCT032 SCT060 02/M05 A2995 RMK AO2 PK WND 32030/1507 UPB23E28SNB08E23 SLP148 P0000 T00171050

KABE Airport Info (Airnav.com)

KABE Flight Activity (Flightaware)

Listeners: 2 out of 1377 total

Allentown Approach/Departure: 119.650
Allentown Approach/Departure: 124.450
Allentown Ground: 121.900
Allentown Tower: 120.500

KABQ App/Dep (Main) (Archives)
Albuquerque, New Mexico, United States

Feed Status: UP
Listen in your browser - HTML5 player(in browser, HTML5)
Click here to listen with your own player(launches your MP3 player)

KABQ 201552Z 32004KT 7SM -SN FEW045 BKN060 OVC075 M02/M06 A3034 RMK AO2 SNB20 SLP292 MTNS OBSC NE AND SE SHSN DSNT NE AND SE-SW P0000 T10171056

KABQ Airport Info (Airnav.com)

KABQ Flight Activity (Flightaware)

Listeners: 2 out of 1377 total

Albuquerque Approach/Departure (S of V12): 123.900

KABQ App/Dep (Other) (Archives)
Albuquerque, New Mexico, United States

Feed Status: UP
Listen in your browser - HTML5 player(in browser, HTML5)
Click here to listen with your own player(launches your MP3 player)

KABQ 201552Z 32004KT 7SM -SN FEW045 BKN060 OVC075 M02/M06 A3034 RMK AO2 SNB20 SLP292 MTNS OBSC NE AND SE SHSN DSNT NE AND SE-SW P0000 T10171056

KABQ Airport Info (Airnav.com)

KABQ Flight Activity (Flightaware)

Listeners: 0 out of 1377 total

Albuquerque Approach/Departure (N of V12): 127.400

KABQ Del/Gnd (Archives)
Albuquerque, New Mexico, United States

Feed Status: UP
Listen in your browser - HTML5 player(in browser, HTML5)
Click here to listen with your own player(launches your MP3 player)

KABQ 201552Z 32004KT 7SM -SN FEW045 BKN060 OVC075 M02/M06 A3034 RMK AO2 SNB20 SLP292 MTNS OBSC NE AND SE SHSN DSNT NE AND SE-SW P0000 T10171056

KABQ Airport Info (Airnav.com)

KABQ Flight Activity (Flightaware)

Listeners: 1 out of 1377 total

Albuquerque Clearance Delivery: 119.200
Albuquerque Ground: 121.900

KABQ Tower (Archives)
Albuquerque, New Mexico, United States

Feed Status: UP
Listen in your browser - HTML5 player(in browser, HTML5)
Click here to listen with your own player(launches your MP3 player)

KABQ 201552Z 32004KT 7SM -SN FEW045 BKN060 OVC075 M02/M06 A3034 RMK AO2 SNB20 SLP292 MTNS OBSC NE AND SE SHSN DSNT NE AND SE-SW P0000 T10171056

KABQ Airport Info (Airnav.com)

KABQ Flight Activity (Flightaware)

Listeners: 0 out of 1377 total

Albuquerque Tower: 120.300

KABQ Tower #2 (Archives)
Albuquerque, New Mexico, United States

Feed Status: UP
Listen in your browser - HTML5 player(in browser, HTML5)
Click here to listen with your own player(launches your MP3 player)

KABQ 201552Z 32004KT 7SM -SN FEW045 BKN060 OVC075 M02/M06 A3034 RMK AO2 SNB20 SLP292 MTNS OBSC NE AND SE SHSN DSNT NE AND SE-SW P0000 T10171056

KABQ Airport Info (Airnav.com)

KABQ Flight Activity (Flightaware)

Listeners: 0 out of 1377 total

Albuquerque Tower: 120.300

KABQ Twr/App/ZAB (Archives)
Albuquerque, New Mexico, United States

Feed Status: UP
Listen in your browser - HTML5 player(in browser, HTML5)
Click here to listen with your own player(launches your MP3 player)

KABQ 201552Z 32004KT 7SM -SN FEW045 BKN060 OVC075 M02/M06 A3034 RMK AO2 SNB20 SLP292 MTNS OBSC NE AND SE SHSN DSNT NE AND SE-SW P0000 T10171056

KABQ Airport Info (Airnav.com)

KABQ Flight Activity (Flightaware)

Listeners: 1 out of 1377 total

Albuquerque Approach (South): 126.300
Albuquerque Approach/Departure (N of V12): 127.400
Albuquerque Approach/Departure (S of V12): 123.900
Albuquerque Clearance Delivery: 119.200
Albuquerque Tower: 120.300
Albuquerque Tower (South): 123.775
Albuquerque UNICOM: 122.950
ZAB Albuquerque Center Sector 16 SAN-L: 132.800
ZAB Albuquerque Center Sector 17 LAVA-L: 124.325
ZAB Albuquerque Center Sector 94 CNX-LH: 133.650

KACY App/Dep (Archives)
Atlantic City, New Jersey, United States

Feed Status: UP
Listen in your browser - HTML5 player(in browser, HTML5)
Click here to listen with your own player(launches your MP3 player)

KACY 201554Z 31016G25KT 10SM SCT048 BKN055 06/M04 A2993 RMK AO2 PK WND 30032/1515 SLP137 T00561044

KACY Airport Info (Airnav.com)

KACY Flight Activity (Flightaware)

Listeners: 1 out of 1377 total

Atlantic City Approach/Departure: 124.600
Atlantic City Approach/Departure: 134.250
Atlantic City Approach/Departure: 385.500
Atlantic City Approach/Departure: 327.125

KACY ATIS (Archives)
Atlantic City, New Jersey, United States

Feed Status: UP
Listen in your browser - HTML5 player(in browser, HTML5)
Click here to listen with your own player(launches your MP3 player)

KACY 201554Z 31016G25KT 10SM SCT048 BKN055 06/M04 A2993 RMK AO2 PK WND 30032/1515 SLP137 T00561044

KACY Airport Info (Airnav.com)

KACY Flight Activity (Flightaware)

Listeners: 0 out of 1377 total

Atlantic City ATIS: 125.725

KACY Clearance Delivery (Archives)
Atlantic City, New Jersey, United States

Feed Status: UP
Listen in your browser - HTML5 player(in browser, HTML5)
Click here to listen with your own player(launches your MP3 player)

KACY 201554Z 31016G25KT 10SM SCT048 BKN055 06/M04 A2993 RMK AO2 PK WND 30032/1515 SLP137 T00561044

KACY Airport Info (Airnav.com)

KACY Flight Activity (Flightaware)

Listeners: 0 out of 1377 total

Atlantic City Clearance: 127.850

KACY GIANT KILLER (Archives)
Atlantic City, New Jersey, United States

Feed Status: UP
Listen in your browser - HTML5 player(in browser, HTML5)
Click here to listen with your own player(launches your MP3 player)

KACY 201554Z 31016G25KT 10SM SCT048 BKN055 06/M04 A2993 RMK AO2 PK WND 30032/1515 SLP137 T00561044

KACY Airport Info (Airnav.com)

KACY Flight Activity (Flightaware)

Listeners: 0 out of 1377 total

GIANT KILLER Common Area (Air-Air): 337.225
GIANT KILLER W-105/W-106 Check In/Out: 135.225
GIANT KILLER W-105/W-106 Check In/Out: 338.100
GIANT KILLER W-105/W-106 Common Area: 305.250
GIANT KILLER W-107 Check In/Out: 135.725
GIANT KILLER W-107 Check In/Out: 255.000
GIANT KILLER W-107 Common Area: 339.725
GIANT KILLER W-386 Common Area (A through F): 312.200
GIANT KILLER W-386 Common Area (G through J): 350.050
GIANT KILLER W-386 Common Area (K) and W-387 Common Area (All): 346.600
GIANT KILLER W-386/W-387 Check In/Out: 118.125
GIANT KILLER W-386/W-387 Check In/Out (Primary): 238.100
GIANT KILLER W-386/W-387 Check In/Out (Secondary): 249.800

KACY Ground (Archives)
Atlantic City, New Jersey, United States

Feed Status: UP
Listen in your browser - HTML5 player(in browser, HTML5)
Click here to listen with your own player(launches your MP3 player)

KACY 201554Z 31016G25KT 10SM SCT048 BKN055 06/M04 A2993 RMK AO2 PK WND 30032/1515 SLP137 T00561044

KACY Airport Info (Airnav.com)

KACY Flight Activity (Flightaware)

Listeners: 0 out of 1377 total

Atlantic City Ground: 121.900

KACY Tower (Archives)
Atlantic City, New Jersey, United States

Feed Status: UP
Listen in your browser - HTML5 player(in browser, HTML5)
Click here to listen with your own player(launches your MP3 player)

KACY 201554Z 31016G25KT 10SM SCT048 BKN055 06/M04 A2993 RMK AO2 PK WND 30032/1515 SLP137 T00561044

KACY Airport Info (Airnav.com)

KACY Flight Activity (Flightaware)

Listeners: 1 out of 1377 total

Atlantic City Tower: 120.300

KALB Approach/Departure (Archives)
Albany, New York, United States

Feed Status: UP
Listen in your browser - HTML5 player(in browser, HTML5)
Click here to listen with your own player(launches your MP3 player)

KALB 201551Z 29008G16KT 8SM -SN FEW016 BKN026 BKN041 BKN250 M02/M05 A2989 RMK AO2 SNB29 SLP124 P0000 T10221050

KALB Airport Info (Airnav.com)

KALB Flight Activity (Flightaware)

Listeners: 0 out of 1377 total

Albany Approach/Departure: 132.825
Albany Approach/Departure: 118.050

KALB ATIS (Archives)
Albany, New York, United States

Feed Status: UP
Listen in your browser - HTML5 player(in browser, HTML5)
Click here to listen with your own player(launches your MP3 player)

KALB 201551Z 29008G16KT 8SM -SN FEW016 BKN026 BKN041 BKN250 M02/M05 A2989 RMK AO2 SNB29 SLP124 P0000 T10221050

KALB Airport Info (Airnav.com)

KALB Flight Activity (Flightaware)

Listeners: 0 out of 1377 total

Albany ATIS: 120.450

KALB Ground (Archives)
Albany, New York, United States

Feed Status: UP
Listen in your browser - HTML5 player(in browser, HTML5)
Click here to listen with your own player(launches your MP3 player)

KALB 201551Z 29008G16KT 8SM -SN FEW016 BKN026 BKN041 BKN250 M02/M05 A2989 RMK AO2 SNB29 SLP124 P0000 T10221050

KALB Airport Info (Airnav.com)

KALB Flight Activity (Flightaware)

Listeners: 0 out of 1377 total

Albany Ground: 121.700

KALB Ground/Tower (Archives)
Albany, New York, United States

Feed Status: UP
Listen in your browser - HTML5 player(in browser, HTML5)
Click here to listen with your own player(launches your MP3 player)

KALB 201551Z 29008G16KT 8SM -SN FEW016 BKN026 BKN041 BKN250 M02/M05 A2989 RMK AO2 SNB29 SLP124 P0000 T10221050

KALB Airport Info (Airnav.com)

KALB Flight Activity (Flightaware)

Listeners: 0 out of 1377 total

Albany Ground: 121.700
Albany Tower: 119.500

KALB Tower (Archives)
Albany, New York, United States

Feed Status: UP
Listen in your browser - HTML5 player(in browser, HTML5)
Click here to listen with your own player(launches your MP3 player)

KALB 201551Z 29008G16KT 8SM -SN FEW016 BKN026 BKN041 BKN250 M02/M05 A2989 RMK AO2 SNB29 SLP124 P0000 T10221050

KALB Airport Info (Airnav.com)

KALB Flight Activity (Flightaware)

Listeners: 1 out of 1377 total

Albany Tower: 119.500

KAUG Portland App/ZBW (Archives)
Augusta, Maine, United States

Feed Status: UP
Listen in your browser - HTML5 player(in browser, HTML5)
Click here to listen with your own player(launches your MP3 player)

KAUG 201553Z AUTO 00000KT 10SM OVC049 M02/M10 A2983 RMK AO2 SLP106 T10221100

KAUG Airport Info (Airnav.com)

KAUG Flight Activity (Flightaware)

Listeners: 0 out of 1377 total

Boston Center (Sector 02 Augusta High): 134.950
Portland Approach: 128.350

KAUS App/Dep #1 (Archives)
Austin, Texas, United States

Feed Status: UP
Listen in your browser - HTML5 player(in browser, HTML5)
Click here to listen with your own player(launches your MP3 player)

KAUS 201553Z 01010KT 10SM OVC013 09/07 A3036 RMK AO2 RAE1458 SLP283 P0000 T00940067

KAUS Airport Info (Airnav.com)

KAUS Flight Activity (Flightaware)

Listeners: 0 out of 1377 total

Austin Approach (Final): 125.325
Austin Approach/Departure (East): 127.225
Austin Approach/Departure (South): 120.875
Austin Approach/Depature (West): 119.000

KAUS App/Dep #2 (Archives)
Austin, Texas, United States

Feed Status: UP
Listen in your browser - HTML5 player(in browser, HTML5)
Click here to listen with your own player(launches your MP3 player)

KAUS 201553Z 01010KT 10SM OVC013 09/07 A3036 RMK AO2 RAE1458 SLP283 P0000 T00940067

KAUS Airport Info (Airnav.com)

KAUS Flight Activity (Flightaware)

Listeners: 1 out of 1377 total

Austin Approach (Final): 125.325
Austin Approach (West): 119.000
Austin Approach/Departure (East): 127.225
Austin Approach/Departure (South): 120.875

KAUS App/Dep #3 (Archives)
Austin, Texas, United States

Feed Status: UP
Listen in your browser - HTML5 player(in browser, HTML5)
Click here to listen with your own player(launches your MP3 player)

KAUS 201553Z 01010KT 10SM OVC013 09/07 A3036 RMK AO2 RAE1458 SLP283 P0000 T00940067

KAUS Airport Info (Airnav.com)

KAUS Flight Activity (Flightaware)

Listeners: 0 out of 1377 total

Austin Approach (Final): 125.325
Austin Approach (West): 119.000
Austin Approach/Departure (East): 127.225
Austin Approach/Departure (SE): 118.150
Austin Approach/Departure (South): 120.875

KAUS App/Dep (East) #1 (Archives)
Austin, Texas, United States

Feed Status: UP
Listen in your browser - HTML5 player(in browser, HTML5)
Click here to listen with your own player(launches your MP3 player)

KAUS 201553Z 01010KT 10SM OVC013 09/07 A3036 RMK AO2 RAE1458 SLP283 P0000 T00940067

KAUS Airport Info (Airnav.com)

KAUS Flight Activity (Flightaware)

Listeners: 0 out of 1377 total

Austin Approach/Departure (East): 127.225

KAUS App/Dep (East) #2 (Archives)
Austin, Texas, United States

Feed Status: UP
Listen in your browser - HTML5 player(in browser, HTML5)
Click here to listen with your own player(launches your MP3 player)

KAUS 201553Z 01010KT 10SM OVC013 09/07 A3036 RMK AO2 RAE1458 SLP283 P0000 T00940067

KAUS Airport Info (Airnav.com)

KAUS Flight Activity (Flightaware)

Listeners: 0 out of 1377 total

Austin Approach/Departure (East): 127.225

KAUS App/Dep (SE) (Archives)
Austin, Texas, United States

Feed Status: UP
Listen in your browser - HTML5 player(in browser, HTML5)
Click here to listen with your own player(launches your MP3 player)

KAUS 201553Z 01010KT 10SM OVC013 09/07 A3036 RMK AO2 RAE1458 SLP283 P0000 T00940067

KAUS Airport Info (Airnav.com)

KAUS Flight Activity (Flightaware)

Listeners: 0 out of 1377 total

Austin Approach/Departure (SE): 118.150

KAUS App/Dep (South) #1 (Archives)
Austin, Texas, United States

Feed Status: UP
Listen in your browser - HTML5 player(in browser, HTML5)
Click here to listen with your own player(launches your MP3 player)

KAUS 201553Z 01010KT 10SM OVC013 09/07 A3036 RMK AO2 RAE1458 SLP283 P0000 T00940067

KAUS Airport Info (Airnav.com)

KAUS Flight Activity (Flightaware)

Listeners: 0 out of 1377 total

Austin Approach/Departure (South): 120.875

KAUS App/Dep (South) #2 (Archives)
Austin, Texas, United States

Feed Status: UP
Listen in your browser - HTML5 player(in browser, HTML5)
Click here to listen with your own player(launches your MP3 player)

KAUS 201553Z 01010KT 10SM OVC013 09/07 A3036 RMK AO2 RAE1458 SLP283 P0000 T00940067

KAUS Airport Info (Airnav.com)

KAUS Flight Activity (Flightaware)

Listeners: 0 out of 1377 total

Austin Approach/Departure (South): 120.875

KAUS App/Dep (West) #1 (Archives)
Austin, Texas, United States

Feed Status: UP
Listen in your browser - HTML5 player(in browser, HTML5)
Click here to listen with your own player(launches your MP3 player)

KAUS 201553Z 01010KT 10SM OVC013 09/07 A3036 RMK AO2 RAE1458 SLP283 P0000 T00940067

KAUS Airport Info (Airnav.com)

KAUS Flight Activity (Flightaware)

Listeners: 0 out of 1377 total

Austin Approach (West): 119.000

KAUS App/Dep (West) #2 (Archives)
Austin, Texas, United States

Feed Status: UP
Listen in your browser - HTML5 player(in browser, HTML5)
Click here to listen with your own player(launches your MP3 player)

KAUS 201553Z 01010KT 10SM OVC013 09/07 A3036 RMK AO2 RAE1458 SLP283 P0000 T00940067

KAUS Airport Info (Airnav.com)

KAUS Flight Activity (Flightaware)

Listeners: 0 out of 1377 total

Austin Approach (West): 119.000

KAUS Approach (Final) #2 (Archives)
Austin, Texas, United States

Feed Status: UP
Listen in your browser - HTML5 player(in browser, HTML5)
Click here to listen with your own player(launches your MP3 player)

KAUS 201553Z 01010KT 10SM OVC013 09/07 A3036 RMK AO2 RAE1458 SLP283 P0000 T00940067

KAUS Airport Info (Airnav.com)

KAUS Flight Activity (Flightaware)

Listeners: 0 out of 1377 total

Austin Approach (Final): 125.325

KAUS ATIS (Archives)
Austin, Texas, United States

Feed Status: UP
Listen in your browser - HTML5 player(in browser, HTML5)
Click here to listen with your own player(launches your MP3 player)

KAUS 201553Z 01010KT 10SM OVC013 09/07 A3036 RMK AO2 RAE1458 SLP283 P0000 T00940067

KAUS Airport Info (Airnav.com)

KAUS Flight Activity (Flightaware)

Listeners: 0 out of 1377 total

Austin ATIS: 124.400

KAUS Clearance Delivery #1 (Archives)
Austin, Texas, United States

Feed Status: UP
Listen in your browser - HTML5 player(in browser, HTML5)
Click here to listen with your own player(launches your MP3 player)

KAUS 201553Z 01010KT 10SM OVC013 09/07 A3036 RMK AO2 RAE1458 SLP283 P0000 T00940067

KAUS Airport Info (Airnav.com)

KAUS Flight Activity (Flightaware)

Listeners: 0 out of 1377 total

Austin Clearance Delivery: 125.500

KAUS Clearance Delivery #2 (Archives)
Austin, Texas, United States

Feed Status: UP
Listen in your browser - HTML5 player(in browser, HTML5)
Click here to listen with your own player(launches your MP3 player)

KAUS 201553Z 01010KT 10SM OVC013 09/07 A3036 RMK AO2 RAE1458 SLP283 P0000 T00940067

KAUS Airport Info (Airnav.com)

KAUS Flight Activity (Flightaware)

Listeners: 0 out of 1377 total

Austin Clearance Delivery: 125.500

KAUS Ground #1 (Archives)
Austin, Texas, United States

Feed Status: UP
Listen in your browser - HTML5 player(in browser, HTML5)
Click here to listen with your own player(launches your MP3 player)

KAUS 201553Z 01010KT 10SM OVC013 09/07 A3036 RMK AO2 RAE1458 SLP283 P0000 T00940067

KAUS Airport Info (Airnav.com)

KAUS Flight Activity (Flightaware)

Listeners: 0 out of 1377 total

Austin Ground: 121.900

KAUS Ground #2 (Archives)
Austin, Texas, United States

Feed Status: UP
Listen in your browser - HTML5 player(in browser, HTML5)
Click here to listen with your own player(launches your MP3 player)

KAUS 201553Z 01010KT 10SM OVC013 09/07 A3036 RMK AO2 RAE1458 SLP283 P0000 T00940067

KAUS Airport Info (Airnav.com)

KAUS Flight Activity (Flightaware)

Listeners: 0 out of 1377 total

Austin Ground: 121.900
Austin Ground (Backup): 121.700

KAUS Ground (Primary) #2 (Archives)
Austin, Texas, United States

Feed Status: UP
Listen in your browser - HTML5 player(in browser, HTML5)
Click here to listen with your own player(launches your MP3 player)

KAUS 201553Z 01010KT 10SM OVC013 09/07 A3036 RMK AO2 RAE1458 SLP283 P0000 T00940067

KAUS Airport Info (Airnav.com)

KAUS Flight Activity (Flightaware)

Listeners: 0 out of 1377 total

Austin Ground: 121.900

KAUS Ground (Secondary) #2 (Archives)
Austin, Texas, United States

Feed Status: UP
Listen in your browser - HTML5 player(in browser, HTML5)
Click here to listen with your own player(launches your MP3 player)

KAUS 201553Z 01010KT 10SM OVC013 09/07 A3036 RMK AO2 RAE1458 SLP283 P0000 T00940067

KAUS Airport Info (Airnav.com)

KAUS Flight Activity (Flightaware)

Listeners: 0 out of 1377 total

Austin Ground (Backup): 121.700

KAUS Tower #1 (Archives)
Austin, Texas, United States

Feed Status: UP
Listen in your browser - HTML5 player(in browser, HTML5)
Click here to listen with your own player(launches your MP3 player)

KAUS 201553Z 01010KT 10SM OVC013 09/07 A3036 RMK AO2 RAE1458 SLP283 P0000 T00940067

KAUS Airport Info (Airnav.com)

KAUS Flight Activity (Flightaware)

Listeners: 0 out of 1377 total

Austin Tower: 121.000

KAUS Tower #2 (Archives)
Austin, Texas, United States

Feed Status: UP
Listen in your browser - HTML5 player(in browser, HTML5)
Click here to listen with your own player(launches your MP3 player)

KAUS 201553Z 01010KT 10SM OVC013 09/07 A3036 RMK AO2 RAE1458 SLP283 P0000 T00940067

KAUS Airport Info (Airnav.com)

KAUS Flight Activity (Flightaware)

Listeners: 0 out of 1377 total

Austin Tower: 121.000
Austin Tower: 118.225

KAUS Tower #3 (Archives)
Austin, Texas, United States

Feed Status: UP
Listen in your browser - HTML5 player(in browser, HTML5)
Click here to listen with your own player(launches your MP3 player)

KAUS 201553Z 01010KT 10SM OVC013 09/07 A3036 RMK AO2 RAE1458 SLP283 P0000 T00940067

KAUS Airport Info (Airnav.com)

KAUS Flight Activity (Flightaware)

Listeners: 0 out of 1377 total

Austin Tower: 121.000

KAUS Tower (Main) #2 (Archives)
Austin, Texas, United States

Feed Status: UP
Listen in your browser - HTML5 player(in browser, HTML5)
Click here to listen with your own player(launches your MP3 player)

KAUS 201553Z 01010KT 10SM OVC013 09/07 A3036 RMK AO2 RAE1458 SLP283 P0000 T00940067

KAUS Airport Info (Airnav.com)

KAUS Flight Activity (Flightaware)

Listeners: 0 out of 1377 total

Austin Tower: 121.000

KAUS Tower (Secondary) #2 (Archives)
Austin, Texas, United States

Feed Status: UP
Listen in your browser - HTML5 player(in browser, HTML5)
Click here to listen with your own player(launches your MP3 player)

KAUS 201553Z 01010KT 10SM OVC013 09/07 A3036 RMK AO2 RAE1458 SLP283 P0000 T00940067

KAUS Airport Info (Airnav.com)

KAUS Flight Activity (Flightaware)

Listeners: 0 out of 1377 total

Austin Tower: 118.225

KAVL Gnd/Twr/App (Archives)
Asheville, North Carolina, United States

Feed Status: UP
Listen in your browser - HTML5 player(in browser, HTML5)
Click here to listen with your own player(launches your MP3 player)

KAVL 201554Z 35015G22KT 10SM CLR 04/M04 A3017 RMK AO2 SLP221 T00441044

KAVL Airport Info (Airnav.com)

KAVL Flight Activity (Flightaware)

Listeners: 1 out of 1377 total

Asheville Approach/Departure: 124.650
Asheville Approach/Departure: 125.800
Asheville Ground: 121.900
Asheville Tower/CTAF: 121.100
Asheville UNICOM: 122.950
Emergency (Guard): 121.500
Landmark Aviation (FBO): 130.275
RDU Radio: 122.100

KBTL/KAZO Gnd/Twr/App (Archives)
Kalamazoo, Michigan, United States

Feed Status: UP
Listen in your browser - HTML5 player(in browser, HTML5)
Click here to listen with your own player(launches your MP3 player)

KBTL Airport Info (Airnav.com)

KBTL Flight Activity (Flightaware)

Listeners: 0 out of 1377 total

Battle Creek Ground: 121.700
Battle Creek Tower: 126.825
Kalamazoo Approach/Departure: 119.200
Kalamazoo Ground: 121.900
Kalamazoo Tower: 118.300

KBDL Approach/ANG (Archives)
Windsor Locks, Connecticut, United States

Feed Status: UP
Listen in your browser - HTML5 player(in browser, HTML5)
Click here to listen with your own player(launches your MP3 player)

KBDL 201551Z 34005KT 10SM BKN027 BKN200 02/M04 A2985 RMK AO2 SLP108 T00221044

KBDL Airport Info (Airnav.com)

KBDL Flight Activity (Flightaware)

Listeners: 1 out of 1377 total

Bradley Approach (South): 127.800
Bradley Approach (South): 269.325
Bradley Approach (Spare): 127.225
Bradley Approach/Departure (North): 125.350
Bradley Approach/Departure (North): 281.500
Bradley Approach/Departure (West): 123.950
Bradley Approach/Departure (West): 290.550
Bradley Departure (South): 327.100
Bradley Departure (South): 323.200
CT ANG FURY Ops: 41.900
CT ANG FURY Ops: 139.200
CT ANG FURY Ops: 139.400
CT ANG FURY Ops: 243.900
CT ANG FURY Ops: 265.600
CT ANG SHARK Ops: 138.550
CT ANG SHARK Ops: 349.700
Emergency/Guard: 121.500
Emergency/Guard: 243.000

KBDL ATIS (Archives)
Windsor Locks, Connecticut, United States

Feed Status: UP
Listen in your browser - HTML5 player(in browser, HTML5)
Click here to listen with your own player(launches your MP3 player)

KBDL 201551Z 34005KT 10SM BKN027 BKN200 02/M04 A2985 RMK AO2 SLP108 T00221044

KBDL Airport Info (Airnav.com)

KBDL Flight Activity (Flightaware)

Listeners: 0 out of 1377 total

Bradley ATIS: 118.150

KBDL Del/Gnd (Archives)
Windsor Locks, Connecticut, United States

Feed Status: UP
Listen in your browser - HTML5 player(in browser, HTML5)
Click here to listen with your own player(launches your MP3 player)

KBDL 201551Z 34005KT 10SM BKN027 BKN200 02/M04 A2985 RMK AO2 SLP108 T00221044

KBDL Airport Info (Airnav.com)

KBDL Flight Activity (Flightaware)

Listeners: 0 out of 1377 total

Bradley Clearance Delivery: 121.750
Bradley Ground: 121.900
Emergency/Guard: 121.500

KBDL Tower (Archives)
Windsor Locks, Connecticut, United States

Feed Status: UP
Listen in your browser - HTML5 player(in browser, HTML5)
Click here to listen with your own player(launches your MP3 player)

KBDL 201551Z 34005KT 10SM BKN027 BKN200 02/M04 A2985 RMK AO2 SLP108 T00221044

KBDL Airport Info (Airnav.com)

KBDL Flight Activity (Flightaware)

Listeners: 4 out of 1377 total

Bradley Tower: 120.300

KBDL Twr/App (Archives)
Windsor Locks, Connecticut, United States

Feed Status: UP
Listen in your browser - HTML5 player(in browser, HTML5)
Click here to listen with your own player(launches your MP3 player)

KBDL 201551Z 34005KT 10SM BKN027 BKN200 02/M04 A2985 RMK AO2 SLP108 T00221044

KBDL Airport Info (Airnav.com)

KBDL Flight Activity (Flightaware)

Listeners: 2 out of 1377 total

Bradley Approach (South): 127.800
Bradley Approach (South): 269.325
Bradley Approach (Spare): 127.225
Bradley Approach/Departure (North): 125.350
Bradley Approach/Departure (North): 281.500
Bradley Approach/Departure (West): 290.550
Bradley Approach/Departure (West): 123.950
Bradley Tower: 120.300
CT ANG FURY Ops: 41.900
CT ANG FURY Ops: 265.600
CT ANG FURY Ops: 243.900
CT ANG FURY Ops: 139.400
CT ANG FURY Ops: 139.200
CT ANG SHARK Ops: 349.700
CT ANG SHARK Ops: 138.550
Emergency/Guard: 243.000
Emergency/Guard: 121.500

KBFM ATIS (Archives)
Mobile, Alabama, United States

Feed Status: UP
Listen in your browser - HTML5 player(in browser, HTML5)
Click here to listen with your own player(launches your MP3 player)

KBFM 201553Z 02009KT 10SM FEW027 15/08 A3039 RMK AO2 SLP289 T01500078

KBFM Airport Info (Airnav.com)

KBFM Flight Activity (Flightaware)

Listeners: 0 out of 1377 total

Mobile Downtown ATIS: 135.575

KBGR App/Dep (Archives)
Bangor, Maine, United States

Feed Status: UP
Listen in your browser - HTML5 player(in browser, HTML5)
Click here to listen with your own player(launches your MP3 player)

KBGR 201553Z 00000KT 10SM BKN070 M04/M11 A2984 RMK AO2 SNE1454 SLP107 P0000 T10391106

KBGR Airport Info (Airnav.com)

KBGR Flight Activity (Flightaware)

Listeners: 2 out of 1377 total

Bangor Approach: 118.925
Bangor Approach: 124.500

KBGR ATIS (Archives)
Bangor, Maine, United States

Feed Status: UP
Listen in your browser - HTML5 player(in browser, HTML5)
Click here to listen with your own player(launches your MP3 player)

KBGR 201553Z 00000KT 10SM BKN070 M04/M11 A2984 RMK AO2 SNE1454 SLP107 P0000 T10391106

KBGR Airport Info (Airnav.com)

KBGR Flight Activity (Flightaware)

Listeners: 0 out of 1377 total

Bangor ATIS: 127.750

KBGR Del/Gnd/Twr (Archives)
Bangor, Maine, United States

Feed Status: UP
Listen in your browser - HTML5 player(in browser, HTML5)
Click here to listen with your own player(launches your MP3 player)

KBGR 201553Z 00000KT 10SM BKN070 M04/M11 A2984 RMK AO2 SNE1454 SLP107 P0000 T10391106

KBGR Airport Info (Airnav.com)

KBGR Flight Activity (Flightaware)

Listeners: 2 out of 1377 total

Bangor Clearance Delivery: 135.900
Bangor Ground: 121.900
Bangor Tower: 120.700

KBHM Gnd/Twr/App (Archives)
Birmingham, Alabama, United States

Feed Status: UP
Listen in your browser - HTML5 player(in browser, HTML5)
Click here to listen with your own player(launches your MP3 player)

KBHM 201553Z 35005KT 10SM BKN250 08/02 A3039 RMK AO2 SLP292 T00830022

KBHM Airport Info (Airnav.com)

KBHM Flight Activity (Flightaware)

Listeners: 1 out of 1377 total

Birmingham Approach/Departure: 127.675
Birmingham Approach/Departure: 123.800
Birmingham Ground: 121.700
Birmingham Tower: 118.250
Birmingham Tower: 119.900

KBIL Approach (West) (Archives)
Billings, Montana, United States

Feed Status: UP
Listen in your browser - HTML5 player(in browser, HTML5)
Click here to listen with your own player(launches your MP3 player)

KBIL 201553Z 31007KT 10SM FEW085 SCT110 BKN200 04/M13 A2993 RMK AO2 SLP154 T00441133 $

KBIL Airport Info (Airnav.com)

KBIL Flight Activity (Flightaware)

Listeners: 0 out of 1377 total

Billing Approach (West): 120.500

KBIL Ground (Archives)
Billings, Montana, United States

Feed Status: UP
Listen in your browser - HTML5 player(in browser, HTML5)
Click here to listen with your own player(launches your MP3 player)

KBIL 201553Z 31007KT 10SM FEW085 SCT110 BKN200 04/M13 A2993 RMK AO2 SLP154 T00441133 $

KBIL Airport Info (Airnav.com)

KBIL Flight Activity (Flightaware)

Listeners: 0 out of 1377 total

Billings Ground: 121.900

KBIL Tower (Archives)
Billings, Montana, United States

Feed Status: UP
Listen in your browser - HTML5 player(in browser, HTML5)
Click here to listen with your own player(launches your MP3 player)

KBIL 201553Z 31007KT 10SM FEW085 SCT110 BKN200 04/M13 A2993 RMK AO2 SLP154 T00441133 $

KBIL Airport Info (Airnav.com)

KBIL Flight Activity (Flightaware)

Listeners: 0 out of 1377 total

Billings Tower: 127.200

KBNA App/Dep (Archives)
Nashville, Tennessee, United States

Feed Status: UP
Listen in your browser - HTML5 player(in browser, HTML5)
Click here to listen with your own player(launches your MP3 player)

KBNA 201553Z 30006KT 10SM FEW200 SCT250 06/M05 A3039 RMK AO2 SLP292 T00561050

KBNA Airport Info (Airnav.com)

KBNA Flight Activity (Flightaware)

Listeners: 2 out of 1377 total

Nashville App/Dep (East): 118.400
Nashville App/Dep (West): 119.350
Nashville Approach (Final): 124.750

KBNA App/Dep (East) (Archives)
Nashville, Tennessee, United States

Feed Status: UP
Listen in your browser - HTML5 player(in browser, HTML5)
Click here to listen with your own player(launches your MP3 player)

KBNA 201553Z 30006KT 10SM FEW200 SCT250 06/M05 A3039 RMK AO2 SLP292 T00561050

KBNA Airport Info (Airnav.com)

KBNA Flight Activity (Flightaware)

Listeners: 0 out of 1377 total

Nashville App/Dep (East): 118.400

KBNA Gnd/Twr (Archives)
Nashville, Tennessee, United States

Feed Status: UP
Listen in your browser - HTML5 player(in browser, HTML5)
Click here to listen with your own player(launches your MP3 player)

KBNA 201553Z 30006KT 10SM FEW200 SCT250 06/M05 A3039 RMK AO2 SLP292 T00561050

KBNA Airport Info (Airnav.com)

KBNA Flight Activity (Flightaware)

Listeners: 0 out of 1377 total

Nashville Ground: 121.900
Nashville Tower: 118.600

KBOI Del/Gnd (Archives)
Boise, Idaho, United States

Feed Status: UP
Listen in your browser - HTML5 player(in browser, HTML5)
Click here to listen with your own player(launches your MP3 player)

KBOI 201553Z 12009KT 10SM CLR M04/M11 A3027 RMK AO2 SLP276 T10391106

KBOI Airport Info (Airnav.com)

KBOI Flight Activity (Flightaware)

Listeners: 0 out of 1377 total

Boise Clearance Delivery: 125.900
Boise Ground: 121.700

KBOI Twr/App (Archives)
Boise, Idaho, United States

Feed Status: UP
Listen in your browser - HTML5 player(in browser, HTML5)
Click here to listen with your own player(launches your MP3 player)

KBOI 201553Z 12009KT 10SM CLR M04/M11 A3027 RMK AO2 SLP276 T10391106

KBOI Airport Info (Airnav.com)

KBOI Flight Activity (Flightaware)

Listeners: 1 out of 1377 total

Boise Approach/Departure (North): 126.900
Boise Approach/Departure (South): 119.600
Boise Tower: 118.100

KBTL/KAZO Gnd/Twr/App (Archives)
Battle Creek, Michigan, United States

Feed Status: UP
Listen in your browser - HTML5 player(in browser, HTML5)
Click here to listen with your own player(launches your MP3 player)

KBTL Airport Info (Airnav.com)

KBTL Flight Activity (Flightaware)

Listeners: 0 out of 1377 total

Battle Creek Ground: 121.700
Battle Creek Tower: 126.825
Kalamazoo Approach/Departure: 119.200
Kalamazoo Ground: 121.900
Kalamazoo Tower: 118.300

KBTR/KHZR/L38 Del/Gnd/Twr/App/CTAF
Baton Rouge, Louisiana, United States

Feed Status: DOWN
Offline since: 2021-01-20 04:08:22 UTC

KBTR 201553Z 05011KT 10SM OVC040 15/09 A3037 RMK AO2 SLP285 T01500094

KBTR Airport Info (Airnav.com)

Baton Rouge Approach/Departure (East): 126.500
Baton Rouge Approach/Departure (Military): 278.300
Baton Rouge Approach/Departure (West): 120.300
Baton Rouge Clearance Delivery: 119.400
Baton Rouge Ground: 121.900
Baton Rouge Tower (Military): 257.800
Baton Rouge Tower/CTAF: 118.450
Baton Rouge UNICOM: 122.950
Houston Center (App/Dep when Approach closed): 338.250
Houston Center (App/Dep when Approach closed): 126.350
Louisiana Regional L38 CTAF: 123.000
United Airlines: 129.925

KBTV App/Dep (Archives)
Burlington, Vermont, United States

Feed Status: UP
Listen in your browser - HTML5 player(in browser, HTML5)
Click here to listen with your own player(launches your MP3 player)

KBTV 201554Z 35007KT 1 1/4SM -SN BR SCT009 OVC017 M04/M06 A2988 RMK AO2 SLP122 SNINCR 1/10 P0002 T10391061

KBTV Airport Info (Airnav.com)

KBTV Flight Activity (Flightaware)

Listeners: 0 out of 1377 total

Burlington Approach/Departure: 278.800
Burlington Approach/Departure: 121.100

KBTV ATIS (Archives)
Burlington, Vermont, United States

Feed Status: UP
Listen in your browser - HTML5 player(in browser, HTML5)
Click here to listen with your own player(launches your MP3 player)

KBTV 201554Z 35007KT 1 1/4SM -SN BR SCT009 OVC017 M04/M06 A2988 RMK AO2 SLP122 SNINCR 1/10 P0002 T10391061

KBTV Airport Info (Airnav.com)

KBTV Flight Activity (Flightaware)

Listeners: 0 out of 1377 total

Burlington ATIS: 123.800

KBTV Del/Gnd/Twr (Archives)
Burlington, Vermont, United States

Feed Status: UP
Listen in your browser - HTML5 player(in browser, HTML5)
Click here to listen with your own player(launches your MP3 player)

KBTV 201554Z 35007KT 1 1/4SM -SN BR SCT009 OVC017 M04/M06 A2988 RMK AO2 SLP122 SNINCR 1/10 P0002 T10391061

KBTV Airport Info (Airnav.com)

KBTV Flight Activity (Flightaware)

Listeners: 0 out of 1377 total

Burlington Clearance Delivery: 119.150
Burlington Ground: 126.300
Burlington Ground: 348.600
Burlington Tower: 118.300
Burlington Tower: 257.800

KBTV Del/Gnd/Twr/App (Archives)
Burlington, Vermont, United States

Feed Status: UP
Listen in your browser - HTML5 player(in browser, HTML5)
Click here to listen with your own player(launches your MP3 player)

KBTV 201554Z 35007KT 1 1/4SM -SN BR SCT009 OVC017 M04/M06 A2988 RMK AO2 SLP122 SNINCR 1/10 P0002 T10391061

KBTV Airport Info (Airnav.com)

KBTV Flight Activity (Flightaware)

Listeners: 3 out of 1377 total

Burlington Approach/Departure: 278.800
Burlington Approach/Departure: 121.100
Burlington Clearance Delivery: 119.150
Burlington Ground: 126.300
Burlington Ground: 348.600
Burlington Tower: 257.800
Burlington Tower: 118.300

KBTV Twr/App (Archives)
Burlington, Vermont, United States

Feed Status: UP
Listen in your browser - HTML5 player(in browser, HTML5)
Click here to listen with your own player(launches your MP3 player)

KBTV 201554Z 35007KT 1 1/4SM -SN BR SCT009 OVC017 M04/M06 A2988 RMK AO2 SLP122 SNINCR 1/10 P0002 T10391061

KBTV Airport Info (Airnav.com)

KBTV Flight Activity (Flightaware)

Listeners: 1 out of 1377 total

Burlington Approach/Departure: 121.100
Burlington Tower: 118.300

KBUF Twr/App/Dep (Archives)
Buffalo, New York, United States

Feed Status: UP
Listen in your browser - HTML5 player(in browser, HTML5)
Click here to listen with your own player(launches your MP3 player)

KBUF 201554Z 29012KT 9SM -SN BKN027 OVC060 M04/M11 A3008 RMK AO2 SLP198 P0000 T10441106

KBUF Airport Info (Airnav.com)

KBUF Flight Activity (Flightaware)

Listeners: 0 out of 1377 total

Buffalo Approach: 126.150
Buffalo Approach: 126.500
Buffalo Flight Service: 122.200
Buffalo Tower: 120.500
Emergency/Guard: 121.500

KBUR Gnd/Twr/App (Archives)
Burbank, California, United States

Feed Status: UP
Listen in your browser - HTML5 player(in browser, HTML5)
Click here to listen with your own player(launches your MP3 player)

KBUR 201553Z 00000KT 10SM CLR 14/00 A2997 RMK AO2 SLP141 T01390000

KBUR Airport Info (Airnav.com)

KBUR Flight Activity (Flightaware)

Listeners: 2 out of 1377 total

KBUR Ground: 123.900
KBUR Tower: 118.700
SOCAL Approach (Moorpark Sector): 128.750
SOCAL Approach (Valley Sector): 124.600
SOCAL Approach (Woodland Sector): 134.200

KBUR Ground/Tower
Burbank, California, United States

Feed Status: DOWN
Offline since: 2020-12-09 00:30:21 UTC

KBUR 201553Z 00000KT 10SM CLR 14/00 A2997 RMK AO2 SLP141 T01390000

KBUR Airport Info (Airnav.com)

KBUR Ground: 123.900
KBUR Tower: 118.700

KCAE Gnd/Twr/App (Archives)
Columbia, South Carolina, United States

Feed Status: UP
Listen in your browser - HTML5 player(in browser, HTML5)
Click here to listen with your own player(launches your MP3 player)

KCAE 201556Z 29011KT 10SM FEW180 14/01 A3020 RMK AO2 SLP226 T01390011

KCAE Airport Info (Airnav.com)

KCAE Flight Activity (Flightaware)

Listeners: 2 out of 1377 total

Columbia Approach/Departure: 338.200
Columbia Approach/Departure: 285.600
Columbia Approach/Departure: 124.150
Columbia Approach/Departure: 133.400
Columbia Clearance Delivery: 119.750
Columbia Ground: 348.600
Columbia Ground: 121.900
Columbia Tower: 257.800
Columbia Tower: 119.500
Emergency/Guard: 121.500
Emergency/Guard: 243.000

KCAK App/Dep (Archives)
Akron, Ohio, United States

Feed Status: UP
Listen in your browser - HTML5 player(in browser, HTML5)
Click here to listen with your own player(launches your MP3 player)

KCAK 201551Z 28008KT 6SM -SN FEW018 OVC029 M04/M09 A3019 RMK AO2 SNB18 SLP239 P0000 T10441094

KCAK Airport Info (Airnav.com)

KCAK Flight Activity (Flightaware)

Listeners: 0 out of 1377 total

Akron-Canton Approach (Final): 126.400
Akron-Canton Approach/Departure: 118.600
Akron-Canton Approach/Departure: 125.500
Akron-Canton Approach/Departure (backup): 127.050

KCAK ATIS (Archives)
Akron, Ohio, United States

Feed Status: UP
Listen in your browser - HTML5 player(in browser, HTML5)
Click here to listen with your own player(launches your MP3 player)

KCAK 201551Z 28008KT 6SM -SN FEW018 OVC029 M04/M09 A3019 RMK AO2 SNB18 SLP239 P0000 T10441094

KCAK Airport Info (Airnav.com)

KCAK Flight Activity (Flightaware)

Listeners: 0 out of 1377 total

Akron-Canton ATIS: 121.050

KCAK Del/Gnd/Twr (Archives)
Akron, Ohio, United States

Feed Status: UP
Listen in your browser - HTML5 player(in browser, HTML5)
Click here to listen with your own player(launches your MP3 player)

KCAK 201551Z 28008KT 6SM -SN FEW018 OVC029 M04/M09 A3019 RMK AO2 SNB18 SLP239 P0000 T10441094

KCAK Airport Info (Airnav.com)

KCAK Flight Activity (Flightaware)

Listeners: 0 out of 1377 total

Akron-Canton Clearance: 132.050
Akron-Canton Ground: 121.700
Akron-Canton Tower: 134.750
Emergency/Guard: 121.500

KCAK Del/Gnd/Twr/App (Archives)
Akron, Ohio, United States

Feed Status: UP
Listen in your browser - HTML5 player(in browser, HTML5)
Click here to listen with your own player(launches your MP3 player)

KCAK 201551Z 28008KT 6SM -SN FEW018 OVC029 M04/M09 A3019 RMK AO2 SNB18 SLP239 P0000 T10441094

KCAK Airport Info (Airnav.com)

KCAK Flight Activity (Flightaware)

Listeners: 0 out of 1377 total

Akron-Canton Approach: 118.600
Akron-Canton Approach: 125.500
Akron-Canton Clearance: 132.050
Akron-Canton Departure: 126.400
Akron-Canton Ground: 121.700
Akron-Canton Tower: 134.750
Emergency/Guard: 121.500

KCHA Twr/App (Archives)
Chattanooga, Tennessee, United States

Feed Status: UP
Listen in your browser - HTML5 player(in browser, HTML5)
Click here to listen with your own player(launches your MP3 player)

KCHA 201553Z VRB04KT 10SM SCT250 08/M04 A3036 RMK AO2 SLP281 T00781039

KCHA Airport Info (Airnav.com)

KCHA Flight Activity (Flightaware)

Listeners: 0 out of 1377 total

Chattanooga Approach/Departure: 119.200
Chattanooga Approach/Departure: 125.100
Chattanooga Tower: 118.300

KCHS Gnd/Twr/App (Archives)
Charleston, South Carolina, United States

Feed Status: UP
Listen in your browser - HTML5 player(in browser, HTML5)
Click here to listen with your own player(launches your MP3 player)

KCHS 201556Z 28009G19KT 10SM FEW090 16/01 A3021 RMK AO2 SLP228 T01560011

KCHS Airport Info (Airnav.com)

KCHS Flight Activity (Flightaware)

Listeners: 0 out of 1377 total

Charleston Approach/Departure: 306.925
Charleston Approach/Departure: 120.700
Charleston Approach/Departure: 379.925
Charleston Approach/Departure: 119.300
Charleston Ground: 121.900
Charleston Ground: 348.600
Charleston Tower: 239.000
Charleston Tower: 126.000
Emergency/Guard: 121.500
Emergency/Guard: 243.000

KCID Del/Gnd/Twr/App (Archives)
Cedar Rapids, Iowa, United States

Feed Status: UP
Listen in your browser - HTML5 player(in browser, HTML5)
Click here to listen with your own player(launches your MP3 player)

KCID 201552Z 16011KT 10SM CLR M10/M13 A3009 RMK AO2 SLP205 T11001128

KCID Airport Info (Airnav.com)

KCID Flight Activity (Flightaware)

Listeners: 0 out of 1377 total

Cedar Rapids Approach (North): 134.050
Cedar Rapids Approach (South): 119.700
Cedar Rapids Clearance Delivery: 125.450
Cedar Rapids Ground: 121.600
Cedar Rapids Tower: 118.700

KCID Gnd/Twr/App/KIOW (Archives)
Cedar Rapids, Iowa, United States

Feed Status: UP
Listen in your browser - HTML5 player(in browser, HTML5)
Click here to listen with your own player(launches your MP3 player)

KCID 201552Z 16011KT 10SM CLR M10/M13 A3009 RMK AO2 SLP205 T11001128

KCID Airport Info (Airnav.com)

KCID Flight Activity (Flightaware)

Listeners: 0 out of 1377 total

Cedar Rapids Approach (091-269): 119.700
Cedar Rapids Approach (270-090): 134.050
Cedar Rapids Clearance Delivery: 125.450
Cedar Rapids Ground (0500-2330): 121.600
Cedar Rapids Tower (0500-2330): 118.700
UNICOM C17 (Marion) and surrounding area: 122.700
UNICOM IA24 Green Castle: 122.900
UNICOM KIOW (Iowa City) and surrounding area: 122.800

KCMH Twr/App (Archives)
Columbus, Ohio, United States

Feed Status: UP
Listen in your browser - HTML5 player(in browser, HTML5)
Click here to listen with your own player(launches your MP3 player)

KCMH 201551Z 32007KT 10SM OVC044 M02/M08 A3026 RMK AO2 SLP254 T10171083

KCMH Airport Info (Airnav.com)

KCMH Flight Activity (Flightaware)

Listeners: 0 out of 1377 total

Columbus Approach (Final): 118.200
Columbus Approach/Departure (North): 125.950
Columbus Approach/Departure (South): 119.150
Columbus Clearance Delivery: 126.300
Columbus Tower: 132.700
Columbus Tower: 127.525
Columbus Unicom: 122.950
Emergency/Guard: 121.500

KCOS Gnd/Twr/App/Dep (Archives)
Colorado Springs, Colorado, United States

Feed Status: UP
Listen in your browser - HTML5 player(in browser, HTML5)
Click here to listen with your own player(launches your MP3 player)

KCOS 201554Z 26005KT 10SM FEW100 FEW180 03/M06 A3003 RMK AO2 SLP205 T00331061

KCOS Airport Info (Airnav.com)

KCOS Flight Activity (Flightaware)

Listeners: 0 out of 1377 total

Springs Approach/Departure: 120.600
Springs Approach/Departure (East): 124.000
Springs Ground: 121.700
Springs Tower: 119.900
Springs Tower (East): 133.150

KCRP App/Dep (Archives)
Corpus Christi, Texas, United States

Feed Status: UP
Listen in your browser - HTML5 player(in browser, HTML5)
Click here to listen with your own player(launches your MP3 player)

KCRP 201551Z 03009KT 4SM BR OVC005 16/14 A3029 RMK AO2 SLP256 VIS LWR N-NE T01560139

KCRP Airport Info (Airnav.com)

KCRP Flight Activity (Flightaware)

Listeners: 0 out of 1377 total

Corpus Christi Approach: 120.900
Corpus Christi Approach: 124.800
Emergency/Guard: 121.500

KCRP Del/Gnd/Twr (Archives)
Corpus Christi, Texas, United States

Feed Status: UP
Listen in your browser - HTML5 player(in browser, HTML5)
Click here to listen with your own player(launches your MP3 player)

KCRP 201551Z 03009KT 4SM BR OVC005 16/14 A3029 RMK AO2 SLP256 VIS LWR N-NE T01560139

KCRP Airport Info (Airnav.com)

KCRP Flight Activity (Flightaware)

Listeners: 0 out of 1377 total

Corpus Christi Clearance Delivery: 118.550
Corpus Christi Ground: 121.900
Corpus Christi Tower: 119.400

KCRW Tower/Approach (Archives)
Charleston, West Virginia, United States

Feed Status: UP
Listen in your browser - HTML5 player(in browser, HTML5)
Click here to listen with your own player(launches your MP3 player)

KCRW 201554Z VRB04KT 10SM FEW022 SCT034 BKN045 01/M06 A3026 RMK AO2 SNE42 SLP255 P0000 T00061056

KCRW Airport Info (Airnav.com)

KCRW Flight Activity (Flightaware)

Listeners: 1 out of 1377 total

Charleston Approach/Departure: 128.500
Charleston Approach/Departure (North): 124.100
Charleston Approach/Departure (South): 119.200
Charleston Clearance Delivery: 118.550
Charleston Ground: 121.800
Charleston Tower: 125.700
Emergency/Guard: 121.500

KDAB App/Dep (Archives)
Daytona Beach, Florida, United States

Feed Status: UP
Listen in your browser - HTML5 player(in browser, HTML5)
Click here to listen with your own player(launches your MP3 player)

KDAB 201553Z 31006KT 10SM FEW250 17/06 A3034 RMK AO2 SLP273 T01720061

KDAB Airport Info (Airnav.com)

KDAB Flight Activity (Flightaware)

Listeners: 2 out of 1377 total

Daytona Approach (East/Low): 123.900
Daytona Approach (North/High): 118.850
Daytona Approach (South/High): 127.075
Daytona Approach (West 8000-10000'): 125.725
Daytona Approach (West SFC-3500): 126.550
Daytona Approach/Departure (South): 125.350

KDAB App/Dep (All) (Archives)
Daytona Beach, Florida, United States

Feed Status: UP
Listen in your browser - HTML5 player(in browser, HTML5)
Click here to listen with your own player(launches your MP3 player)

KDAB 201553Z 31006KT 10SM FEW250 17/06 A3034 RMK AO2 SLP273 T01720061

KDAB Airport Info (Airnav.com)

KDAB Flight Activity (Flightaware)

Listeners: 0 out of 1377 total

Daytona Approach (East/Low): 123.900
Daytona Approach (North/High): 118.850
Daytona Approach (North/Low): 125.800
Daytona Approach (South/High): 127.075
Daytona Approach (West 8000-10000'): 125.725
Daytona Approach (West SFC-3500): 126.550
Daytona Approach/Departure (South): 125.350

KDAB Approach (North/Low) (Archives)
Daytona Beach, Florida, United States

Feed Status: UP
Listen in your browser - HTML5 player(in browser, HTML5)
Click here to listen with your own player(launches your MP3 player)

KDAB 201553Z 31006KT 10SM FEW250 17/06 A3034 RMK AO2 SLP273 T01720061

KDAB Airport Info (Airnav.com)

KDAB Flight Activity (Flightaware)

Listeners: 1 out of 1377 total

Daytona Approach (North/Low): 125.800

KDAB ATIS
Daytona Beach, Florida, United States

Feed Status: DOWN
Offline since: 2020-12-17 01:32:22 UTC

KDAB 201553Z 31006KT 10SM FEW250 17/06 A3034 RMK AO2 SLP273 T01720061

KDAB Airport Info (Airnav.com)

Daytona Beach ATIS: 132.875

KDAB Clearance/Ground (Archives)
Daytona Beach, Florida, United States

Feed Status: UP
Listen in your browser - HTML5 player(in browser, HTML5)
Click here to listen with your own player(launches your MP3 player)

KDAB 201553Z 31006KT 10SM FEW250 17/06 A3034 RMK AO2 SLP273 T01720061

KDAB Airport Info (Airnav.com)

KDAB Flight Activity (Flightaware)

Listeners: 1 out of 1377 total

Daytona Clearance: 119.300
Daytona Ground: 121.900

KDAB Ground/Tower
Daytona Beach, Florida, United States

Feed Status: DOWN
Offline since: 2020-12-17 01:32:22 UTC

KDAB 201553Z 31006KT 10SM FEW250 17/06 A3034 RMK AO2 SLP273 T01720061

KDAB Airport Info (Airnav.com)

Daytona Ground: 121.900
Daytona Tower (Primary 7L/25R): 120.700
Daytona Tower (Secondary 7R/25L): 118.100

KDAB Tower (120.7) (Archives)
Daytona Beach, Florida, United States

Feed Status: UP
Listen in your browser - HTML5 player(in browser, HTML5)
Click here to listen with your own player(launches your MP3 player)

KDAB 201553Z 31006KT 10SM FEW250 17/06 A3034 RMK AO2 SLP273 T01720061

KDAB Airport Info (Airnav.com)

KDAB Flight Activity (Flightaware)

Listeners: 0 out of 1377 total

Daytona Tower (Primary 7L/25R): 120.700

KDAB Tower (Both) (Archives)
Daytona Beach, Florida, United States

Feed Status: UP
Listen in your browser - HTML5 player(in browser, HTML5)
Click here to listen with your own player(launches your MP3 player)

KDAB 201553Z 31006KT 10SM FEW250 17/06 A3034 RMK AO2 SLP273 T01720061

KDAB Airport Info (Airnav.com)

KDAB Flight Activity (Flightaware)

Listeners: 1 out of 1377 total

Daytona Tower (Primary 7L/25R): 120.700
Daytona Tower (Secondary 7R/25L): 118.100

KDAY Del/Gnd/Twr/App (Archives)
Dayton, Ohio, United States

Feed Status: UP
Listen in your browser - HTML5 player(in browser, HTML5)
Click here to listen with your own player(launches your MP3 player)

KDAY 201556Z 28007KT 8SM -SN OVC018 M02/M05 A3028 RMK AO2 SLP262 PCPN VRY LGT P0001 T10171050

KDAY Airport Info (Airnav.com)

KDAY Flight Activity (Flightaware)

Listeners: 1 out of 1377 total

Aero Enroute Dayton: 129.200
Aero Enroute Dayton: 129.150
Aero Enroute Dayton: 131.025
Air-To-Air: 123.450
Air-to-Air: 122.750
Columbus Approach/Departure (Backup): 118.000
Columbus Approach/Departure (Backup): 370.875
Columbus Approach/Departure (Backup): 269.225
Columbus Approach/Departure (Backup): 127.225
Columbus Approach/Departure (Backup): 353.700
Columbus Approach/Departure (Northeast): 323.150
Columbus Approach/Departure (Northeast): 118.425
Columbus Approach/Departure (South Satellite): 327.125
Columbus Approach/Departure (South Satellite): 126.500
Columbus Approach/Departure (Southeast): 118.850
Columbus Approach/Departure (Southeast): 269.275
Columbus Approach/Departure (West): 305.200
Columbus Approach/Departure (West): 134.450
Dayton Clearance Delivery: 121.750
Dayton Ground: 121.900
Dayton Heli-to-Heli: 123.025
Dayton Tower: 257.700
Dayton Tower: 119.900
Emergency/Guard: 243.000
Emergency/Guard: 121.500
UNICOM: 122.950

KDMA/KTUS Twr/Ops/ZAB (Archives)
Tucson, Arizona, United States

Feed Status: UP
Listen in your browser - HTML5 player(in browser, HTML5)
Click here to listen with your own player(launches your MP3 player)

KTUS 201553Z 12017G25KT 10SM CLR 13/01 A3015 RMK AO2 SLP187 T01330006

KTUS Airport Info (Airnav.com)

KTUS Flight Activity (Flightaware)

Listeners: 3 out of 1377 total

357FS Ops: 139.725
358FS Ops: 138.500
Albuquerque Center (Sector 47 Silver City/Low/UHF): 327.150
Albuquerque Center (Sector 90 San Simon/High/UHF): 281.500
AWACS: 364.200
BigFoot: 234.800
BigFoot: 271.000
Davis-Monthan AFB: 253.500
Tucson 162FW SOS IOPS: 392.200
Tucson Tower (UHF): 257.800

KTUS Del/Gnd/Twr/App/KDMA (Archives)
Tucson, Arizona, United States

Feed Status: UP
Listen in your browser - HTML5 player(in browser, HTML5)
Click here to listen with your own player(launches your MP3 player)

KTUS 201553Z 12017G25KT 10SM CLR 13/01 A3015 RMK AO2 SLP187 T01330006

KTUS Airport Info (Airnav.com)

KTUS Flight Activity (Flightaware)

Listeners: 0 out of 1377 total

KDMA Tower: 118.850
Tucson Approach (alt): 128.500
Tucson Approach (East/South): 125.100
Tucson Approach (North): 119.400
Tucson Approach (Practice Areas): 125.900
Tucson Clearance Delivery: 126.650
Tucson Ground: 124.400
Tucson Tower: 118.300
Tucson Tower (alt): 119.000

KDSM Del/Gnd/Twr/App
Des Moines, Iowa, United States

Feed Status: DOWN
Offline since: 2020-09-21 12:10:05 UTC

KDSM 201554Z 19015G26KT 10SM FEW250 M02/M07 A3002 RMK AO2 PK WND 19028/1542 SLP180 T10171067

KDSM Airport Info (Airnav.com)

Des Moines Approach/Departure: 135.200
Des Moines Approach/Departure: 123.900
Des Moines Approach/Departure: 118.600
Des Moines Clearance Delivery: 134.150
Des Moines Ground: 121.900
Des Moines Tower: 118.300

KELP App/Dep (North) (Archives)
El Paso, Texas, United States

Feed Status: UP
Listen in your browser - HTML5 player(in browser, HTML5)
Click here to listen with your own player(launches your MP3 player)

KELP 201551Z 01004KT 10SM BKN026 BKN065 04/00 A3031 RMK AO2 SLP249 CLDS TPG MTNS NW T00440000

KELP Airport Info (Airnav.com)

KELP Flight Activity (Flightaware)

Listeners: 0 out of 1377 total

El Paso Approach/Departure (North): 124.250

KELP Approach (Archives)
El Paso, Texas, United States

Feed Status: UP
Listen in your browser - HTML5 player(in browser, HTML5)
Click here to listen with your own player(launches your MP3 player)

KELP 201551Z 01004KT 10SM BKN026 BKN065 04/00 A3031 RMK AO2 SLP249 CLDS TPG MTNS NW T00440000

KELP Airport Info (Airnav.com)

KELP Flight Activity (Flightaware)

Listeners: 0 out of 1377 total

El Paso Approach/Departure: 119.150

KELP Gnd/Twr/App/Dep (Archives)
El Paso, Texas, United States

Feed Status: UP
Listen in your browser - HTML5 player(in browser, HTML5)
Click here to listen with your own player(launches your MP3 player)

KELP 201551Z 01004KT 10SM BKN026 BKN065 04/00 A3031 RMK AO2 SLP249 CLDS TPG MTNS NW T00440000

KELP Airport Info (Airnav.com)

KELP Flight Activity (Flightaware)

Listeners: 0 out of 1377 total

El Paso Approach/Departure: 119.150
El Paso Approach/Departure: 124.250
El Paso Ground: 121.900
El Paso Tower: 118.300
El Paso Tower: 126.050

KELP Ground (Archives)
El Paso, Texas, United States

Feed Status: UP
Listen in your browser - HTML5 player(in browser, HTML5)
Click here to listen with your own player(launches your MP3 player)

KELP 201551Z 01004KT 10SM BKN026 BKN065 04/00 A3031 RMK AO2 SLP249 CLDS TPG MTNS NW T00440000

KELP Airport Info (Airnav.com)

KELP Flight Activity (Flightaware)

Listeners: 0 out of 1377 total

El Paso Ground: 121.900

KELP Tower (Archives)
El Paso, Texas, United States

Feed Status: UP
Listen in your browser - HTML5 player(in browser, HTML5)
Click here to listen with your own player(launches your MP3 player)

KELP 201551Z 01004KT 10SM BKN026 BKN065 04/00 A3031 RMK AO2 SLP249 CLDS TPG MTNS NW T00440000

KELP Airport Info (Airnav.com)

KELP Flight Activity (Flightaware)

Listeners: 0 out of 1377 total

El Paso Tower: 118.300

KFAT App/Dep (Archives)
Fresno, California, United States

Feed Status: UP
Listen in your browser - HTML5 player(in browser, HTML5)
Click here to listen with your own player(launches your MP3 player)

KFAT 201553Z 23003KT 10SM CLR 05/M02 A3011 RMK AO2 SLP197 T00501017

KFAT Airport Info (Airnav.com)

KFAT Flight Activity (Flightaware)

Listeners: 0 out of 1377 total

Fresno Approach/Departure: 118.500
Fresno Approach/Departure: 132.350
Fresno Approach/Departure (IFR pickup KFCH): 119.000
Fresno Approach/Departure (North): 119.600

KFAT ATIS (Archives)
Fresno, California, United States

Feed Status: UP
Listen in your browser - HTML5 player(in browser, HTML5)
Click here to listen with your own player(launches your MP3 player)

KFAT 201553Z 23003KT 10SM CLR 05/M02 A3011 RMK AO2 SLP197 T00501017

KFAT Airport Info (Airnav.com)

KFAT Flight Activity (Flightaware)

Listeners: 0 out of 1377 total

Fresno ATIS: 121.350

KFAT Del/Gnd/Twr (Archives)
Fresno, California, United States

Feed Status: UP
Listen in your browser - HTML5 player(in browser, HTML5)
Click here to listen with your own player(launches your MP3 player)

KFAT 201553Z 23003KT 10SM CLR 05/M02 A3011 RMK AO2 SLP197 T00501017

KFAT Airport Info (Airnav.com)

KFAT Flight Activity (Flightaware)

Listeners: 1 out of 1377 total

Fresno Clearance Delivery: 124.350
Fresno Ground: 121.700
Fresno Ground (UHF): 348.600
Fresno Tower: 118.200
Fresno Tower (backup): 128.100
Fresno Tower (UHF): 251.100

KFAT Del/Gnd/Twr/App (Archives)
Fresno, California, United States

Feed Status: UP
Listen in your browser - HTML5 player(in browser, HTML5)
Click here to listen with your own player(launches your MP3 player)

KFAT 201553Z 23003KT 10SM CLR 05/M02 A3011 RMK AO2 SLP197 T00501017

KFAT Airport Info (Airnav.com)

KFAT Flight Activity (Flightaware)

Listeners: 1 out of 1377 total

Fresno Approach/Departure: 132.350
Fresno Approach/Departure: 118.500
Fresno Approach/Departure (IFR pickup KFCH): 119.000
Fresno Approach/Departure (North): 119.600
Fresno Clearance Delivery: 124.350
Fresno Ground: 121.700
Fresno Ground (UHF): 348.600
Fresno Tower: 118.200
Fresno Tower (backup): 128.100
Fresno Tower (UHF): 251.100

KFAY App/Dep
Fayetteville, North Carolina, United States

Feed Status: DOWN
Offline since: 2021-01-14 20:18:22 UTC

KFAY 201553Z 30012KT 10SM CLR 13/01 A3013 RMK AO2 SLP197 T01280006

KFAY Airport Info (Airnav.com)

Fayetteville Approach/Departure (North): 125.175
Fayetteville Approach/Departure (South): 133.000
Fayetteville Approach/Departure (Spare): 127.800

KFAY ATIS
Fayetteville, North Carolina, United States

Feed Status: DOWN
Offline since: 2021-01-14 20:18:22 UTC

KFAY 201553Z 30012KT 10SM CLR 13/01 A3013 RMK AO2 SLP197 T01280006

KFAY Airport Info (Airnav.com)

Fayetteville ATIS: 121.250

KFAY Emergency/Guard
Fayetteville, North Carolina, United States

Feed Status: DOWN
Offline since: 2021-01-14 20:18:22 UTC

KFAY 201553Z 30012KT 10SM CLR 13/01 A3013 RMK AO2 SLP197 T01280006

KFAY Airport Info (Airnav.com)

Emergency/Guard: 121.500

KFAY Ground
Fayetteville, North Carolina, United States

Feed Status: DOWN
Offline since: 2021-01-14 20:18:22 UTC

KFAY 201553Z 30012KT 10SM CLR 13/01 A3013 RMK AO2 SLP197 T01280006

KFAY Airport Info (Airnav.com)

Fayetteville Ground: 121.700

KFAY Tower
Fayetteville, North Carolina, United States

Feed Status: DOWN
Offline since: 2021-01-14 20:18:22 UTC

KFAY 201553Z 30012KT 10SM CLR 13/01 A3013 RMK AO2 SLP197 T01280006

KFAY Airport Info (Airnav.com)

Fayetteville Tower: 118.300

KFLL App (Final) (Archives)
Fort Lauderdale, Florida, United States

Feed Status: UP
Listen in your browser - HTML5 player(in browser, HTML5)
Click here to listen with your own player(launches your MP3 player)

KFLL 201553Z 05009KT 10SM SCT040 SCT250 23/13 A3028 RMK AO2 SLP254 T02330133

KFLL Airport Info (Airnav.com)

KFLL Flight Activity (Flightaware)

Listeners: 1 out of 1377 total

Miami Approach (KFLL Final): 133.725

KFLL ATIS (Archives)
Fort Lauderdale, Florida, United States

Feed Status: UP
Listen in your browser - HTML5 player(in browser, HTML5)
Click here to listen with your own player(launches your MP3 player)

KFLL 201553Z 05009KT 10SM SCT040 SCT250 23/13 A3028 RMK AO2 SLP254 T02330133

KFLL Airport Info (Airnav.com)

KFLL Flight Activity (Flightaware)

Listeners: 0 out of 1377 total

KFLL ATIS: 135.000

KFLL Clearance Delivery (Archives)
Fort Lauderdale, Florida, United States

Feed Status: UP
Listen in your browser - HTML5 player(in browser, HTML5)
Click here to listen with your own player(launches your MP3 player)

KFLL 201553Z 05009KT 10SM SCT040 SCT250 23/13 A3028 RMK AO2 SLP254 T02330133

KFLL Airport Info (Airnav.com)

KFLL Flight Activity (Flightaware)

Listeners: 0 out of 1377 total

KFLL Clearance Delivery: 128.400

KFLL Departure
Fort Lauderdale, Florida, United States

Feed Status: DOWN
Offline since: 2021-01-20 16:19:39 UTC

KMIA 201553Z VRB04KT 10SM FEW040 FEW250 23/12 A3029 RMK AO2 SLP255 T02280122

KMIA Airport Info (Airnav.com)

Miami Departure (FLL): 126.050

KFLL Ground (Archives)
Fort Lauderdale, Florida, United States

Feed Status: UP
Listen in your browser - HTML5 player(in browser, HTML5)
Click here to listen with your own player(launches your MP3 player)

KFLL 201553Z 05009KT 10SM SCT040 SCT250 23/13 A3028 RMK AO2 SLP254 T02330133

KFLL Airport Info (Airnav.com)

KFLL Flight Activity (Flightaware)

Listeners: 0 out of 1377 total

KFLL Ground: 121.700
KFLL Ground: 121.400

KFLL Ground (Main) (Archives)
Fort Lauderdale, Florida, United States

Feed Status: UP
Listen in your browser - HTML5 player(in browser, HTML5)
Click here to listen with your own player(launches your MP3 player)

KFLL 201553Z 05009KT 10SM SCT040 SCT250 23/13 A3028 RMK AO2 SLP254 T02330133

KFLL Airport Info (Airnav.com)

KFLL Flight Activity (Flightaware)

Listeners: 1 out of 1377 total

KFLL Ground: 121.400

KFLL Ground (Secondary) (Archives)
Fort Lauderdale, Florida, United States

Feed Status: UP
Listen in your browser - HTML5 player(in browser, HTML5)
Click here to listen with your own player(launches your MP3 player)

KFLL 201553Z 05009KT 10SM SCT040 SCT250 23/13 A3028 RMK AO2 SLP254 T02330133

KFLL Airport Info (Airnav.com)

KFLL Flight Activity (Flightaware)

Listeners: 0 out of 1377 total

KFLL Ground: 121.700

KFLL Ground/Tower (Archives)
Fort Lauderdale, Florida, United States

Feed Status: UP
Listen in your browser - HTML5 player(in browser, HTML5)
Click here to listen with your own player(launches your MP3 player)

KFLL 201553Z 05009KT 10SM SCT040 SCT250 23/13 A3028 RMK AO2 SLP254 T02330133

KFLL Airport Info (Airnav.com)

KFLL Flight Activity (Flightaware)

Listeners: 1 out of 1377 total

KFLL Ground: 121.400
KFLL Tower (Rwy 10LR/28RL): 119.300

KFLL Ramp (Archives)
Fort Lauderdale, Florida, United States

Feed Status: UP
Listen in your browser - HTML5 player(in browser, HTML5)
Click here to listen with your own player(launches your MP3 player)

KFLL 201553Z 05009KT 10SM SCT040 SCT250 23/13 A3028 RMK AO2 SLP254 T02330133

KFLL Airport Info (Airnav.com)

KFLL Flight Activity (Flightaware)

Listeners: 0 out of 1377 total

Fort Lauderdale Ramp (North): 118.175
Fort Lauderdale Ramp (South): 129.875

KFLL Tower (Archives)
Fort Lauderdale, Florida, United States

Feed Status: UP
Listen in your browser - HTML5 player(in browser, HTML5)
Click here to listen with your own player(launches your MP3 player)

KFLL 201553Z 05009KT 10SM SCT040 SCT250 23/13 A3028 RMK AO2 SLP254 T02330133

KFLL Airport Info (Airnav.com)

KFLL Flight Activity (Flightaware)

Listeners: 2 out of 1377 total

KFLL Tower (Rwy 10LR/28RL): 119.300
KFLL Tower (Secondary): 120.200

KFLL Tower (Main) (Archives)
Fort Lauderdale, Florida, United States

Feed Status: UP
Listen in your browser - HTML5 player(in browser, HTML5)
Click here to listen with your own player(launches your MP3 player)

KFLL 201553Z 05009KT 10SM SCT040 SCT250 23/13 A3028 RMK AO2 SLP254 T02330133

KFLL Airport Info (Airnav.com)

KFLL Flight Activity (Flightaware)

Listeners: 0 out of 1377 total

KFLL Tower (Rwy 10LR/28RL): 119.300

KFLL Tower (Secondary) (Archives)
Fort Lauderdale, Florida, United States

Feed Status: UP
Listen in your browser - HTML5 player(in browser, HTML5)
Click here to listen with your own player(launches your MP3 player)

KFLL 201553Z 05009KT 10SM SCT040 SCT250 23/13 A3028 RMK AO2 SLP254 T02330133

KFLL Airport Info (Airnav.com)

KFLL Flight Activity (Flightaware)

Listeners: 0 out of 1377 total

KFLL Tower (Secondary): 120.200

KFWA App/Dep (Archives)
Fort Wayne, Indiana, United States

Feed Status: UP
Listen in your browser - HTML5 player(in browser, HTML5)
Click here to listen with your own player(launches your MP3 player)

KFWA 201554Z 25007KT 10SM -SN OVC029 M04/M08 A3026 RMK AO2 SNB03 SLP257 OVC V BKN P0000 T10391083 $

KFWA Airport Info (Airnav.com)

KFWA Flight Activity (Flightaware)

Listeners: 1 out of 1377 total

Fort Wayne Approach/Departure: 127.200
Fort Wayne Approach/Departure: 132.150
Fort Wayne Approach/Departure: 135.325

KFWA ATIS (Archives)
Fort Wayne, Indiana, United States

Feed Status: UP
Listen in your browser - HTML5 player(in browser, HTML5)
Click here to listen with your own player(launches your MP3 player)

KFWA 201554Z 25007KT 10SM -SN OVC029 M04/M08 A3026 RMK AO2 SNB03 SLP257 OVC V BKN P0000 T10391083 $

KFWA Airport Info (Airnav.com)

KFWA Flight Activity (Flightaware)

Listeners: 0 out of 1377 total

Fort Wayne ATIS: 121.250

KFWA Del/Ground (Archives)
Fort Wayne, Indiana, United States

Feed Status: UP
Listen in your browser - HTML5 player(in browser, HTML5)
Click here to listen with your own player(launches your MP3 player)

KFWA 201554Z 25007KT 10SM -SN OVC029 M04/M08 A3026 RMK AO2 SNB03 SLP257 OVC V BKN P0000 T10391083 $

KFWA Airport Info (Airnav.com)

KFWA Flight Activity (Flightaware)

Listeners: 0 out of 1377 total

Fort Wayne Clearance Delivery: 124.750
Fort Wayne Ground: 121.900

KFWA Emergency/Guard (Archives)
Fort Wayne, Indiana, United States

Feed Status: UP
Listen in your browser - HTML5 player(in browser, HTML5)
Click here to listen with your own player(launches your MP3 player)

KFWA 201554Z 25007KT 10SM -SN OVC029 M04/M08 A3026 RMK AO2 SNB03 SLP257 OVC V BKN P0000 T10391083 $

KFWA Airport Info (Airnav.com)

KFWA Flight Activity (Flightaware)

Listeners: 0 out of 1377 total

Emergency/Guard: 121.500

KFWA Tower (Archives)
Fort Wayne, Indiana, United States

Feed Status: UP
Listen in your browser - HTML5 player(in browser, HTML5)
Click here to listen with your own player(launches your MP3 player)

KFWA 201554Z 25007KT 10SM -SN OVC029 M04/M08 A3026 RMK AO2 SNB03 SLP257 OVC V BKN P0000 T10391083 $

KFWA Airport Info (Airnav.com)

KFWA Flight Activity (Flightaware)

Listeners: 0 out of 1377 total

Fort Wayne Tower: 119.100

KGEG Del/Gnd/Twr/App (Archives)
Spokane, Washington, United States

Feed Status: UP
Listen in your browser - HTML5 player(in browser, HTML5)
Click here to listen with your own player(launches your MP3 player)

KGEG 201553Z 05005KT 7SM FEW002 SCT055 SCT180 M03/M04 A3012 RMK AO2 SLP225 T10281044

KGEG Airport Info (Airnav.com)

KGEG Flight Activity (Flightaware)

Listeners: 0 out of 1377 total

Air to Air: 123.950
Emergency/Guard: 121.500
Seattle Handoff: 126.100
Spokane Approach/Departure: 123.750
Spokane Approach/Departure: 133.350
Spokane Clearance Delivery: 127.550
Spokane Ground: 121.900
Spokane Tower: 118.300

KGRB Del/Gnd/Twr/App (Archives)
Green Bay, Wisconsin, United States

Feed Status: UP
Listen in your browser - HTML5 player(in browser, HTML5)
Click here to listen with your own player(launches your MP3 player)

KGRB 201553Z 21010KT 10SM CLR M11/M15 A3008 RMK AO2 SLP201 T11061150

KGRB Airport Info (Airnav.com)

KGRB Flight Activity (Flightaware)

Listeners: 0 out of 1377 total

Emergency/Guard: 243.000
Emergency/Guard: 121.500
Green Bay Approach/Departure: 126.300
Green Bay Approach/Departure: 119.250
Green Bay Approach/Departure: 119.400
Green Bay Approach/Departure: 338.200
Green Bay Approach/Departure (ZMP): 370.900
Green Bay Approach/Departure (ZMP): 125.550
Green Bay Clearance Delivery: 121.750
Green Bay Departure: 126.550
Green Bay Flight Service Station: 122.750
Green Bay Ground: 121.900
Green Bay Radio: 122.500
Green Bay Radio: 122.250
Green Bay Tower: 257.800
Green Bay Tower: 118.700

KGRR App/Dep (Archives)
Grand Rapids, Michigan, United States

Feed Status: UP
Listen in your browser - HTML5 player(in browser, HTML5)
Click here to listen with your own player(launches your MP3 player)

KGRR 201553Z 23009KT 9SM -SN OVC022 M06/M09 A3018 RMK AO2 SLP232 P0000 T10561089

KGRR Airport Info (Airnav.com)

KGRR Flight Activity (Flightaware)

Listeners: 0 out of 1377 total

Grand Rapids Approach (North): 124.600
Grand Rapids Approach (South): 128.400

KGRR App/Dep (North) (Archives)
Grand Rapids, Michigan, United States

Feed Status: UP
Listen in your browser - HTML5 player(in browser, HTML5)
Click here to listen with your own player(launches your MP3 player)

KGRR 201553Z 23009KT 9SM -SN OVC022 M06/M09 A3018 RMK AO2 SLP232 P0000 T10561089

KGRR Airport Info (Airnav.com)

KGRR Flight Activity (Flightaware)

Listeners: 0 out of 1377 total

Grand Rapids Approach (North): 124.600

KGRR App/Dep (South) (Archives)
Grand Rapids, Michigan, United States

Feed Status: UP
Listen in your browser - HTML5 player(in browser, HTML5)
Click here to listen with your own player(launches your MP3 player)

KGRR 201553Z 23009KT 9SM -SN OVC022 M06/M09 A3018 RMK AO2 SLP232 P0000 T10561089

KGRR Airport Info (Airnav.com)

KGRR Flight Activity (Flightaware)

Listeners: 1 out of 1377 total

Grand Rapids Approach (South): 128.400

KGRR Clearance Delivery (Archives)
Grand Rapids, Michigan, United States

Feed Status: UP
Listen in your browser - HTML5 player(in browser, HTML5)
Click here to listen with your own player(launches your MP3 player)

KGRR 201553Z 23009KT 9SM -SN OVC022 M06/M09 A3018 RMK AO2 SLP232 P0000 T10561089

KGRR Airport Info (Airnav.com)

KGRR Flight Activity (Flightaware)

Listeners: 0 out of 1377 total

Grand Rapids Clearance Delivery: 119.300

KGRR Del/Gnd/Twr (Archives)
Grand Rapids, Michigan, United States

Feed Status: UP
Listen in your browser - HTML5 player(in browser, HTML5)
Click here to listen with your own player(launches your MP3 player)

KGRR 201553Z 23009KT 9SM -SN OVC022 M06/M09 A3018 RMK AO2 SLP232 P0000 T10561089

KGRR Airport Info (Airnav.com)

KGRR Flight Activity (Flightaware)

Listeners: 2 out of 1377 total

Grand Rapids Clearance Delivery: 119.300
Grand Rapids Ground: 121.800
Grand Rapids Tower: 135.650

KGRR Del/Gnd/Twr/App (Archives)
Grand Rapids, Michigan, United States

Feed Status: UP
Listen in your browser - HTML5 player(in browser, HTML5)
Click here to listen with your own player(launches your MP3 player)

KGRR 201553Z 23009KT 9SM -SN OVC022 M06/M09 A3018 RMK AO2 SLP232 P0000 T10561089

KGRR Airport Info (Airnav.com)

KGRR Flight Activity (Flightaware)

Listeners: 0 out of 1377 total

Grand Rapids Approach (North): 124.600
Grand Rapids Approach (South): 128.400
Grand Rapids Clearance Delivery: 119.300
Grand Rapids Ground: 121.800
Grand Rapids Tower: 135.650

KGRR Emergency/Guard (Archives)
Grand Rapids, Michigan, United States

Feed Status: UP
Listen in your browser - HTML5 player(in browser, HTML5)
Click here to listen with your own player(launches your MP3 player)

KGRR 201553Z 23009KT 9SM -SN OVC022 M06/M09 A3018 RMK AO2 SLP232 P0000 T10561089

KGRR Airport Info (Airnav.com)

KGRR Flight Activity (Flightaware)

Listeners: 0 out of 1377 total

Emergency/Guard: 121.500

KGRR Gnd/Twr/App (Archives)
Grand Rapids, Michigan, United States

Feed Status: UP
Listen in your browser - HTML5 player(in browser, HTML5)
Click here to listen with your own player(launches your MP3 player)

KGRR 201553Z 23009KT 9SM -SN OVC022 M06/M09 A3018 RMK AO2 SLP232 P0000 T10561089

KGRR Airport Info (Airnav.com)

KGRR Flight Activity (Flightaware)

Listeners: 0 out of 1377 total

Grand Rapids Approach (North): 124.600
Grand Rapids Approach (South): 128.400
Grand Rapids Ground: 121.800
Grand Rapids Tower: 135.650

KGRR Ground (Archives)
Grand Rapids, Michigan, United States

Feed Status: UP
Listen in your browser - HTML5 player(in browser, HTML5)
Click here to listen with your own player(launches your MP3 player)

KGRR 201553Z 23009KT 9SM -SN OVC022 M06/M09 A3018 RMK AO2 SLP232 P0000 T10561089

KGRR Airport Info (Airnav.com)

KGRR Flight Activity (Flightaware)

Listeners: 0 out of 1377 total

Grand Rapids Ground: 121.800

KGRR Tower (Archives)
Grand Rapids, Michigan, United States

Feed Status: UP
Listen in your browser - HTML5 player(in browser, HTML5)
Click here to listen with your own player(launches your MP3 player)

KGRR 201553Z 23009KT 9SM -SN OVC022 M06/M09 A3018 RMK AO2 SLP232 P0000 T10561089

KGRR Airport Info (Airnav.com)

KGRR Flight Activity (Flightaware)

Listeners: 0 out of 1377 total

Grand Rapids Tower: 135.650

KGSO Approach/Departure (Archives)
Greensboro, North Carolina, United States

Feed Status: UP
Listen in your browser - HTML5 player(in browser, HTML5)
Click here to listen with your own player(launches your MP3 player)

KGSO 201554Z 31016G19KT 10SM CLR 08/M06 A3013 RMK AO2 SLP203 T00831056

KGSO Airport Info (Airnav.com)

KGSO Flight Activity (Flightaware)

Listeners: 1 out of 1377 total

Greensboro Approach/Departure (South): 126.600
Greensboro Approach/Departure (West): 124.350

KGSO Approach/Departure (South) (Archives)
Greensboro, North Carolina, United States

Feed Status: UP
Listen in your browser - HTML5 player(in browser, HTML5)
Click here to listen with your own player(launches your MP3 player)

KGSO 201554Z 31016G19KT 10SM CLR 08/M06 A3013 RMK AO2 SLP203 T00831056

KGSO Airport Info (Airnav.com)

KGSO Flight Activity (Flightaware)

Listeners: 0 out of 1377 total

Greensboro Approach/Departure (South): 126.600

KGSO Approach/Departure (West) (Archives)
Greensboro, North Carolina, United States

Feed Status: UP
Listen in your browser - HTML5 player(in browser, HTML5)
Click here to listen with your own player(launches your MP3 player)

KGSO 201554Z 31016G19KT 10SM CLR 08/M06 A3013 RMK AO2 SLP203 T00831056

KGSO Airport Info (Airnav.com)

KGSO Flight Activity (Flightaware)

Listeners: 0 out of 1377 total

Greensboro Approach/Departure (West): 124.350

KGSO ATIS (Archives)
Greensboro, North Carolina, United States

Feed Status: UP
Listen in your browser - HTML5 player(in browser, HTML5)
Click here to listen with your own player(launches your MP3 player)

KGSO 201554Z 31016G19KT 10SM CLR 08/M06 A3013 RMK AO2 SLP203 T00831056

KGSO Airport Info (Airnav.com)

KGSO Flight Activity (Flightaware)

Listeners: 0 out of 1377 total

Greensboro ATIS: 128.550

KGSO Del/Gnd (Archives)
Greensboro, North Carolina, United States

Feed Status: UP
Listen in your browser - HTML5 player(in browser, HTML5)
Click here to listen with your own player(launches your MP3 player)

KGSO 201554Z 31016G19KT 10SM CLR 08/M06 A3013 RMK AO2 SLP203 T00831056

KGSO Airport Info (Airnav.com)

KGSO Flight Activity (Flightaware)

Listeners: 0 out of 1377 total

Greensboro Clearance Delivery: 121.750
Greensboro Ground: 121.900

KGSO Tower (Archives)
Greensboro, North Carolina, United States

Feed Status: UP
Listen in your browser - HTML5 player(in browser, HTML5)
Click here to listen with your own player(launches your MP3 player)

KGSO 201554Z 31016G19KT 10SM CLR 08/M06 A3013 RMK AO2 SLP203 T00831056

KGSO Airport Info (Airnav.com)

KGSO Flight Activity (Flightaware)

Listeners: 1 out of 1377 total

Greensboro Tower: 119.100

KGSP App/Dep (East) (Archives)
Greer, South Carolina, United States

Feed Status: UP
Listen in your browser - HTML5 player(in browser, HTML5)
Click here to listen with your own player(launches your MP3 player)

KGMU 201553Z 00000KT 10SM CLR 11/M03 A3019 RMK AO2 SLP223 T01111033

KGMU Airport Info (Airnav.com)

KGMU Flight Activity (Flightaware)

Listeners: 0 out of 1377 total

Greer Approach (East): 119.400

KGSP App/Dep (West) (Archives)
Greer, South Carolina, United States

Feed Status: UP
Listen in your browser - HTML5 player(in browser, HTML5)
Click here to listen with your own player(launches your MP3 player)

KGMU 201553Z 00000KT 10SM CLR 11/M03 A3019 RMK AO2 SLP223 T01111033

KGMU Airport Info (Airnav.com)

KGMU Flight Activity (Flightaware)

Listeners: 0 out of 1377 total

Greer Approach (West): 118.800

KGSP ATIS (Archives)
Greer, South Carolina, United States

Feed Status: UP
Listen in your browser - HTML5 player(in browser, HTML5)
Click here to listen with your own player(launches your MP3 player)

KGMU 201553Z 00000KT 10SM CLR 11/M03 A3019 RMK AO2 SLP223 T01111033

KGMU Airport Info (Airnav.com)

KGMU Flight Activity (Flightaware)

Listeners: 0 out of 1377 total

Greer ATIS: 134.250

KGSP Tower (Archives)
Greer, South Carolina, United States

Feed Status: UP
Listen in your browser - HTML5 player(in browser, HTML5)
Click here to listen with your own player(launches your MP3 player)

KGMU 201553Z 00000KT 10SM CLR 11/M03 A3019 RMK AO2 SLP223 T01111033

KGMU Airport Info (Airnav.com)

KGMU Flight Activity (Flightaware)

Listeners: 0 out of 1377 total

Greer Tower: 120.100

KHSV App/Dep (Archives)
Huntsville, Alabama, United States

Feed Status: UP
Listen in your browser - HTML5 player(in browser, HTML5)
Click here to listen with your own player(launches your MP3 player)

KHSV 201553Z 31004KT 10SM SCT250 07/M01 A3038 RMK AO2 SLP289 T00721006 $

KHSV Airport Info (Airnav.com)

KHSV Flight Activity (Flightaware)

Listeners: 0 out of 1377 total

Huntsville Approach (180-359): 118.050
Huntsville Approach (360-179): 125.600
Huntsville Approach (ASR): 118.750

KHSV ATIS
Huntsville, Alabama, United States

Feed Status: DOWN
Offline since: 2021-01-20 01:44:05 UTC

KHSV 201553Z 31004KT 10SM SCT250 07/M01 A3038 RMK AO2 SLP289 T00721006 $

KHSV Airport Info (Airnav.com)

Huntsville ATIS: 121.250

KHSV Del/Gnd
Huntsville, Alabama, United States

Feed Status: DOWN
Offline since: 2021-01-13 12:32:39 UTC

KHSV 201553Z 31004KT 10SM SCT250 07/M01 A3038 RMK AO2 SLP289 T00721006 $

KHSV Airport Info (Airnav.com)

Huntsville Clearance: 120.350
Huntsville Ground: 121.900

KHSV Gnd/Twr (Archives)
Huntsville, Alabama, United States

Feed Status: UP
Listen in your browser - HTML5 player(in browser, HTML5)
Click here to listen with your own player(launches your MP3 player)

KHSV 201553Z 31004KT 10SM SCT250 07/M01 A3038 RMK AO2 SLP289 T00721006 $

KHSV Airport Info (Airnav.com)

KHSV Flight Activity (Flightaware)

Listeners: 0 out of 1377 total

Huntsville Ground: 121.900
Huntsville Tower: 127.600

KHSV Gnd/Twr/App/Dep (Archives)
Huntsville, Alabama, United States

Feed Status: UP
Listen in your browser - HTML5 player(in browser, HTML5)
Click here to listen with your own player(launches your MP3 player)

KHSV 201553Z 31004KT 10SM SCT250 07/M01 A3038 RMK AO2 SLP289 T00721006 $

KHSV Airport Info (Airnav.com)

KHSV Flight Activity (Flightaware)

Listeners: 0 out of 1377 total

Huntsville Approach (180-359): 118.050
Huntsville Approach (360-179): 125.600
Huntsville Approach (ASR): 118.750
Huntsville Ground: 121.900
Huntsville Tower: 127.600

KHTO CTAF/Tower (Archives)
East Hampton, New York, United States

Feed Status: UP
Listen in your browser - HTML5 player(in browser, HTML5)
Click here to listen with your own player(launches your MP3 player)

KHTO 201535Z AUTO 28005KT 10SM -SN OVC007 01/00 A2985 RMK AO2 T00050000

KHTO Airport Info (Airnav.com)

KHTO Flight Activity (Flightaware)

Listeners: 0 out of 1377 total

East Hampton CTAF/Tower: 125.225

KBTR/KHZR/L38 Del/Gnd/Twr/App/CTAF
New Roads, Louisiana, United States

Feed Status: DOWN
Offline since: 2021-01-20 04:08:22 UTC

KBTR 201553Z 05011KT 10SM OVC040 15/09 A3037 RMK AO2 SLP285 T01500094

KBTR Airport Info (Airnav.com)

Baton Rouge Approach/Departure (East): 126.500
Baton Rouge Approach/Departure (Military): 278.300
Baton Rouge Approach/Departure (West): 120.300
Baton Rouge Clearance Delivery: 119.400
Baton Rouge Ground: 121.900
Baton Rouge Tower (Military): 257.800
Baton Rouge Tower/CTAF: 118.450
Baton Rouge UNICOM: 122.950
Houston Center (App/Dep when Approach closed): 338.250
Houston Center (App/Dep when Approach closed): 126.350
Louisiana Regional L38 CTAF: 123.000
United Airlines: 129.925

KICT App/Dep (All) (Archives)
Wichita, Kansas, United States

Feed Status: UP
Listen in your browser - HTML5 player(in browser, HTML5)
Click here to listen with your own player(launches your MP3 player)

KICT 201553Z 20012KT 10SM SCT060 SCT150 BKN250 02/M04 A3020 RMK AO2 SLP239 T00221044

KICT Airport Info (Airnav.com)

KICT Flight Activity (Flightaware)

Listeners: 0 out of 1377 total

Wichita Approach: 125.500
Wichita Approach (East): 134.850
Wichita Approach (West): 126.700

KICT Approach (East) (Archives)
Wichita, Kansas, United States

Feed Status: UP
Listen in your browser - HTML5 player(in browser, HTML5)
Click here to listen with your own player(launches your MP3 player)

KICT 201553Z 20012KT 10SM SCT060 SCT150 BKN250 02/M04 A3020 RMK AO2 SLP239 T00221044

KICT Airport Info (Airnav.com)

KICT Flight Activity (Flightaware)

Listeners: 0 out of 1377 total

Wichita Approach (East): 134.850

KICT Approach (West) (Archives)
Wichita, Kansas, United States

Feed Status: UP
Listen in your browser - HTML5 player(in browser, HTML5)
Click here to listen with your own player(launches your MP3 player)

KICT 201553Z 20012KT 10SM SCT060 SCT150 BKN250 02/M04 A3020 RMK AO2 SLP239 T00221044

KICT Airport Info (Airnav.com)

KICT Flight Activity (Flightaware)

Listeners: 0 out of 1377 total

Wichita Approach (West): 126.700

KICT Approach 125.5 (Archives)
Wichita, Kansas, United States

Feed Status: UP
Listen in your browser - HTML5 player(in browser, HTML5)
Click here to listen with your own player(launches your MP3 player)

KICT 201553Z 20012KT 10SM SCT060 SCT150 BKN250 02/M04 A3020 RMK AO2 SLP239 T00221044

KICT Airport Info (Airnav.com)

KICT Flight Activity (Flightaware)

Listeners: 0 out of 1377 total

Wichita Approach: 125.500

KICT ATIS (Archives)
Wichita, Kansas, United States

Feed Status: UP
Listen in your browser - HTML5 player(in browser, HTML5)
Click here to listen with your own player(launches your MP3 player)

KICT 201553Z 20012KT 10SM SCT060 SCT150 BKN250 02/M04 A3020 RMK AO2 SLP239 T00221044

KICT Airport Info (Airnav.com)

KICT Flight Activity (Flightaware)

Listeners: 0 out of 1377 total

Wichita ATIS: 125.150

KICT Ground/Tower (Archives)
Wichita, Kansas, United States

Feed Status: UP
Listen in your browser - HTML5 player(in browser, HTML5)
Click here to listen with your own player(launches your MP3 player)

KICT 201553Z 20012KT 10SM SCT060 SCT150 BKN250 02/M04 A3020 RMK AO2 SLP239 T00221044

KICT Airport Info (Airnav.com)

KICT Flight Activity (Flightaware)

Listeners: 0 out of 1377 total

Wichita Ground: 121.900
Wichita Tower: 118.200

KIND App/Dep (Archives)
Indianapolis, Indiana, United States

Feed Status: UP
Listen in your browser - HTML5 player(in browser, HTML5)
Click here to listen with your own player(launches your MP3 player)

KIND 201554Z 25010KT 10SM FEW019 FEW250 M03/M08 A3031 RMK AO2 SLP272 T10331083

KIND Airport Info (Airnav.com)

KIND Flight Activity (Flightaware)

Listeners: 0 out of 1377 total

Indy Approach: 119.300
Indy Approach (East): 127.150
Indy Approach (Final): 123.950
Indy Approach (IC): 128.175
Indy Approach (West): 121.100
Indy Approach (West): 124.650
Indy Approach/Departure: 134.850
Indy Approach/Departure: 120.650
Indy Approach/Departure: 135.450
Indy Departure: 119.500
Indy Departure (East): 124.950
Indy Departure (West): 119.050

KIND Ground (Archives)
Indianapolis, Indiana, United States

Feed Status: UP
Listen in your browser - HTML5 player(in browser, HTML5)
Click here to listen with your own player(launches your MP3 player)

KIND 201554Z 25010KT 10SM FEW019 FEW250 M03/M08 A3031 RMK AO2 SLP272 T10331083

KIND Airport Info (Airnav.com)

KIND Flight Activity (Flightaware)

Listeners: 0 out of 1377 total

Indianapolis Ground: 121.800
Indianapolis Ground: 121.900
Indianapolis Ground/Pre-Taxi Clearance: 128.750

KIND Tower (Archives)
Indianapolis, Indiana, United States

Feed Status: UP
Listen in your browser - HTML5 player(in browser, HTML5)
Click here to listen with your own player(launches your MP3 player)

KIND 201554Z 25010KT 10SM FEW019 FEW250 M03/M08 A3031 RMK AO2 SLP272 T10331083

KIND Airport Info (Airnav.com)

KIND Flight Activity (Flightaware)

Listeners: 0 out of 1377 total

Indianapolis Tower: 123.950
Indianapolis Tower (Primary): 120.900

KIND UNICOM/FSS/FBO (Archives)
Indianapolis, Indiana, United States

Feed Status: UP
Listen in your browser - HTML5 player(in browser, HTML5)
Click here to listen with your own player(launches your MP3 player)

KIND 201554Z 25010KT 10SM FEW019 FEW250 M03/M08 A3031 RMK AO2 SLP272 T10331083

KIND Airport Info (Airnav.com)

KIND Flight Activity (Flightaware)

Listeners: 0 out of 1377 total

Air to Air: 123.400
Air to Air: 123.450
Emergency/Guard: 121.500
Flight Service Station (FSS): 122.100
Helicopter UNICOM: 123.050
Million Air FBO: 130.575
Signature FBO: 129.725
UNICOM: 122.950

KCID Gnd/Twr/App/KIOW (Archives)
Iowa City, Iowa, United States

Feed Status: UP
Listen in your browser - HTML5 player(in browser, HTML5)
Click here to listen with your own player(launches your MP3 player)

KCID 201552Z 16011KT 10SM CLR M10/M13 A3009 RMK AO2 SLP205 T11001128

KCID Airport Info (Airnav.com)

KCID Flight Activity (Flightaware)

Listeners: 0 out of 1377 total

Cedar Rapids Approach (091-269): 119.700
Cedar Rapids Approach (270-090): 134.050
Cedar Rapids Clearance Delivery: 125.450
Cedar Rapids Ground (0500-2330): 121.600
Cedar Rapids Tower (0500-2330): 118.700
UNICOM C17 (Marion) and surrounding area: 122.700
UNICOM IA24 Green Castle: 122.900
UNICOM KIOW (Iowa City) and surrounding area: 122.800

KIPT Gnd/Twr/ZNY (Archives)
Williamsport, Pennsylvania, United States

Feed Status: UP
Listen in your browser - HTML5 player(in browser, HTML5)
Click here to listen with your own player(launches your MP3 player)

KIPT 201554Z 28009KT 10SM FEW045 OVC060 00/M09 A3002 RMK AO2 SLP171 T00001094

KIPT Airport Info (Airnav.com)

KIPT Flight Activity (Flightaware)

Listeners: 3 out of 1377 total

New York Center (Sector 91 Williamsport Low): 124.900
Williamsport Ground: 121.900
Williamsport Tower: 119.100

KISP (NY Approach) (Archives)
Islip, New York, United States

Feed Status: UP
Listen in your browser - HTML5 player(in browser, HTML5)
Click here to listen with your own player(launches your MP3 player)

KISP 201556Z 30009KT 10SM BKN013 BKN250 02/01 A2985 RMK AO2 SLP110 T00220006

KISP Airport Info (Airnav.com)

KISP Flight Activity (Flightaware)

Listeners: 1 out of 1377 total

New York Approach/Departure (Islip): 120.050

KISP Tower (Archives)
Islip, New York, United States

Feed Status: UP
Listen in your browser - HTML5 player(in browser, HTML5)
Click here to listen with your own player(launches your MP3 player)

KISP 201556Z 30009KT 10SM BKN013 BKN250 02/01 A2985 RMK AO2 SLP110 T00220006

KISP Airport Info (Airnav.com)

KISP Flight Activity (Flightaware)

Listeners: 4 out of 1377 total

Islip Tower: 119.300

KJAN Gnd/Twr/App/Dep (Archives)
Jackson, Mississippi, United States

Feed Status: UP
Listen in your browser - HTML5 player(in browser, HTML5)
Click here to listen with your own player(launches your MP3 player)

KJAN 201554Z 02006KT 10SM BKN080 12/06 A3040 RMK AO2 SLP294 T01220056

KJAN Airport Info (Airnav.com)

KJAN Flight Activity (Flightaware)

Listeners: 0 out of 1377 total

Jackson Approach/Departure: 123.900
Jackson Approach/Departure: 125.250
Jackson Ground: 121.700
Jackson Tower: 120.900

KJAX Approach/Departure (Archives)
Jacksonville, Florida, United States

Feed Status: UP
Listen in your browser - HTML5 player(in browser, HTML5)
Click here to listen with your own player(launches your MP3 player)

KJAX 201556Z 30006KT 10SM SCT250 17/06 A3032 RMK AO2 SLP269 T01670056

KJAX Airport Info (Airnav.com)

KJAX Flight Activity (Flightaware)

Listeners: 3 out of 1377 total

Jacksonville Approach/Departure: 127.000
Jacksonville Approach/Departure: 124.900
Jacksonville Approach/Departure: 123.800
Jacksonville Approach/Departure: 120.750
Jacksonville Approach/Departure: 118.000
Jacksonville Approach/Departure: 119.000

KJAX ATIS (Archives)
Jacksonville, Florida, United States

Feed Status: UP
Listen in your browser - HTML5 player(in browser, HTML5)
Click here to listen with your own player(launches your MP3 player)

KJAX 201556Z 30006KT 10SM SCT250 17/06 A3032 RMK AO2 SLP269 T01670056

KJAX Airport Info (Airnav.com)

KJAX Flight Activity (Flightaware)

Listeners: 0 out of 1377 total

Jacksonville D-ATIS: 125.850

KJAX Gnd/Twr (Archives)
Jacksonville, Florida, United States

Feed Status: UP
Listen in your browser - HTML5 player(in browser, HTML5)
Click here to listen with your own player(launches your MP3 player)

KJAX 201556Z 30006KT 10SM SCT250 17/06 A3032 RMK AO2 SLP269 T01670056

KJAX Airport Info (Airnav.com)

KJAX Flight Activity (Flightaware)

Listeners: 2 out of 1377 total

Jacksonville Ground: 121.900
Jacksonville Tower: 118.300

KLAN Del/Gnd/Twr/App (Archives)
Lansing, Michigan, United States

Feed Status: UP
Listen in your browser - HTML5 player(in browser, HTML5)
Click here to listen with your own player(launches your MP3 player)

KLAN 201553Z 24010KT 10SM OVC027 M06/M10 A3020 RMK AO2 SLP239 T10561100

KLAN Airport Info (Airnav.com)

KLAN Flight Activity (Flightaware)

Listeners: 3 out of 1377 total

CTAF/UNICOM (K60G): 122.900
CTAF/UNICOM (KTEW/4D0): 122.700
Emergency/Guard: 121.500
Great Lakes Approach: 127.300
Great Lakes Approach/Departure (North): 133.475
Great Lakes Approach/Departure (South): 118.650
Lansing Clearance Delivery: 123.675
Lansing Ground: 121.900
Lansing Tower: 119.900
Lansing UNICOM: 122.950

KLBB Gnd/Twr/App (Archives)
Lubbock, Texas, United States

Feed Status: UP
Listen in your browser - HTML5 player(in browser, HTML5)
Click here to listen with your own player(launches your MP3 player)

KLBB 201553Z 25009KT 10SM BKN020 BKN055 OVC100 04/M04 A3029 RMK AO2 SLP255 T00441044

KLBB Airport Info (Airnav.com)

KLBB Flight Activity (Flightaware)

Listeners: 0 out of 1377 total

Emergency/Guard: 121.500
Hub City Aviation: 123.500
Lubbock Approach/Departure: 119.200
Lubbock Ground: 121.900
Lubbock Tower: 120.500

Emergency/Guard (Archives)
Midland, Texas, United States

Feed Status: UP
Listen in your browser - HTML5 player(in browser, HTML5)
Click here to listen with your own player(launches your MP3 player)

KMAF 201553Z 23005KT 9SM UP SCT026 OVC080 02/01 A3035 RMK AO2 UPB32RAB44E53 SLP274 P0000 T00220011

KMAF Airport Info (Airnav.com)

KMAF Flight Activity (Flightaware)

Listeners: 0 out of 1377 total

Emergency/Guard: 121.500

KMAF App/Dep (North) (Archives)
Midland, Texas, United States

Feed Status: UP
Listen in your browser - HTML5 player(in browser, HTML5)
Click here to listen with your own player(launches your MP3 player)

KMAF 201553Z 23005KT 9SM UP SCT026 OVC080 02/01 A3035 RMK AO2 UPB32RAB44E53 SLP274 P0000 T00220011

KMAF Airport Info (Airnav.com)

KMAF Flight Activity (Flightaware)

Listeners: 0 out of 1377 total

Midland Approach/Departure: 124.600

KMAF App/Dep (North/South) (Archives)
Midland, Texas, United States

Feed Status: UP
Listen in your browser - HTML5 player(in browser, HTML5)
Click here to listen with your own player(launches your MP3 player)

KMAF 201553Z 23005KT 9SM UP SCT026 OVC080 02/01 A3035 RMK AO2 UPB32RAB44E53 SLP274 P0000 T00220011

KMAF Airport Info (Airnav.com)

KMAF Flight Activity (Flightaware)

Listeners: 0 out of 1377 total

Midland Approach/Departure: 121.100
Midland Approach/Departure: 124.600

KMAF App/Dep (South) (Archives)
Midland, Texas, United States

Feed Status: UP
Listen in your browser - HTML5 player(in browser, HTML5)
Click here to listen with your own player(launches your MP3 player)

KMAF 201553Z 23005KT 9SM UP SCT026 OVC080 02/01 A3035 RMK AO2 UPB32RAB44E53 SLP274 P0000 T00220011

KMAF Airport Info (Airnav.com)

KMAF Flight Activity (Flightaware)

Listeners: 0 out of 1377 total

Midland Approach/Departure: 121.100

KMAF ATIS (Archives)
Midland, Texas, United States

Feed Status: UP
Listen in your browser - HTML5 player(in browser, HTML5)
Click here to listen with your own player(launches your MP3 player)

KMAF 201553Z 23005KT 9SM UP SCT026 OVC080 02/01 A3035 RMK AO2 UPB32RAB44E53 SLP274 P0000 T00220011

KMAF Airport Info (Airnav.com)

KMAF Flight Activity (Flightaware)

Listeners: 0 out of 1377 total

Midland ATIS: 126.800

KMAF Clearance Delivery (Archives)
Midland, Texas, United States

Feed Status: UP
Listen in your browser - HTML5 player(in browser, HTML5)
Click here to listen with your own player(launches your MP3 player)

KMAF 201553Z 23005KT 9SM UP SCT026 OVC080 02/01 A3035 RMK AO2 UPB32RAB44E53 SLP274 P0000 T00220011

KMAF Airport Info (Airnav.com)

KMAF Flight Activity (Flightaware)

Listeners: 0 out of 1377 total

Midland Clearance Delivery: 118.050

KMAF Del/Gnd (Archives)
Midland, Texas, United States

Feed Status: UP
Listen in your browser - HTML5 player(in browser, HTML5)
Click here to listen with your own player(launches your MP3 player)

KMAF 201553Z 23005KT 9SM UP SCT026 OVC080 02/01 A3035 RMK AO2 UPB32RAB44E53 SLP274 P0000 T00220011

KMAF Airport Info (Airnav.com)

KMAF Flight Activity (Flightaware)

Listeners: 0 out of 1377 total

Midland Clearance Delivery: 118.050
Midland Ground: 121.900

KMAF Ground (Archives)
Midland, Texas, United States

Feed Status: UP
Listen in your browser - HTML5 player(in browser, HTML5)
Click here to listen with your own player(launches your MP3 player)

KMAF 201553Z 23005KT 9SM UP SCT026 OVC080 02/01 A3035 RMK AO2 UPB32RAB44E53 SLP274 P0000 T00220011

KMAF Airport Info (Airnav.com)

KMAF Flight Activity (Flightaware)

Listeners: 0 out of 1377 total

Midland Ground: 121.900

KMAF Tower (Archives)
Midland, Texas, United States

Feed Status: UP
Listen in your browser - HTML5 player(in browser, HTML5)
Click here to listen with your own player(launches your MP3 player)

KMAF 201553Z 23005KT 9SM UP SCT026 OVC080 02/01 A3035 RMK AO2 UPB32RAB44E53 SLP274 P0000 T00220011

KMAF Airport Info (Airnav.com)

KMAF Flight Activity (Flightaware)

Listeners: 0 out of 1377 total

Midland Tower: 118.700

KMDW App/Dep (Archives)
Chicago, Illinois, United States

Feed Status: UP
Listen in your browser - HTML5 player(in browser, HTML5)
Click here to listen with your own player(launches your MP3 player)

KORD 201551Z 21010KT 10SM FEW200 SCT250 M08/M13 A3022 RMK AO2 SLP243 T10781128

KORD Airport Info (Airnav.com)

KORD Flight Activity (Flightaware)

Listeners: 0 out of 1377 total

Chicago Approach/Departure (South Satellite Sector 1): 128.200
Chicago Approach/Departure (South Satellite Sector 2): 119.350

KMDW ATIS (Archives)
Chicago, Illinois, United States

Feed Status: UP
Listen in your browser - HTML5 player(in browser, HTML5)
Click here to listen with your own player(launches your MP3 player)

KMDW 201553Z 22009KT 10SM FEW020 FEW200 SCT250 M08/M13 A3024 RMK AO2 SLP257 T10781133

KMDW Airport Info (Airnav.com)

KMDW Flight Activity (Flightaware)

Listeners: 0 out of 1377 total

Midway ATIS: 132.750

KMDW Clearance/Metering (Archives)
Chicago, Illinois, United States

Feed Status: UP
Listen in your browser - HTML5 player(in browser, HTML5)
Click here to listen with your own player(launches your MP3 player)

KMDW 201553Z 22009KT 10SM FEW020 FEW200 SCT250 M08/M13 A3024 RMK AO2 SLP257 T10781133

KMDW Airport Info (Airnav.com)

KMDW Flight Activity (Flightaware)

Listeners: 0 out of 1377 total

Midway Clearance Delivery/Metering: 124.625

KMDW Ground #1 (Archives)
Chicago, Illinois, United States

Feed Status: UP
Listen in your browser - HTML5 player(in browser, HTML5)
Click here to listen with your own player(launches your MP3 player)

KMDW 201553Z 22009KT 10SM FEW020 FEW200 SCT250 M08/M13 A3024 RMK AO2 SLP257 T10781133

KMDW Airport Info (Airnav.com)

KMDW Flight Activity (Flightaware)

Listeners: 0 out of 1377 total

Midway Ground: 121.650

KMDW Tower #1 (Archives)
Chicago, Illinois, United States

Feed Status: UP
Listen in your browser - HTML5 player(in browser, HTML5)
Click here to listen with your own player(launches your MP3 player)

KMDW 201553Z 22009KT 10SM FEW020 FEW200 SCT250 M08/M13 A3024 RMK AO2 SLP257 T10781133

KMDW Airport Info (Airnav.com)

KMDW Flight Activity (Flightaware)

Listeners: 0 out of 1377 total

Midway Tower: 135.200

KMGY App/Dep (Archives)
Dayton, Ohio, United States

Feed Status: UP
Listen in your browser - HTML5 player(in browser, HTML5)
Click here to listen with your own player(launches your MP3 player)

KMGY 201553Z AUTO 28007KT 8SM OVC019 M02/M06 A3027 RMK AO2 SNE04 SLP259 P0000 T10171056

KMGY Airport Info (Airnav.com)

KMGY Flight Activity (Flightaware)

Listeners: 0 out of 1377 total

Dayton Approach/Departure: 118.850

NORCAL App (EXPO/127.4) (Archives)
Sacramento, California, United States

Feed Status: UP
Listen in your browser - HTML5 player(in browser, HTML5)
Click here to listen with your own player(launches your MP3 player)

KMHR 201545Z 13006KT 10SM SKC 01/M02 A3011

KMHR Airport Info (Airnav.com)

KMHR Flight Activity (Flightaware)

Listeners: 1 out of 1377 total

NORCAL Approach (EXPO Sector): 127.400

KMHT App/Dep (Fitzy Sector) (Archives)
Manchester, New Hampshire, United States

Feed Status: UP
Listen in your browser - HTML5 player(in browser, HTML5)
Click here to listen with your own player(launches your MP3 player)

KMHT 201553Z 31005KT 10SM BKN090 BKN250 01/M07 A2981 RMK AO2 SLP113 T00111072

KMHT Airport Info (Airnav.com)

KMHT Flight Activity (Flightaware)

Listeners: 0 out of 1377 total

Boston Approach (Fitzy Sector): 124.900

KMHT ATIS (Archives)
Manchester, New Hampshire, United States

Feed Status: UP
Listen in your browser - HTML5 player(in browser, HTML5)
Click here to listen with your own player(launches your MP3 player)

KMHT 201553Z 31005KT 10SM BKN090 BKN250 01/M07 A2981 RMK AO2 SLP113 T00111072

KMHT Airport Info (Airnav.com)

KMHT Flight Activity (Flightaware)

Listeners: 0 out of 1377 total

Manchester ATIS: 119.550

KMHT Boston App/Dep #1 (Archives)
Manchester, New Hampshire, United States

Feed Status: UP
Listen in your browser - HTML5 player(in browser, HTML5)
Click here to listen with your own player(launches your MP3 player)

KMHT 201553Z 31005KT 10SM BKN090 BKN250 01/M07 A2981 RMK AO2 SLP113 T00111072

KMHT Airport Info (Airnav.com)

KMHT Flight Activity (Flightaware)

Listeners: 0 out of 1377 total

Boston Approach (backup): 125.825
Boston Approach (Fitzy Sector): 124.900
Boston Approach (MHT/West Sector): 134.750
Boston Approach (Tommy Sector): 127.350

KMHT Boston App/Dep #2 (Archives)
Manchester, New Hampshire, United States

Feed Status: UP
Listen in your browser - HTML5 player(in browser, HTML5)
Click here to listen with your own player(launches your MP3 player)

KMHT 201553Z 31005KT 10SM BKN090 BKN250 01/M07 A2981 RMK AO2 SLP113 T00111072

KMHT Airport Info (Airnav.com)

KMHT Flight Activity (Flightaware)

Listeners: 0 out of 1377 total

Boston Approach (backup): 125.825
Boston Approach (Fitzy Sector): 124.900
Boston Approach (MHT/West Sector): 134.750
Boston Approach (Tommy Sector): 127.350

KMHT Boston App/Dep #3 (Archives)
Manchester, New Hampshire, United States

Feed Status: UP
Listen in your browser - HTML5 player(in browser, HTML5)
Click here to listen with your own player(launches your MP3 player)

KASH 201556Z 29006KT 10SM FEW075 OVC095 01/M06 A2983 RMK AO2 SLP107 T00061061

KASH Airport Info (Airnav.com)

KASH Flight Activity (Flightaware)

Listeners: 0 out of 1377 total

Boston Approach (Fitzy Sector): 124.900

KMHT Del/Gnd/Twr (Archives)
Manchester, New Hampshire, United States

Feed Status: UP
Listen in your browser - HTML5 player(in browser, HTML5)
Click here to listen with your own player(launches your MP3 player)

KMHT 201553Z 31005KT 10SM BKN090 BKN250 01/M07 A2981 RMK AO2 SLP113 T00111072

KMHT Airport Info (Airnav.com)

KMHT Flight Activity (Flightaware)

Listeners: 0 out of 1377 total

Airport Response 01: 158.730
Airport Response 02: 158.340
Airport Response 03: 159.720
Manchester Clearance Delivery: 135.900
Manchester Ground: 121.900
Manchester Tower: 121.300

KMHT Del/Gnd/Twr/App (Archives)
Manchester, New Hampshire, United States

Feed Status: UP
Listen in your browser - HTML5 player(in browser, HTML5)
Click here to listen with your own player(launches your MP3 player)

KMHT 201553Z 31005KT 10SM BKN090 BKN250 01/M07 A2981 RMK AO2 SLP113 T00111072

KMHT Airport Info (Airnav.com)

KMHT Flight Activity (Flightaware)

Listeners: 3 out of 1377 total

Airport Response 01: 158.730
Airport Response 02: 158.340
Airport Response 03: 159.720
Boston Approach (backup): 125.825
Boston Approach (Fitzy Sector): 124.900
Boston Approach (MHT/West Sector): 134.750
Emergency/Guard: 121.500
Manchester Clearance Delivery: 135.900
Manchester Ground: 121.900
Manchester Tower: 121.300

KMHT Tower #1 (Archives)
Manchester, New Hampshire, United States

Feed Status: UP
Listen in your browser - HTML5 player(in browser, HTML5)
Click here to listen with your own player(launches your MP3 player)

KMHT 201553Z 31005KT 10SM BKN090 BKN250 01/M07 A2981 RMK AO2 SLP113 T00111072

KMHT Airport Info (Airnav.com)

KMHT Flight Activity (Flightaware)

Listeners: 0 out of 1377 total

Manchester Tower: 121.300

KMHT Tower #2 (Archives)
Manchester, New Hampshire, United States

Feed Status: UP
Listen in your browser - HTML5 player(in browser, HTML5)
Click here to listen with your own player(launches your MP3 player)

KMHT 201553Z 31005KT 10SM BKN090 BKN250 01/M07 A2981 RMK AO2 SLP113 T00111072

KMHT Airport Info (Airnav.com)

KMHT Flight Activity (Flightaware)

Listeners: 0 out of 1377 total

Manchester Tower: 121.300

KMKE Approach/Departure (Archives)
Milwaukee, Wisconsin, United States

Feed Status: UP
Listen in your browser - HTML5 player(in browser, HTML5)
Click here to listen with your own player(launches your MP3 player)

KMKE 201552Z 22012KT 10SM SCT180 BKN220 M10/M14 A3016 RMK AO2 SLP227 T11001144

KMKE Airport Info (Airnav.com)

KMKE Flight Activity (Flightaware)

Listeners: 0 out of 1377 total

Milwaukee Approach: 118.000
Milwaukee Approach: 125.350
Milwaukee Approach: 126.500

KMKE Ground (Archives)
Milwaukee, Wisconsin, United States

Feed Status: UP
Listen in your browser - HTML5 player(in browser, HTML5)
Click here to listen with your own player(launches your MP3 player)

KMKE 201552Z 22012KT 10SM SCT180 BKN220 M10/M14 A3016 RMK AO2 SLP227 T11001144

KMKE Airport Info (Airnav.com)

KMKE Flight Activity (Flightaware)

Listeners: 0 out of 1377 total

Milwaukee Ground: 121.800
Timmerman Ground: 121.700

KMKE Tower (Archives)
Milwaukee, Wisconsin, United States

Feed Status: UP
Listen in your browser - HTML5 player(in browser, HTML5)
Click here to listen with your own player(launches your MP3 player)

KMKE 201552Z 22012KT 10SM SCT180 BKN220 M10/M14 A3016 RMK AO2 SLP227 T11001144

KMKE Airport Info (Airnav.com)

KMKE Flight Activity (Flightaware)

Listeners: 1 out of 1377 total

Milwaukee Tower: 124.575

KMLI Del/Gnd/Twr/App (Archives)
Moline, Illinois, United States

Feed Status: UP
Listen in your browser - HTML5 player(in browser, HTML5)
Click here to listen with your own player(launches your MP3 player)

KMLI 201552Z 20006KT 10SM CLR M08/M13 A3020 RMK AO2 SLP238 T10781133

KMLI Airport Info (Airnav.com)

KMLI Flight Activity (Flightaware)

Listeners: 0 out of 1377 total

Quad City Approach (N/NE): 125.950
Quad City Approach (S/SE): 133.275
Quad City Clearance: 124.050
Quad City Ground: 121.900
Quad City Tower: 119.400

KMOB Gnd/Twr/App (Archives)
Mobile, Alabama, United States

Feed Status: UP
Listen in your browser - HTML5 player(in browser, HTML5)
Click here to listen with your own player(launches your MP3 player)

KMOB 201556Z 02007KT 10SM SCT070 14/07 A3037 RMK AO2 SLP283 T01440072 $

KMOB Airport Info (Airnav.com)

KMOB Flight Activity (Flightaware)

Listeners: 0 out of 1377 total

Mobile Approach/Departure North (320-139) : 118.500
Mobile Approach/Departure South (140-319): 121.000
Mobile Clearance Delivery: 119.850
Mobile Ground: 121.900
Mobile Tower: 118.300

KMRY App/Dep (Archives)
Monterey, California, United States

Feed Status: UP
Listen in your browser - HTML5 player(in browser, HTML5)
Click here to listen with your own player(launches your MP3 player)

KMRY 201554Z 15004KT 10SM CLR 08/M06 A3008 RMK AO2 SLP200 T00831061

KMRY Airport Info (Airnav.com)

KMRY Flight Activity (Flightaware)

Listeners: 0 out of 1377 total

NORCAL Approach (Fremont Sector/Monterey West): 133.000
NORCAL Approach (Seca Sector/Monterey East): 127.150

KMRY ATIS (Archives)
Monterey, California, United States

Feed Status: UP
Listen in your browser - HTML5 player(in browser, HTML5)
Click here to listen with your own player(launches your MP3 player)

KMRY 201554Z 15004KT 10SM CLR 08/M06 A3008 RMK AO2 SLP200 T00831061

KMRY Airport Info (Airnav.com)

KMRY Flight Activity (Flightaware)

Listeners: 0 out of 1377 total

Monterey ATIS: 119.250

KMRY Del/Gnd/Twr (Archives)
Monterey, California, United States

Feed Status: UP
Listen in your browser - HTML5 player(in browser, HTML5)
Click here to listen with your own player(launches your MP3 player)

KMRY 201554Z 15004KT 10SM CLR 08/M06 A3008 RMK AO2 SLP200 T00831061

KMRY Airport Info (Airnav.com)

KMRY Flight Activity (Flightaware)

Listeners: 0 out of 1377 total

Monterey Clearance Delivery: 135.450
Monterey Ground: 120.875
Monterey Tower: 118.400

KMSN Approach/Departure (Archives)
Madison, Wisconsin, United States

Feed Status: UP
Listen in your browser - HTML5 player(in browser, HTML5)
Click here to listen with your own player(launches your MP3 player)

KMSN 201553Z 19009KT 10SM BKN250 M12/M15 A3011 RMK AO2 SLP215 T11171150

KMSN Airport Info (Airnav.com)

KMSN Flight Activity (Flightaware)

Listeners: 0 out of 1377 total

Madison Approach/Departure: 120.100
Madison Approach/Departure: 135.450

KMSN ATIS (Archives)
Madison, Wisconsin, United States

Feed Status: UP
Listen in your browser - HTML5 player(in browser, HTML5)
Click here to listen with your own player(launches your MP3 player)

KMSN 201553Z 19009KT 10SM BKN250 M12/M15 A3011 RMK AO2 SLP215 T11171150

KMSN Airport Info (Airnav.com)

KMSN Flight Activity (Flightaware)

Listeners: 0 out of 1377 total

Madison ATIS: 124.650

KMSN Clearance Delivery (Archives)
Madison, Wisconsin, United States

Feed Status: UP
Listen in your browser - HTML5 player(in browser, HTML5)
Click here to listen with your own player(launches your MP3 player)

KMSN 201553Z 19009KT 10SM BKN250 M12/M15 A3011 RMK AO2 SLP215 T11171150

KMSN Airport Info (Airnav.com)

KMSN Flight Activity (Flightaware)

Listeners: 0 out of 1377 total

Madison Clearance Delivery: 121.625

KMSN Emergency/Guard (Archives)
Madison, Wisconsin, United States

Feed Status: UP
Listen in your browser - HTML5 player(in browser, HTML5)
Click here to listen with your own player(launches your MP3 player)

KMSN 201553Z 19009KT 10SM BKN250 M12/M15 A3011 RMK AO2 SLP215 T11171150

KMSN Airport Info (Airnav.com)

KMSN Flight Activity (Flightaware)

Listeners: 0 out of 1377 total

Emergency/Guard: 121.500

KMSN Ground (Archives)
Madison, Wisconsin, United States

Feed Status: UP
Listen in your browser - HTML5 player(in browser, HTML5)
Click here to listen with your own player(launches your MP3 player)

KMSN 201553Z 19009KT 10SM BKN250 M12/M15 A3011 RMK AO2 SLP215 T11171150

KMSN Airport Info (Airnav.com)

KMSN Flight Activity (Flightaware)

Listeners: 0 out of 1377 total

Madison Ground: 121.900

KMSN Tower (Archives)
Madison, Wisconsin, United States

Feed Status: UP
Listen in your browser - HTML5 player(in browser, HTML5)
Click here to listen with your own player(launches your MP3 player)

KMSN 201553Z 19009KT 10SM BKN250 M12/M15 A3011 RMK AO2 SLP215 T11171150

KMSN Airport Info (Airnav.com)

KMSN Flight Activity (Flightaware)

Listeners: 0 out of 1377 total

Madison Tower: 119.300

KMSN Twr/App (Archives)
Madison, Wisconsin, United States

Feed Status: UP
Listen in your browser - HTML5 player(in browser, HTML5)
Click here to listen with your own player(launches your MP3 player)

KMSN 201553Z 19009KT 10SM BKN250 M12/M15 A3011 RMK AO2 SLP215 T11171150

KMSN Airport Info (Airnav.com)

KMSN Flight Activity (Flightaware)

Listeners: 0 out of 1377 total

Emergency / GUARD: 121.500
Madison Approach (East): 120.100
Madison Approach (West): 135.450
Madison Tower: 119.300

KMYR Gnd/Twr/App (Archives)
Myrtle Beach, South Carolina, United States

Feed Status: UP
Listen in your browser - HTML5 player(in browser, HTML5)
Click here to listen with your own player(launches your MP3 player)

KMYR 201556Z 29013G18KT 10SM CLR 15/03 A3016 RMK AO2 SLP214 T01500033

KMYR Airport Info (Airnav.com)

KMYR Flight Activity (Flightaware)

Listeners: 1 out of 1377 total

Myrtle Beach Approach/Departure: 119.200
Myrtle Beach Approach/Departure: 127.400
Myrtle Beach ATIS (top of hour): 123.925
Myrtle Beach Ground: 120.300
Myrtle Beach Tower: 128.450

KMYR Gnd/Twr/App (UHF) (Archives)
Myrtle Beach, South Carolina, United States

Feed Status: UP
Listen in your browser - HTML5 player(in browser, HTML5)
Click here to listen with your own player(launches your MP3 player)

KMYR 201556Z 29013G18KT 10SM CLR 15/03 A3016 RMK AO2 SLP214 T01500033

KMYR Airport Info (Airnav.com)

KMYR Flight Activity (Flightaware)

Listeners: 0 out of 1377 total

Emergency/Guard: 243.000
Myrtle Beach Approach/Departure (171-321 degrees) : 257.950
Myrtle Beach Approach/Departure (322-170 degrees): 350.300
Myrtle Beach Ground: 275.800
Myrtle Beach Tower: 259.300
PMSV (Pilot-to-Meteorological Service): 239.800

KNDZ/KNSE Twr/App
Milton, Florida, United States

Feed Status: DOWN
Offline since: 2020-08-12 05:42:39 UTC

KPNS Airport Info (Airnav.com)

Pensacola Approach: 124.850
Pensacola Approach: 127.350
Sherman Tower: 340.200
Whiting North Tower: 306.925
Whiting South Tower: 348.675

KNDZ/KNSE Twr/App
Pensacola, Florida, United States

Feed Status: DOWN
Offline since: 2020-08-12 05:42:39 UTC

KPNS Airport Info (Airnav.com)

Pensacola Approach: 124.850
Pensacola Approach: 127.350
Sherman Tower: 340.200
Whiting North Tower: 306.925
Whiting South Tower: 348.675

KPNS/KNPA App 120.65
Pensacola, Florida, United States

Feed Status: DOWN
Offline since: 2020-08-12 05:42:39 UTC

KPNS Airport Info (Airnav.com)

Pensacola Approach/Departure: 120.650

KNDZ/KNSE Twr/App
Milton, Florida, United States

Feed Status: DOWN
Offline since: 2020-08-12 05:42:39 UTC

KPNS Airport Info (Airnav.com)

Pensacola Approach: 124.850
Pensacola Approach: 127.350
Sherman Tower: 340.200
Whiting North Tower: 306.925
Whiting South Tower: 348.675

KOAK Del/Gnd/Twr (Archives)
Oakland, California, United States

Feed Status: UP
Listen in your browser - HTML5 player(in browser, HTML5)
Click here to listen with your own player(launches your MP3 player)

KOAK 201553Z 04004KT 10SM FEW200 06/M03 A3013 RMK AO2 SLP203 T00611028

KOAK Airport Info (Airnav.com)

KOAK Flight Activity (Flightaware)

Listeners: 1 out of 1377 total

Oakland Clearance Delivery: 121.100
Oakland Ground: 121.750
Oakland Ground (North): 121.900
Oakland Tower: 127.200
Oakland Tower (Runways 28L/10R, 28R/10L, 33/15): 118.300

KOAK Tower (Both)
Oakland, California, United States

Feed Status: DOWN
Offline since: 2021-01-06 01:11:05 UTC

KOAK 201553Z 04004KT 10SM FEW200 06/M03 A3013 RMK AO2 SLP203 T00611028

KOAK Airport Info (Airnav.com)

Oakland Tower (Runways 28L/10R, 28R/10L, 33/15): 118.300
Oakland Tower (Rwys 12/30): 127.200

KOAK Tower (Rwys 12/30)
Oakland, California, United States

Feed Status: DOWN
Offline since: 2021-01-06 01:11:05 UTC

KOAK 201553Z 04004KT 10SM FEW200 06/M03 A3013 RMK AO2 SLP203 T00611028

KOAK Airport Info (Airnav.com)

Oakland Tower (Rwys 12/30): 127.200

KOAK Tower (Rwys 28R/10L 28L/10R 15/33)
Oakland, California, United States

Feed Status: DOWN
Offline since: 2021-01-06 01:11:05 UTC

KOAK 201553Z 04004KT 10SM FEW200 06/M03 A3013 RMK AO2 SLP203 T00611028

KOAK Airport Info (Airnav.com)

Oakland Tower (Runways 28L/10R, 28R/10L, 33/15): 118.300

NORCAL Approach (KOAK) (Archives)
Oakland, California, United States

Feed Status: UP
Listen in your browser - HTML5 player(in browser, HTML5)
Click here to listen with your own player(launches your MP3 player)

KOAK 201553Z 04004KT 10SM FEW200 06/M03 A3013 RMK AO2 SLP203 T00611028

KOAK Airport Info (Airnav.com)

KOAK Flight Activity (Flightaware)

Listeners: 0 out of 1377 total

NORCAL Approach (KOAK Rwy 29/27R Final): 125.350
NORCAL Approach (Mulford Sector): 124.400

NORCAL Departure (KSFO/KOAK) (Archives)
Oakland, California, United States

Feed Status: UP
Listen in your browser - HTML5 player(in browser, HTML5)
Click here to listen with your own player(launches your MP3 player)

KOAK 201553Z 04004KT 10SM FEW200 06/M03 A3013 RMK AO2 SLP203 T00611028

KOAK Airport Info (Airnav.com)

KOAK Flight Activity (Flightaware)

Listeners: 5 out of 1377 total

NORCAL Departure (Northeast Departures): 120.900
NORCAL Departure (Northeast Departures): 127.000
NORCAL Departure (Southwest Departures): 127.975
NORCAL Departure (Southwest Departures): 135.100

KOCF Gnd/Twr/App (Archives)
Ocala, Florida, United States

Feed Status: UP
Listen in your browser - HTML5 player(in browser, HTML5)
Click here to listen with your own player(launches your MP3 player)

KOCF 201551Z 05003KT 10SM CLR 17/05 A3035 RMK AO2 SLP278 T01670050 $

KOCF Airport Info (Airnav.com)

KOCF Flight Activity (Flightaware)

Listeners: 0 out of 1377 total

Jacksonville Approach (OCF RCO): 118.600
Ocala Ground: 121.400
Ocala Tower: 119.250
UNICOM: 123.000

KOFF Gnd/Twr/App/ZMP (Archives)
Omaha, Nebraska, United States

Feed Status: UP
Listen in your browser - HTML5 player(in browser, HTML5)
Click here to listen with your own player(launches your MP3 player)

KOFF 201556Z AUTO 22007KT 10SM CLR 03/M04 A2998 RMK AO2 SLP168 T00321045 $

KOFF Airport Info (Airnav.com)

KOFF Flight Activity (Flightaware)

Listeners: 1 out of 1377 total

Emergency/Guard: 121.500
Minneapolis Center (Sector 27 Low): 119.600
Offutt AFB Ground: 121.700
Offutt AFB Tower: 123.700
Omaha Approach/Departure (East): 124.500
Omaha Approach/Departure (West): 120.100

KOKC App/Dep (NE) (Archives)
Oklahoma City, Oklahoma, United States

Feed Status: UP
Listen in your browser - HTML5 player(in browser, HTML5)
Click here to listen with your own player(launches your MP3 player)

KOKC 201552Z 18008KT 10SM OVC055 04/M03 A3030 RMK AO2 SLP268 T00391033

KOKC Airport Info (Airnav.com)

KOKC Flight Activity (Flightaware)

Listeners: 0 out of 1377 total

Oke City Approach/Departure: 124.200

KOKC App/Dep (SW) (Archives)
Oklahoma City, Oklahoma, United States

Feed Status: UP
Listen in your browser - HTML5 player(in browser, HTML5)
Click here to listen with your own player(launches your MP3 player)

KOKC 201552Z 18008KT 10SM OVC055 04/M03 A3030 RMK AO2 SLP268 T00391033

KOKC Airport Info (Airnav.com)

KOKC Flight Activity (Flightaware)

Listeners: 1 out of 1377 total

Oke City Approach/Departure: 124.600

KOKC ATIS (Archives)
Oklahoma City, Oklahoma, United States

Feed Status: UP
Listen in your browser - HTML5 player(in browser, HTML5)
Click here to listen with your own player(launches your MP3 player)

KOKC 201552Z 18008KT 10SM OVC055 04/M03 A3030 RMK AO2 SLP268 T00391033

KOKC Airport Info (Airnav.com)

KOKC Flight Activity (Flightaware)

Listeners: 0 out of 1377 total

Rogers ATIS: 125.850

KOKC Clearance Delivery (Archives)
Oklahoma City, Oklahoma, United States

Feed Status: UP
Listen in your browser - HTML5 player(in browser, HTML5)
Click here to listen with your own player(launches your MP3 player)

KOKC 201552Z 18008KT 10SM OVC055 04/M03 A3030 RMK AO2 SLP268 T00391033

KOKC Airport Info (Airnav.com)

KOKC Flight Activity (Flightaware)

Listeners: 0 out of 1377 total

Rogers Clearance Delivery: 124.350

KOKC Emergency/Guard (Archives)
Oklahoma City, Oklahoma, United States

Feed Status: UP
Listen in your browser - HTML5 player(in browser, HTML5)
Click here to listen with your own player(launches your MP3 player)

KOKC 201552Z 18008KT 10SM OVC055 04/M03 A3030 RMK AO2 SLP268 T00391033

KOKC Airport Info (Airnav.com)

KOKC Flight Activity (Flightaware)

Listeners: 0 out of 1377 total

Emergency/Guard: 121.500

KOKC Ground (Archives)
Oklahoma City, Oklahoma, United States

Feed Status: UP
Listen in your browser - HTML5 player(in browser, HTML5)
Click here to listen with your own player(launches your MP3 player)

KOKC 201552Z 18008KT 10SM OVC055 04/M03 A3030 RMK AO2 SLP268 T00391033

KOKC Airport Info (Airnav.com)

KOKC Flight Activity (Flightaware)

Listeners: 0 out of 1377 total

Rogers Ground: 121.900

KOKC Tower (Archives)
Oklahoma City, Oklahoma, United States

Feed Status: UP
Listen in your browser - HTML5 player(in browser, HTML5)
Click here to listen with your own player(launches your MP3 player)

KOKC 201552Z 18008KT 10SM OVC055 04/M03 A3030 RMK AO2 SLP268 T00391033

KOKC Airport Info (Airnav.com)

KOKC Flight Activity (Flightaware)

Listeners: 0 out of 1377 total

Rogers Tower: 119.350
Rogers Tower: 120.250
Rogers Tower (UHF): 269.450

KOMA Del/Gnd/Twr (Archives)
Omaha, Nebraska, United States

Feed Status: UP
Listen in your browser - HTML5 player(in browser, HTML5)
Click here to listen with your own player(launches your MP3 player)

KOMA 201552Z 18008KT 10SM FEW200 02/M04 A2999 RMK AO2 SLP166 T00171044

KOMA Airport Info (Airnav.com)

KOMA Flight Activity (Flightaware)

Listeners: 2 out of 1377 total

Omaha Clearance Delivery: 119.900
Omaha Ground: 121.900
Omaha Tower: 132.100

KONT Del/Gnd/Twr/App (Archives)
Ontario, California, United States

Feed Status: UP
Listen in your browser - HTML5 player(in browser, HTML5)
Click here to listen with your own player(launches your MP3 player)

KONT 201553Z 05008KT 10SM FEW100 FEW250 16/02 A2998 RMK AO2 SLP148 T01610017

KONT Airport Info (Airnav.com)

KONT Flight Activity (Flightaware)

Listeners: 6 out of 1377 total

Ontario Clearance Delivery: 118.100
Ontario Ground: 121.900
Ontario Tower: 120.600
SOCAL Approach/Departure (N-NE): 127.000
SOCAL Approach/Departure (NE-S): 134.000
SOCAL Approach/Departure (S-SW): 135.400
SOCAL Approach/Departure (SW-N): 125.500

KORF ATIS (Archives)
Norfolk, Virginia, United States

Feed Status: UP
Listen in your browser - HTML5 player(in browser, HTML5)
Click here to listen with your own player(launches your MP3 player)

KORF 201551Z 29012G24KT 10SM CLR 10/M06 A3007 RMK AO2 SLP181 T01001061

KORF Airport Info (Airnav.com)

KORF Flight Activity (Flightaware)

Listeners: 0 out of 1377 total

Norfolk ATIS: 127.150

KORF Gnd/Twr/App/Radar (Archives)
Norfolk, Virginia, United States

Feed Status: UP
Listen in your browser - HTML5 player(in browser, HTML5)
Click here to listen with your own player(launches your MP3 player)

KORF 201551Z 29012G24KT 10SM CLR 10/M06 A3007 RMK AO2 SLP181 T01001061

KORF Airport Info (Airnav.com)

KORF Flight Activity (Flightaware)

Listeners: 1 out of 1377 total

Norfolk Approach: 119.450
Norfolk Approach: 353.700
Norfolk Approach: 118.900
Norfolk Approach: 335.625
Norfolk Approach/Departure: 127.900
Norfolk Approach/Departure: 126.050
Norfolk Approach/Departure (Discrete): 128.050
Norfolk Approach/Departure (East): 370.925
Norfolk Approach/Departure (West): 360.600
Norfolk Clearance Delivery: 118.500
Norfolk Departure: 125.200
Norfolk Departure: 379.100
Norfolk Departure: 363.125
Norfolk Ground: 121.900
Norfolk Ground (alternate): 123.950
Norfolk Radar: 266.800
Norfolk Radar: 119.600
Norfolk Radar: 124.825
Norfolk Radar: 288.300
Norfolk Tower: 120.800
Norfolk Tower: 257.800

KPDX App/Dep (Archives)
Portland, Oregon, United States

Feed Status: UP
Listen in your browser - HTML5 player(in browser, HTML5)
Click here to listen with your own player(launches your MP3 player)

KPDX 201553Z 00000KT 10SM R10R/1400V1600FT FEW001 BKN250 M01/M02 A3021 RMK AO2 SLP229 VIS W 2 I1000 T10061017

KPDX Airport Info (Airnav.com)

KPDX Flight Activity (Flightaware)

Listeners: 0 out of 1377 total

Portland Approach (100-279 deg): 118.100
Portland Approach (280-099 deg): 124.350

KPDX App/Dep/Final (Archives)
Portland, Oregon, United States

Feed Status: UP
Listen in your browser - HTML5 player(in browser, HTML5)
Click here to listen with your own player(launches your MP3 player)

KPDX 201553Z 00000KT 10SM R10R/1400V1600FT FEW001 BKN250 M01/M02 A3021 RMK AO2 SLP229 VIS W 2 I1000 T10061017

KPDX Airport Info (Airnav.com)

KPDX Flight Activity (Flightaware)

Listeners: 0 out of 1377 total

Emergency (Guard): 121.500
Portland Approach (100-279 deg): 118.100
Portland Approach (280-099 deg): 124.350
Portland Approach (Final): 126.900

KPDX Approach (Final) (Archives)
Portland, Oregon, United States

Feed Status: UP
Listen in your browser - HTML5 player(in browser, HTML5)
Click here to listen with your own player(launches your MP3 player)

KPDX 201553Z 00000KT 10SM R10R/1400V1600FT FEW001 BKN250 M01/M02 A3021 RMK AO2 SLP229 VIS W 2 I1000 T10061017

KPDX Airport Info (Airnav.com)

KPDX Flight Activity (Flightaware)

Listeners: 0 out of 1377 total

Emergency (Guard): 121.500
Portland Approach (Final): 126.900

KPDX ATIS (Archives)
Portland, Oregon, United States

Feed Status: UP
Listen in your browser - HTML5 player(in browser, HTML5)
Click here to listen with your own player(launches your MP3 player)

KPDX 201553Z 00000KT 10SM R10R/1400V1600FT FEW001 BKN250 M01/M02 A3021 RMK AO2 SLP229 VIS W 2 I1000 T10061017

KPDX Airport Info (Airnav.com)

KPDX Flight Activity (Flightaware)

Listeners: 0 out of 1377 total

Portland ATIS: 128.350

KPDX Del/Gnd (Archives)
Portland, Oregon, United States

Feed Status: UP
Listen in your browser - HTML5 player(in browser, HTML5)
Click here to listen with your own player(launches your MP3 player)

KPDX 201553Z 00000KT 10SM R10R/1400V1600FT FEW001 BKN250 M01/M02 A3021 RMK AO2 SLP229 VIS W 2 I1000 T10061017

KPDX Airport Info (Airnav.com)

KPDX Flight Activity (Flightaware)

Listeners: 0 out of 1377 total

Portland Clearance Delivery: 120.125
Portland Ground: 121.900

KPDX Del/Gnd/Twr (Archives)
Portland, Oregon, United States

Feed Status: UP
Listen in your browser - HTML5 player(in browser, HTML5)
Click here to listen with your own player(launches your MP3 player)

KPDX 201553Z 00000KT 10SM R10R/1400V1600FT FEW001 BKN250 M01/M02 A3021 RMK AO2 SLP229 VIS W 2 I1000 T10061017

KPDX Airport Info (Airnav.com)

KPDX Flight Activity (Flightaware)

Listeners: 0 out of 1377 total

Portland Clearance Delivery: 120.125
Portland Ground: 121.900
Portland Tower: 118.700
Portland Tower: 119.000
Portland Tower: 123.775

KPDX Tower (Archives)
Portland, Oregon, United States

Feed Status: UP
Listen in your browser - HTML5 player(in browser, HTML5)
Click here to listen with your own player(launches your MP3 player)

KPDX 201553Z 00000KT 10SM R10R/1400V1600FT FEW001 BKN250 M01/M02 A3021 RMK AO2 SLP229 VIS W 2 I1000 T10061017

KPDX Airport Info (Airnav.com)

KPDX Flight Activity (Flightaware)

Listeners: 2 out of 1377 total

Portland Tower: 118.700
Portland Tower: 123.775
Portland Tower: 119.000

KPIA Approach (North) (Archives)
Peoria, Illinois, United States

Feed Status: UP
Listen in your browser - HTML5 player(in browser, HTML5)
Click here to listen with your own player(launches your MP3 player)

KPIA 201554Z 20007KT 10SM CLR M06/M11 A3027 RMK AO2 SLP259 T10611106

KPIA Airport Info (Airnav.com)

KPIA Flight Activity (Flightaware)

Listeners: 0 out of 1377 total

Peoria Approach/Departure (North): 125.800

KPIA Approach (South) (Archives)
Peoria, Illinois, United States

Feed Status: UP
Listen in your browser - HTML5 player(in browser, HTML5)
Click here to listen with your own player(launches your MP3 player)

KPIA 201554Z 20007KT 10SM CLR M06/M11 A3027 RMK AO2 SLP259 T10611106

KPIA Airport Info (Airnav.com)

KPIA Flight Activity (Flightaware)

Listeners: 0 out of 1377 total

Peoria Approach/Departure (South): 124.675

KPIA Approach/Departure (Archives)
Peoria, Illinois, United States

Feed Status: UP
Listen in your browser - HTML5 player(in browser, HTML5)
Click here to listen with your own player(launches your MP3 player)

KPIA 201554Z 20007KT 10SM CLR M06/M11 A3027 RMK AO2 SLP259 T10611106

KPIA Airport Info (Airnav.com)

KPIA Flight Activity (Flightaware)

Listeners: 0 out of 1377 total

Peoria Approach/Departure (North): 125.800
Peoria Approach/Departure (South): 124.675

KPIA Area Guard (Archives)
Peoria, Illinois, United States

Feed Status: UP
Listen in your browser - HTML5 player(in browser, HTML5)
Click here to listen with your own player(launches your MP3 player)

KPIA 201554Z 20007KT 10SM CLR M06/M11 A3027 RMK AO2 SLP259 T10611106

KPIA Airport Info (Airnav.com)

KPIA Flight Activity (Flightaware)

Listeners: 0 out of 1377 total

Emergency/Guard: 121.500

KPIA ATIS (Archives)
Peoria, Illinois, United States

Feed Status: UP
Listen in your browser - HTML5 player(in browser, HTML5)
Click here to listen with your own player(launches your MP3 player)

KPIA 201554Z 20007KT 10SM CLR M06/M11 A3027 RMK AO2 SLP259 T10611106

KPIA Airport Info (Airnav.com)

KPIA Flight Activity (Flightaware)

Listeners: 0 out of 1377 total

Peoria ATIS/AWOS: 126.100

KPIA Ground (Archives)
Peoria, Illinois, United States

Feed Status: UP
Listen in your browser - HTML5 player(in browser, HTML5)
Click here to listen with your own player(launches your MP3 player)

KPIA 201554Z 20007KT 10SM CLR M06/M11 A3027 RMK AO2 SLP259 T10611106

KPIA Airport Info (Airnav.com)

KPIA Flight Activity (Flightaware)

Listeners: 0 out of 1377 total

Peoria Ground: 121.850

KPIA Ground/Tower (Archives)
Peoria, Illinois, United States

Feed Status: UP
Listen in your browser - HTML5 player(in browser, HTML5)
Click here to listen with your own player(launches your MP3 player)

KPIA 201554Z 20007KT 10SM CLR M06/M11 A3027 RMK AO2 SLP259 T10611106

KPIA Airport Info (Airnav.com)

KPIA Flight Activity (Flightaware)

Listeners: 0 out of 1377 total

Peoria Ground: 121.850
Peoria Tower: 124.000

KPIA Tower (Archives)
Peoria, Illinois, United States

Feed Status: UP
Listen in your browser - HTML5 player(in browser, HTML5)
Click here to listen with your own player(launches your MP3 player)

KPIA 201554Z 20007KT 10SM CLR M06/M11 A3027 RMK AO2 SLP259 T10611106

KPIA Airport Info (Airnav.com)

KPIA Flight Activity (Flightaware)

Listeners: 0 out of 1377 total

Peoria Tower: 124.000

KPVD Approach/Departure (Archives)
Providence, Rhode Island, United States

Feed Status: UP
Listen in your browser - HTML5 player(in browser, HTML5)
Click here to listen with your own player(launches your MP3 player)

KPVD 201551Z 30006KT 7SM SCT013 BKN036 02/M02 A2984 RMK AO2 SNE51 SLP104 P0000 T00171017

KPVD Airport Info (Airnav.com)

KPVD Flight Activity (Flightaware)

Listeners: 0 out of 1377 total

Emergency/Guard: 121.500
Providence Approach: 127.900
Providence Approach (GROTON Sector): 119.450
Providence Approach (JUMPR Sector): 125.750
Providence Approach (New Bedford Sector): 128.700
Providence Approach/Departure (RHODY Sector): 123.675

KPVD ATIS (Archives)
Providence, Rhode Island, United States

Feed Status: UP
Listen in your browser - HTML5 player(in browser, HTML5)
Click here to listen with your own player(launches your MP3 player)

KPVD 201551Z 30006KT 7SM SCT013 BKN036 02/M02 A2984 RMK AO2 SNE51 SLP104 P0000 T00171017

KPVD Airport Info (Airnav.com)

KPVD Flight Activity (Flightaware)

Listeners: 0 out of 1377 total

Providence ATIS: 124.200

KPVD Clearance Delivery (Archives)
Providence, Rhode Island, United States

Feed Status: UP
Listen in your browser - HTML5 player(in browser, HTML5)
Click here to listen with your own player(launches your MP3 player)

KPVD 201551Z 30006KT 7SM SCT013 BKN036 02/M02 A2984 RMK AO2 SNE51 SLP104 P0000 T00171017

KPVD Airport Info (Airnav.com)

KPVD Flight Activity (Flightaware)

Listeners: 0 out of 1377 total

Providence Clearance Delivery: 126.650

KPVD Gnd/Twr (Archives)
Providence, Rhode Island, United States

Feed Status: UP
Listen in your browser - HTML5 player(in browser, HTML5)
Click here to listen with your own player(launches your MP3 player)

KPVD 201551Z 30006KT 7SM SCT013 BKN036 02/M02 A2984 RMK AO2 SNE51 SLP104 P0000 T00171017

KPVD Airport Info (Airnav.com)

KPVD Flight Activity (Flightaware)

Listeners: 0 out of 1377 total

Providence Ground: 121.900
Providence Tower: 120.700

KPVD Gnd/Twr/App (Archives)
Providence, Rhode Island, United States

Feed Status: UP
Listen in your browser - HTML5 player(in browser, HTML5)
Click here to listen with your own player(launches your MP3 player)

KPVD 201551Z 30006KT 7SM SCT013 BKN036 02/M02 A2984 RMK AO2 SNE51 SLP104 P0000 T00171017

KPVD Airport Info (Airnav.com)

KPVD Flight Activity (Flightaware)

Listeners: 0 out of 1377 total

Providence Approach: 127.900
Providence Approach (GROTON Sector): 119.450
Providence Approach (JUMPR Sector): 125.750
Providence Approach (New Bedford Sector): 128.700
Providence Approach/Departure (RHODY Sector): 123.675
Providence Ground: 121.900
Providence Tower: 120.700

KPWM App/Dep #1 (Archives)
Portland, Maine, United States

Feed Status: UP
Listen in your browser - HTML5 player(in browser, HTML5)
Click here to listen with your own player(launches your MP3 player)

KPWM 201551Z 36006KT 10SM FEW035 FEW100 BKN250 00/M07 A2983 RMK AO2 SLP104 T00001072

KPWM Airport Info (Airnav.com)

KPWM Flight Activity (Flightaware)

Listeners: 1 out of 1377 total

Portland Approach (North): 125.500
Portland Approach (South): 119.750

KPWM App/Dep #2 (Archives)
Portland, Maine, United States

Feed Status: UP
Listen in your browser - HTML5 player(in browser, HTML5)
Click here to listen with your own player(launches your MP3 player)

KPWM 201551Z 36006KT 10SM FEW035 FEW100 BKN250 00/M07 A2983 RMK AO2 SLP104 T00001072

KPWM Airport Info (Airnav.com)

KPWM Flight Activity (Flightaware)

Listeners: 0 out of 1377 total

Portland Approach (South): 119.750

KPWM Gnd/Tower (Archives)
Portland, Maine, United States

Feed Status: UP
Listen in your browser - HTML5 player(in browser, HTML5)
Click here to listen with your own player(launches your MP3 player)

KPWM 201551Z 36006KT 10SM FEW035 FEW100 BKN250 00/M07 A2983 RMK AO2 SLP104 T00001072

KPWM Airport Info (Airnav.com)

KPWM Flight Activity (Flightaware)

Listeners: 1 out of 1377 total

Portland Clearance Delivery: 121.900
Portland Ground: 121.900
Portland Tower: 120.900

KPWM Gnd/Twr/App (Archives)
Portland, Maine, United States

Feed Status: UP
Listen in your browser - HTML5 player(in browser, HTML5)
Click here to listen with your own player(launches your MP3 player)

KPWM 201551Z 36006KT 10SM FEW035 FEW100 BKN250 00/M07 A2983 RMK AO2 SLP104 T00001072

KPWM Airport Info (Airnav.com)

KPWM Flight Activity (Flightaware)

Listeners: 1 out of 1377 total

Portland Approach (North): 125.500
Portland Approach (South): 119.750
Portland Clearance Delivery: 121.900
Portland Ground: 121.900
Portland Tower: 120.900

KPWM Tower (Archives)
Portland, Maine, United States

Feed Status: UP
Listen in your browser - HTML5 player(in browser, HTML5)
Click here to listen with your own player(launches your MP3 player)

KPWM 201551Z 36006KT 10SM FEW035 FEW100 BKN250 00/M07 A2983 RMK AO2 SLP104 T00001072

KPWM Airport Info (Airnav.com)

KPWM Flight Activity (Flightaware)

Listeners: 0 out of 1377 total

Portland Tower: 120.900

KRDU Approach (Archives)
Raleigh/Durham, North Carolina, United States

Feed Status: UP
Listen in your browser - HTML5 player(in browser, HTML5)
Click here to listen with your own player(launches your MP3 player)

KRDU 201551Z 28009G18KT 10SM FEW050 09/M04 A3015 RMK AO2 SLP210 T00941044

KRDU Airport Info (Airnav.com)

KRDU Flight Activity (Flightaware)

Listeners: 0 out of 1377 total

Raleigh Approach: 124.950
Raleigh Approach: 128.300

KRDU Approach (Final)
Raleigh/Durham, North Carolina, United States

Feed Status: DOWN
Offline since: 2020-09-11 22:48:39 UTC

KRDU 201551Z 28009G18KT 10SM FEW050 09/M04 A3015 RMK AO2 SLP210 T00941044

KRDU Airport Info (Airnav.com)

Raleigh Approach (Final): 124.800

KRDU Approach/Departure (Archives)
Raleigh/Durham, North Carolina, United States

Feed Status: UP
Listen in your browser - HTML5 player(in browser, HTML5)
Click here to listen with your own player(launches your MP3 player)

KRDU 201551Z 28009G18KT 10SM FEW050 09/M04 A3015 RMK AO2 SLP210 T00941044

KRDU Airport Info (Airnav.com)

KRDU Flight Activity (Flightaware)

Listeners: 1 out of 1377 total

Raleigh Approach: 124.950
Raleigh Approach: 128.300
Raleigh Departure: 125.300
Raleigh Departure: 132.350

KRDU ATIS
Raleigh/Durham, North Carolina, United States

Feed Status: DOWN
Offline since: 2020-09-11 22:48:39 UTC

KRDU 201551Z 28009G18KT 10SM FEW050 09/M04 A3015 RMK AO2 SLP210 T00941044

KRDU Airport Info (Airnav.com)

Raleigh ATIS: 123.800

KRDU Del/Ground
Raleigh/Durham, North Carolina, United States

Feed Status: DOWN
Offline since: 2020-09-11 22:48:39 UTC

KRDU 201551Z 28009G18KT 10SM FEW050 09/M04 A3015 RMK AO2 SLP210 T00941044

KRDU Airport Info (Airnav.com)

Raleigh Clearance Delivery: 120.100
Raleigh Ground (East Rwys 05R/23L): 121.900
Raleigh Ground (West Rwys 05L/23R): 121.700

KRDU Departure (Archives)
Raleigh/Durham, North Carolina, United States

Feed Status: UP
Listen in your browser - HTML5 player(in browser, HTML5)
Click here to listen with your own player(launches your MP3 player)

KRDU 201551Z 28009G18KT 10SM FEW050 09/M04 A3015 RMK AO2 SLP210 T00941044

KRDU Airport Info (Airnav.com)

KRDU Flight Activity (Flightaware)

Listeners: 1 out of 1377 total

Raleigh Departure: 132.350
Raleigh Departure: 125.300

KRDU Departure 132.35 (Archives)
Raleigh/Durham, North Carolina, United States

Feed Status: UP
Listen in your browser - HTML5 player(in browser, HTML5)
Click here to listen with your own player(launches your MP3 player)

KRDU 201551Z 28009G18KT 10SM FEW050 09/M04 A3015 RMK AO2 SLP210 T00941044

KRDU Airport Info (Airnav.com)

KRDU Flight Activity (Flightaware)

Listeners: 1 out of 1377 total

Raleigh Departure: 132.350

KRDU Tower (East)
Raleigh/Durham, North Carolina, United States

Feed Status: DOWN
Offline since: 2020-09-11 22:48:39 UTC

KRDU 201551Z 28009G18KT 10SM FEW050 09/M04 A3015 RMK AO2 SLP210 T00941044

KRDU Airport Info (Airnav.com)

Raleigh Tower (East: Rwys 05R/23L, 14/32): 127.450

KRDU Tower (East/West)
Raleigh/Durham, North Carolina, United States

Feed Status: DOWN
Offline since: 2020-09-11 22:48:39 UTC

KRDU 201551Z 28009G18KT 10SM FEW050 09/M04 A3015 RMK AO2 SLP210 T00941044

KRDU Airport Info (Airnav.com)

Raleigh Tower (East: Rwys 05R/23L, 14/32): 127.450
Raleigh Tower (West: Rwy 05L/23R): 119.300

KRDU Tower (West)
Raleigh/Durham, North Carolina, United States

Feed Status: DOWN
Offline since: 2020-09-11 22:48:39 UTC

KRDU 201551Z 28009G18KT 10SM FEW050 09/M04 A3015 RMK AO2 SLP210 T00941044

KRDU Airport Info (Airnav.com)

Raleigh Tower (West: Rwy 05L/23R): 119.300

KRNO Clearance Delivery (Archives)
Reno, Nevada, United States

Feed Status: UP
Listen in your browser - HTML5 player(in browser, HTML5)
Click here to listen with your own player(launches your MP3 player)

KRNO 201555Z 00000KT 10SM CLR M04/M11 A3024 RMK AO2 SLP259 T10441106

KRNO Airport Info (Airnav.com)

KRNO Flight Activity (Flightaware)

Listeners: 0 out of 1377 total

Reno Clearance Delivery: 124.900

KRNO Del/Gnd/Twr (Archives)
Reno, Nevada, United States

Feed Status: UP
Listen in your browser - HTML5 player(in browser, HTML5)
Click here to listen with your own player(launches your MP3 player)

KRNO 201555Z 00000KT 10SM CLR M04/M11 A3024 RMK AO2 SLP259 T10441106

KRNO Airport Info (Airnav.com)

KRNO Flight Activity (Flightaware)

Listeners: 0 out of 1377 total

Reno Clearance Delivery: 124.900
Reno Ground: 121.900
Reno Tower: 118.700

KRNO Del/Gnd/Twr (Archives)
Reno, Nevada, United States

Feed Status: UP
Listen in your browser - HTML5 player(in browser, HTML5)
Click here to listen with your own player(launches your MP3 player)

KRNO 201555Z 00000KT 10SM CLR M04/M11 A3024 RMK AO2 SLP259 T10441106

KRNO Airport Info (Airnav.com)

KRNO Flight Activity (Flightaware)

Listeners: 0 out of 1377 total

Reno Clearance Delivery: 124.900
Reno Ground: 121.900
Reno Tower: 118.700

KRNO Del/Gnd/Twr/App/ZOA (Archives)
Reno, Nevada, United States

Feed Status: UP
Listen in your browser - HTML5 player(in browser, HTML5)
Click here to listen with your own player(launches your MP3 player)

KRNO 201555Z 00000KT 10SM CLR M04/M11 A3024 RMK AO2 SLP259 T10441106

KRNO Airport Info (Airnav.com)

KRNO Flight Activity (Flightaware)

Listeners: 2 out of 1377 total

Emergency/Guard: 121.500
NORCAL Approach (Reno North): 126.300
NORCAL Approach (Reno South): 119.200
Oakland Center (Zone 45, Lo): 128.800
Reno Clearance Delivery: 124.900
Reno Ground: 121.900
Reno Tower: 118.700

KRNO Emergency/Guard (Archives)
Reno, Nevada, United States

Feed Status: UP
Listen in your browser - HTML5 player(in browser, HTML5)
Click here to listen with your own player(launches your MP3 player)

KRNO 201555Z 00000KT 10SM CLR M04/M11 A3024 RMK AO2 SLP259 T10441106

KRNO Airport Info (Airnav.com)

KRNO Flight Activity (Flightaware)

Listeners: 0 out of 1377 total

Emergency/Guard: 121.500

KRNO Ground (Archives)
Reno, Nevada, United States

Feed Status: UP
Listen in your browser - HTML5 player(in browser, HTML5)
Click here to listen with your own player(launches your MP3 player)

KRNO 201555Z 00000KT 10SM CLR M04/M11 A3024 RMK AO2 SLP259 T10441106

KRNO Airport Info (Airnav.com)

KRNO Flight Activity (Flightaware)

Listeners: 0 out of 1377 total

Reno Ground: 121.900

KRNO NORCAL App/Dep (Archives)
Reno, Nevada, United States

Feed Status: UP
Listen in your browser - HTML5 player(in browser, HTML5)
Click here to listen with your own player(launches your MP3 player)

KRNO 201555Z 00000KT 10SM CLR M04/M11 A3024 RMK AO2 SLP259 T10441106

KRNO Airport Info (Airnav.com)

KRNO Flight Activity (Flightaware)

Listeners: 0 out of 1377 total

NORCAL Approach (Reno North): 126.300
NORCAL Approach (Reno South): 119.200

KRNO NORCAL App/Dep (North) (Archives)
Reno, Nevada, United States

Feed Status: UP
Listen in your browser - HTML5 player(in browser, HTML5)
Click here to listen with your own player(launches your MP3 player)

KRNO 201555Z 00000KT 10SM CLR M04/M11 A3024 RMK AO2 SLP259 T10441106

KRNO Airport Info (Airnav.com)

KRNO Flight Activity (Flightaware)

Listeners: 0 out of 1377 total

NORCAL Approach (Reno North): 126.300

KRNO NORCAL App/Dep (South) (Archives)
Reno, Nevada, United States

Feed Status: UP
Listen in your browser - HTML5 player(in browser, HTML5)
Click here to listen with your own player(launches your MP3 player)

KRNO 201555Z 00000KT 10SM CLR M04/M11 A3024 RMK AO2 SLP259 T10441106

KRNO Airport Info (Airnav.com)

KRNO Flight Activity (Flightaware)

Listeners: 0 out of 1377 total

NORCAL Approach (Reno South): 119.200

KRNO Tower (Archives)
Reno, Nevada, United States

Feed Status: UP
Listen in your browser - HTML5 player(in browser, HTML5)
Click here to listen with your own player(launches your MP3 player)

KRNO 201555Z 00000KT 10SM CLR M04/M11 A3024 RMK AO2 SLP259 T10441106

KRNO Airport Info (Airnav.com)

KRNO Flight Activity (Flightaware)

Listeners: 1 out of 1377 total

Reno Tower: 118.700

KROA App/Dep #1 (Archives)
Roanoke, Virginia, United States

Feed Status: UP
Listen in your browser - HTML5 player(in browser, HTML5)
Click here to listen with your own player(launches your MP3 player)

KROA 201554Z 30020G26KT 10SM FEW049 06/M08 A3014 RMK AO2 PK WND 30032/1520 SLP211 T00561083

KROA Airport Info (Airnav.com)

KROA Flight Activity (Flightaware)

Listeners: 0 out of 1377 total

Roanoke Approach: 118.150
Roanoke Approach: 126.900

KROA App/Dep #2 (Archives)
Roanoke, Virginia, United States

Feed Status: UP
Listen in your browser - HTML5 player(in browser, HTML5)
Click here to listen with your own player(launches your MP3 player)

KROA 201554Z 30020G26KT 10SM FEW049 06/M08 A3014 RMK AO2 PK WND 30032/1520 SLP211 T00561083

KROA Airport Info (Airnav.com)

KROA Flight Activity (Flightaware)

Listeners: 0 out of 1377 total

Roanoke Approach: 118.150
Roanoke Approach: 126.900

KROA ATIS (Archives)
Roanoke, Virginia, United States

Feed Status: UP
Listen in your browser - HTML5 player(in browser, HTML5)
Click here to listen with your own player(launches your MP3 player)

KROA 201554Z 30020G26KT 10SM FEW049 06/M08 A3014 RMK AO2 PK WND 30032/1520 SLP211 T00561083

KROA Airport Info (Airnav.com)

KROA Flight Activity (Flightaware)

Listeners: 0 out of 1377 total

Roanoke ATIS: 132.375

KROA Del/Gnd (Archives)
Roanoke, Virginia, United States

Feed Status: UP
Listen in your browser - HTML5 player(in browser, HTML5)
Click here to listen with your own player(launches your MP3 player)

KROA 201554Z 30020G26KT 10SM FEW049 06/M08 A3014 RMK AO2 PK WND 30032/1520 SLP211 T00561083

KROA Airport Info (Airnav.com)

KROA Flight Activity (Flightaware)

Listeners: 0 out of 1377 total

Roanoke Clearance Delivery: 119.700
Roanoke Ground: 121.900

KROA Gnd/Twr (Archives)
Roanoke, Virginia, United States

Feed Status: UP
Listen in your browser - HTML5 player(in browser, HTML5)
Click here to listen with your own player(launches your MP3 player)

KROA 201554Z 30020G26KT 10SM FEW049 06/M08 A3014 RMK AO2 PK WND 30032/1520 SLP211 T00561083

KROA Airport Info (Airnav.com)

KROA Flight Activity (Flightaware)

Listeners: 0 out of 1377 total

Roanoke Ground: 121.900
Roanoke Tower: 118.300

KROA Gnd/Twr/App (Archives)
Roanoke, Virginia, United States

Feed Status: UP
Listen in your browser - HTML5 player(in browser, HTML5)
Click here to listen with your own player(launches your MP3 player)

KROA 201554Z 30020G26KT 10SM FEW049 06/M08 A3014 RMK AO2 PK WND 30032/1520 SLP211 T00561083

KROA Airport Info (Airnav.com)

KROA Flight Activity (Flightaware)

Listeners: 0 out of 1377 total

Roanoke Approach: 126.900
Roanoke Approach: 118.150
Roanoke Ground: 121.900
Roanoke Tower: 118.300

KROA Tower (Archives)
Roanoke, Virginia, United States

Feed Status: UP
Listen in your browser - HTML5 player(in browser, HTML5)
Click here to listen with your own player(launches your MP3 player)

KROA 201554Z 30020G26KT 10SM FEW049 06/M08 A3014 RMK AO2 PK WND 30032/1520 SLP211 T00561083

KROA Airport Info (Airnav.com)

KROA Flight Activity (Flightaware)

Listeners: 0 out of 1377 total

Roanoke Tower: 118.300

KROC Approach (Archives)
Rochester, New York, United States

Feed Status: UP
Listen in your browser - HTML5 player(in browser, HTML5)
Click here to listen with your own player(launches your MP3 player)

KROC 201554Z 32017G24KT 10SM SCT025 BKN032 BKN075 M05/M12 A3007 RMK AO2 SNE44 SLP193 P0000 T10501117

KROC Airport Info (Airnav.com)

KROC Flight Activity (Flightaware)

Listeners: 0 out of 1377 total

Rochester Approach: 119.550
Rochester Approach: 123.700

KROC Del/Gnd/Twr (Archives)
Rochester, New York, United States

Feed Status: UP
Listen in your browser - HTML5 player(in browser, HTML5)
Click here to listen with your own player(launches your MP3 player)

KROC 201554Z 32017G24KT 10SM SCT025 BKN032 BKN075 M05/M12 A3007 RMK AO2 SNE44 SLP193 P0000 T10501117

KROC Airport Info (Airnav.com)

KROC Flight Activity (Flightaware)

Listeners: 0 out of 1377 total

Rochester Clearance Delivery: 118.800
Rochester Ground: 121.700
Rochester Tower: 118.300

KROC Delivery/Ground (Archives)
Rochester, New York, United States

Feed Status: UP
Listen in your browser - HTML5 player(in browser, HTML5)
Click here to listen with your own player(launches your MP3 player)

KROC 201554Z 32017G24KT 10SM SCT025 BKN032 BKN075 M05/M12 A3007 RMK AO2 SNE44 SLP193 P0000 T10501117

KROC Airport Info (Airnav.com)

KROC Flight Activity (Flightaware)

Listeners: 0 out of 1377 total

Rochester Clearance Delivery: 118.800
Rochester Ground: 121.700

KROC Tower (Archives)
Rochester, New York, United States

Feed Status: UP
Listen in your browser - HTML5 player(in browser, HTML5)
Click here to listen with your own player(launches your MP3 player)

KROC 201554Z 32017G24KT 10SM SCT025 BKN032 BKN075 M05/M12 A3007 RMK AO2 SNE44 SLP193 P0000 T10501117

KROC Airport Info (Airnav.com)

KROC Flight Activity (Flightaware)

Listeners: 0 out of 1377 total

Rochester Tower: 118.300

KROG/KXNA/KVBT/Misc (Archives)
Rogers, Arkansas, United States

Feed Status: UP
Listen in your browser - HTML5 player(in browser, HTML5)
Click here to listen with your own player(launches your MP3 player)

KROG 201558Z 20007KT 10SM SCT070 04/M03 A3034 RMK AO2 SLP282 T00391033

KROG Airport Info (Airnav.com)

KROG Flight Activity (Flightaware)

Listeners: 0 out of 1377 total

Bentonville CTAF: 122.975
Northwest Regional Tower: 127.100
Razorback Approach/Departure (East): 126.600
Rogers Tower: 119.375

KRSW Gnd/Twr/App/Dep (Archives)
Fort Myers, Florida, United States

Feed Status: UP
Listen in your browser - HTML5 player(in browser, HTML5)
Click here to listen with your own player(launches your MP3 player)

KRSW 201553Z 00000KT 10SM CLR 21/11 A3032 RMK AO2 SLP265 T02060111

KRSW Airport Info (Airnav.com)

KRSW Flight Activity (Flightaware)

Listeners: 2 out of 1377 total

Ft. Myers Approach/Departure (060-240): 119.750
Ft. Myers Approach/Departure (241-330): 125.150
Ft. Myers Approach/Departure (331-059): 126.800
Ft. Myers Ground: 121.900
Ft. Myers Tower: 128.750

KSAT Approach (Archives)
San Antonio, Texas, United States

Feed Status: UP
Listen in your browser - HTML5 player(in browser, HTML5)
Click here to listen with your own player(launches your MP3 player)

KSAT 201551Z 01009KT 10SM OVC009 09/07 A3033 RMK AO2 RAE35 SLP263 P0000 T00940067

KSAT Airport Info (Airnav.com)

KSAT Flight Activity (Flightaware)

Listeners: 0 out of 1377 total

San Antonio Approach/Departure: 127.100
San Antonio Approach/Departure: 125.700
San Antonio Approach/Departure (091-140): 128.050
San Antonio Approach/Departure (141-270): 118.050
San Antonio Approach/Departure (271-359): 125.100
San Antonio Approach/Departure (360-090): 124.450

KSAT Ground (Archives)
San Antonio, Texas, United States

Feed Status: UP
Listen in your browser - HTML5 player(in browser, HTML5)
Click here to listen with your own player(launches your MP3 player)

KSAT 201551Z 01009KT 10SM OVC009 09/07 A3033 RMK AO2 RAE35 SLP263 P0000 T00940067

KSAT Airport Info (Airnav.com)

KSAT Flight Activity (Flightaware)

Listeners: 0 out of 1377 total

San Antonio Ground: 121.900

KSAT Tower (Archives)
San Antonio, Texas, United States

Feed Status: UP
Listen in your browser - HTML5 player(in browser, HTML5)
Click here to listen with your own player(launches your MP3 player)

KSAT 201551Z 01009KT 10SM OVC009 09/07 A3033 RMK AO2 RAE35 SLP263 P0000 T00940067

KSAT Airport Info (Airnav.com)

KSAT Flight Activity (Flightaware)

Listeners: 0 out of 1377 total

San Antonio Tower: 119.800

KSBA App/Dep (Archives)
Santa Barbara, California, United States

Feed Status: UP
Listen in your browser - HTML5 player(in browser, HTML5)
Click here to listen with your own player(launches your MP3 player)

KSBA 201553Z 00000KT 10SM CLR 09/02 A2998 RMK AO2 SLP151 T00940017 $

KSBA Airport Info (Airnav.com)

KSBA Flight Activity (Flightaware)

Listeners: 0 out of 1377 total

Santa Barbara Approach/Departure: 125.400
Santa Barbara Approach/Departure: 124.150
Santa Barbara Approach/Departure: 120.550

KSBA Del/Ground (Archives)
Santa Barbara, California, United States

Feed Status: UP
Listen in your browser - HTML5 player(in browser, HTML5)
Click here to listen with your own player(launches your MP3 player)

KSBA 201553Z 00000KT 10SM CLR 09/02 A2998 RMK AO2 SLP151 T00940017 $

KSBA Airport Info (Airnav.com)

KSBA Flight Activity (Flightaware)

Listeners: 0 out of 1377 total

Santa Barbara Clearance Delivery: 132.900
Santa Barbara Ground: 121.700

KSBA Tower (Archives)
Santa Barbara, California, United States

Feed Status: UP
Listen in your browser - HTML5 player(in browser, HTML5)
Click here to listen with your own player(launches your MP3 player)

KSBA 201553Z 00000KT 10SM CLR 09/02 A2998 RMK AO2 SLP151 T00940017 $

KSBA Airport Info (Airnav.com)

KSBA Flight Activity (Flightaware)

Listeners: 0 out of 1377 total

Santa Barbara Tower: 119.700

KSDF App/Dep #1 (Archives)
Louisville, Kentucky, United States

Feed Status: UP
Listen in your browser - HTML5 player(in browser, HTML5)
Click here to listen with your own player(launches your MP3 player)

KSDF 201556Z 23005KT 10SM FEW030 01/M08 A3037 RMK AO2 SLP289 T00061083

KSDF Airport Info (Airnav.com)

KSDF Flight Activity (Flightaware)

Listeners: 0 out of 1377 total

Louisville Approach/Departure: 132.075

KSDF App/Dep #2 (Archives)
Louisville, Kentucky, United States

Feed Status: UP
Listen in your browser - HTML5 player(in browser, HTML5)
Click here to listen with your own player(launches your MP3 player)

KSDF 201556Z 23005KT 10SM FEW030 01/M08 A3037 RMK AO2 SLP289 T00061083

KSDF Airport Info (Airnav.com)

KSDF Flight Activity (Flightaware)

Listeners: 0 out of 1377 total

Louisville Approach/Departure: 134.150

KSDF ATIS (Archives)
Louisville, Kentucky, United States

Feed Status: UP
Listen in your browser - HTML5 player(in browser, HTML5)
Click here to listen with your own player(launches your MP3 player)

KSDF 201556Z 23005KT 10SM FEW030 01/M08 A3037 RMK AO2 SLP289 T00061083

KSDF Airport Info (Airnav.com)

KSDF Flight Activity (Flightaware)

Listeners: 0 out of 1377 total

Louisville ATIS: 118.725

KSDF Ground/Tower #1 (Archives)
Louisville, Kentucky, United States

Feed Status: UP
Listen in your browser - HTML5 player(in browser, HTML5)
Click here to listen with your own player(launches your MP3 player)

KSDF 201556Z 23005KT 10SM FEW030 01/M08 A3037 RMK AO2 SLP289 T00061083

KSDF Airport Info (Airnav.com)

KSDF Flight Activity (Flightaware)

Listeners: 0 out of 1377 total

Louisville Ground: 121.700
Louisville Tower: 124.200

KSDF Thunder Over Louisville Air Show #2 (Archives)
Louisville, Kentucky, United States

Feed Status: UP
Listen in your browser - HTML5 player(in browser, HTML5)
Click here to listen with your own player(launches your MP3 player)

KSDF 201556Z 23005KT 10SM FEW030 01/M08 A3037 RMK AO2 SLP289 T00061083

KSDF Airport Info (Airnav.com)

KSDF Flight Activity (Flightaware)

Listeners: 0 out of 1377 total

Air Boss (VHF): 120.300
Air to Air: 126.850

KSFB ATIS (Archives)
Orlando, Florida, United States

Feed Status: UP
Listen in your browser - HTML5 player(in browser, HTML5)
Click here to listen with your own player(launches your MP3 player)

KSFB 201553Z 32006KT 10SM CLR 18/06 A3034 RMK AO2 SLP273 T01830061

KSFB Airport Info (Airnav.com)

KSFB Flight Activity (Flightaware)

Listeners: 2 out of 1377 total

Sanford ATIS: 125.975

KSFB Clearance Delivery (Archives)
Orlando, Florida, United States

Feed Status: UP
Listen in your browser - HTML5 player(in browser, HTML5)
Click here to listen with your own player(launches your MP3 player)

KSFB 201553Z 32006KT 10SM CLR 18/06 A3034 RMK AO2 SLP273 T01830061

KSFB Airport Info (Airnav.com)

KSFB Flight Activity (Flightaware)

Listeners: 0 out of 1377 total

Sanford Clearance Delivery: 123.975

KSFB Del/Gnd (Archives)
Orlando, Florida, United States

Feed Status: UP
Listen in your browser - HTML5 player(in browser, HTML5)
Click here to listen with your own player(launches your MP3 player)

KSFB 201553Z 32006KT 10SM CLR 18/06 A3034 RMK AO2 SLP273 T01830061

KSFB Airport Info (Airnav.com)

KSFB Flight Activity (Flightaware)

Listeners: 0 out of 1377 total

Sanford Clearance Delivery: 123.975
Sanford Ground: 121.350

KSFB Ground (Archives)
Orlando, Florida, United States

Feed Status: UP
Listen in your browser - HTML5 player(in browser, HTML5)
Click here to listen with your own player(launches your MP3 player)

KSFB 201553Z 32006KT 10SM CLR 18/06 A3034 RMK AO2 SLP273 T01830061

KSFB Airport Info (Airnav.com)

KSFB Flight Activity (Flightaware)

Listeners: 0 out of 1377 total

Sanford Ground: 121.350

KSFB Tower (Both) (Archives)
Orlando, Florida, United States

Feed Status: UP
Listen in your browser - HTML5 player(in browser, HTML5)
Click here to listen with your own player(launches your MP3 player)

KSFB 201553Z 32006KT 10SM CLR 18/06 A3034 RMK AO2 SLP273 T01830061

KSFB Airport Info (Airnav.com)

KSFB Flight Activity (Flightaware)

Listeners: 0 out of 1377 total

Sanford Tower (Runways 9L/27R, 18/36): 120.300
Sanford Tower (Runways 9R/27L, 9C/27C): 135.250

KSFB Tower (Main) (Archives)
Orlando, Florida, United States

Feed Status: UP
Listen in your browser - HTML5 player(in browser, HTML5)
Click here to listen with your own player(launches your MP3 player)

KSFB 201553Z 32006KT 10SM CLR 18/06 A3034 RMK AO2 SLP273 T01830061

KSFB Airport Info (Airnav.com)

KSFB Flight Activity (Flightaware)

Listeners: 0 out of 1377 total

Sanford Tower (Runways 9L/27R, 18/36): 120.300

KSFB Tower (South) (Archives)
Orlando, Florida, United States

Feed Status: UP
Listen in your browser - HTML5 player(in browser, HTML5)
Click here to listen with your own player(launches your MP3 player)

KSFB 201553Z 32006KT 10SM CLR 18/06 A3034 RMK AO2 SLP273 T01830061

KSFB Airport Info (Airnav.com)

KSFB Flight Activity (Flightaware)

Listeners: 0 out of 1377 total

Sanford Tower (Runways 9R/27L, 9C/27C): 135.250

NORCAL Departure (KSFO/KOAK) (Archives)
San Francisco, California, United States

Feed Status: UP
Listen in your browser - HTML5 player(in browser, HTML5)
Click here to listen with your own player(launches your MP3 player)

KOAK 201553Z 04004KT 10SM FEW200 06/M03 A3013 RMK AO2 SLP203 T00611028

KOAK Airport Info (Airnav.com)

KOAK Flight Activity (Flightaware)

Listeners: 5 out of 1377 total

NORCAL Departure (Northeast Departures): 120.900
NORCAL Departure (Northeast Departures): 127.000
NORCAL Departure (Southwest Departures): 127.975
NORCAL Departure (Southwest Departures): 135.100

KSGF Approach (Archives)
Springfield, Missouri, United States

Feed Status: UP
Listen in your browser - HTML5 player(in browser, HTML5)
Click here to listen with your own player(launches your MP3 player)

KSGF 201552Z 18007KT 10SM CLR 02/M03 A3030 RMK AO2 SLP270 T00171028

KSGF Airport Info (Airnav.com)

KSGF Flight Activity (Flightaware)

Listeners: 0 out of 1377 total

Springfield Approach: 121.100
Springfield Approach: 124.950
Springfield Approach: 126.350

KSGF Ground/Tower (Archives)
Springfield, Missouri, United States

Feed Status: UP
Listen in your browser - HTML5 player(in browser, HTML5)
Click here to listen with your own player(launches your MP3 player)

KSGF 201552Z 18007KT 10SM CLR 02/M03 A3030 RMK AO2 SLP270 T00171028

KSGF Airport Info (Airnav.com)

KSGF Flight Activity (Flightaware)

Listeners: 0 out of 1377 total

Springfield Ground: 121.900
Springfield Tower: 119.900

KSJC D-ATIS (Archives)
San Jose, California, United States

Feed Status: UP
Listen in your browser - HTML5 player(in browser, HTML5)
Click here to listen with your own player(launches your MP3 player)

KSJC 201553Z 16005KT 10SM CLR 06/M04 A3012 RMK AO2 SLP199 T00561044

KSJC Airport Info (Airnav.com)

KSJC Flight Activity (Flightaware)

Listeners: 0 out of 1377 total

San Jose D-ATIS: 126.950

KSJC Del/Gnd/Misc (Archives)
San Jose, California, United States

Feed Status: UP
Listen in your browser - HTML5 player(in browser, HTML5)
Click here to listen with your own player(launches your MP3 player)

KSJC 201553Z 16005KT 10SM CLR 06/M04 A3012 RMK AO2 SLP199 T00561044

KSJC Airport Info (Airnav.com)

KSJC Flight Activity (Flightaware)

Listeners: 0 out of 1377 total

Alaska Airlines Ops: 131.200
American Airlines Ops: 129.200
Atlantic Aviation (San Jose Jet Center): 129.800
Emergency/Guard: 121.500
Horizon Air Ops: 132.000
San Jose Clearance Delivery: 118.000
San Jose Ground: 121.700
Signature Flight Support: 129.050
Southwest Airlines Ops: 464.625
Southwest Airlines Ops: 131.700

KSJC Ground (Archives)
San Jose, California, United States

Feed Status: UP
Listen in your browser - HTML5 player(in browser, HTML5)
Click here to listen with your own player(launches your MP3 player)

KSJC 201553Z 16005KT 10SM CLR 06/M04 A3012 RMK AO2 SLP199 T00561044

KSJC Airport Info (Airnav.com)

KSJC Flight Activity (Flightaware)

Listeners: 0 out of 1377 total

San Jose Ground: 121.700

KSJC NORCAL Approach #1 (Archives)
San Jose, California, United States

Feed Status: UP
Listen in your browser - HTML5 player(in browser, HTML5)
Click here to listen with your own player(launches your MP3 player)

KSJC 201553Z 16005KT 10SM CLR 06/M04 A3012 RMK AO2 SLP199 T00561044

KSJC Airport Info (Airnav.com)

KSJC Flight Activity (Flightaware)

Listeners: 0 out of 1377 total

Emergency/Guard: 121.500
NORCAL Approach: 135.200
NORCAL Approach "LICKE" SJC Final: 120.100

KSJC NORCAL Approach #2 (Archives)
San Jose, California, United States

Feed Status: UP
Listen in your browser - HTML5 player(in browser, HTML5)
Click here to listen with your own player(launches your MP3 player)

KSJC 201553Z 16005KT 10SM CLR 06/M04 A3012 RMK AO2 SLP199 T00561044

KSJC Airport Info (Airnav.com)

KSJC Flight Activity (Flightaware)

Listeners: 0 out of 1377 total

NORCAL Approach "LICKE" SJC Final: 120.100
NORCAL Approach "TOGA": 121.300

KSJC NORCAL Departure (Archives)
San Jose, California, United States

Feed Status: UP
Listen in your browser - HTML5 player(in browser, HTML5)
Click here to listen with your own player(launches your MP3 player)

KSJC 201553Z 16005KT 10SM CLR 06/M04 A3012 RMK AO2 SLP199 T00561044

KSJC Airport Info (Airnav.com)

KSJC Flight Activity (Flightaware)

Listeners: 0 out of 1377 total

NORCAL Departure: 121.300

KSJC Tower #1 (Archives)
San Jose, California, United States

Feed Status: UP
Listen in your browser - HTML5 player(in browser, HTML5)
Click here to listen with your own player(launches your MP3 player)

KSJC 201553Z 16005KT 10SM CLR 06/M04 A3012 RMK AO2 SLP199 T00561044

KSJC Airport Info (Airnav.com)

KSJC Flight Activity (Flightaware)

Listeners: 0 out of 1377 total

San Jose Tower: 124.000

KSJC Tower #2 (Archives)
San Jose, California, United States

Feed Status: UP
Listen in your browser - HTML5 player(in browser, HTML5)
Click here to listen with your own player(launches your MP3 player)

KSJC 201553Z 16005KT 10SM CLR 06/M04 A3012 RMK AO2 SLP199 T00561044

KSJC Airport Info (Airnav.com)

KSJC Flight Activity (Flightaware)

Listeners: 0 out of 1377 total

San Jose Tower: 124.000
San Jose Tower: 120.700

KSNA Del/Gnd (Archives)
Santa Ana, California, United States

Feed Status: UP
Listen in your browser - HTML5 player(in browser, HTML5)
Click here to listen with your own player(launches your MP3 player)

KSNA 201553Z 07013G19KT 10SM FEW090 SCT160 SCT250 19/04 A2995 RMK AO2 SLP139 T01940044

KSNA Airport Info (Airnav.com)

KSNA Flight Activity (Flightaware)

Listeners: 2 out of 1377 total

John Wayne Clearance (IFR): 118.000
John Wayne Clearance (VFR): 121.850
John Wayne Ground (East): 120.800
John Wayne Ground (West): 132.250

KSNA Del/Gnd/Twr/App (Archives)
Santa Ana, California, United States

Feed Status: UP
Listen in your browser - HTML5 player(in browser, HTML5)
Click here to listen with your own player(launches your MP3 player)

KSNA 201553Z 07013G19KT 10SM FEW090 SCT160 SCT250 19/04 A2995 RMK AO2 SLP139 T01940044

KSNA Airport Info (Airnav.com)

KSNA Flight Activity (Flightaware)

Listeners: 1 out of 1377 total

John Wayne Clearance Delivery: 121.850
John Wayne Ground: 120.800
John Wayne Tower: 119.900
John Wayne Tower: 126.800
SoCal Approach (NE/SW): 128.100
SoCal Approach (NW/NE): 121.300
SoCal Approach (SE): 124.100

KSRQ App/Dep (Archives)
Sarasota/Bradenton, Florida, United States

Feed Status: UP
Listen in your browser - HTML5 player(in browser, HTML5)
Click here to listen with your own player(launches your MP3 player)

KSRQ 201553Z 06004KT 10SM CLR 21/12 A3033 RMK AO2 SLP269 T02110117

KSRQ Airport Info (Airnav.com)

KSRQ Flight Activity (Flightaware)

Listeners: 0 out of 1377 total

Tampa Approach/Departure: 119.650
Tampa Approach/Departure: 124.950

KSRQ Del/Gnd (Archives)
Sarasota/Bradenton, Florida, United States

Feed Status: UP
Listen in your browser - HTML5 player(in browser, HTML5)
Click here to listen with your own player(launches your MP3 player)

KSRQ 201553Z 06004KT 10SM CLR 21/12 A3033 RMK AO2 SLP269 T02110117

KSRQ Airport Info (Airnav.com)

KSRQ Flight Activity (Flightaware)

Listeners: 0 out of 1377 total

Sarasota Clearance Delivery: 118.250
Sarasota Ground: 121.900

KSRQ Tower (Archives)
Sarasota/Bradenton, Florida, United States

Feed Status: UP
Listen in your browser - HTML5 player(in browser, HTML5)
Click here to listen with your own player(launches your MP3 player)

KSRQ 201553Z 06004KT 10SM CLR 21/12 A3033 RMK AO2 SLP269 T02110117

KSRQ Airport Info (Airnav.com)

KSRQ Flight Activity (Flightaware)

Listeners: 4 out of 1377 total

Sarasota Tower: 120.100
Sarasota Tower: 256.800

KSYR ATIS (Archives)
Syracuse, New York, United States

Feed Status: UP
Listen in your browser - HTML5 player(in browser, HTML5)
Click here to listen with your own player(launches your MP3 player)

KSYR 201554Z 29008KT 3SM R28/6000VP6000FT -SN BLSN BKN025 BKN035 OVC050 M03/M07 A2999 RMK AO2 SNE1456B34 SLP157 P0000 T10331067

KSYR Airport Info (Airnav.com)

KSYR Flight Activity (Flightaware)

Listeners: 0 out of 1377 total

Syracuse ATIS: 124.225

KSYR Del/Gnd (Archives)
Syracuse, New York, United States

Feed Status: UP
Listen in your browser - HTML5 player(in browser, HTML5)
Click here to listen with your own player(launches your MP3 player)

KSYR 201554Z 29008KT 3SM R28/6000VP6000FT -SN BLSN BKN025 BKN035 OVC050 M03/M07 A2999 RMK AO2 SNE1456B34 SLP157 P0000 T10331067

KSYR Airport Info (Airnav.com)

KSYR Flight Activity (Flightaware)

Listeners: 0 out of 1377 total

Syracuse Clearance Delivery: 125.050
Syracuse Ground: 121.700

KSYR Tower/Approach (Archives)
Syracuse, New York, United States

Feed Status: UP
Listen in your browser - HTML5 player(in browser, HTML5)
Click here to listen with your own player(launches your MP3 player)

KSYR 201554Z 29008KT 3SM R28/6000VP6000FT -SN BLSN BKN025 BKN035 OVC050 M03/M07 A2999 RMK AO2 SNE1456B34 SLP157 P0000 T10331067

KSYR Airport Info (Airnav.com)

KSYR Flight Activity (Flightaware)

Listeners: 4 out of 1377 total

Syracuse Approach: 134.275
Syracuse Approach: 126.125
Syracuse Tower: 120.300

KTLH Del/Gnd/Twr/App (Archives)
Tallahassee, Florida, United States

Feed Status: UP
Listen in your browser - HTML5 player(in browser, HTML5)
Click here to listen with your own player(launches your MP3 player)

KTLH 201553Z 34013KT 10SM FEW140 FEW200 17/09 A3034 RMK AO2 SLP274 T01720089

KTLH Airport Info (Airnav.com)

KTLH Flight Activity (Flightaware)

Listeners: 3 out of 1377 total

Tallahassee Approach/Departure: 135.800
Tallahassee Approach/Departure: 128.700
Tallahassee Approach/Departure: 133.850
Tallahassee Clearance Delivery: 126.650
Tallahassee Ground: 121.900
Tallahassee Tower: 118.700

KTOL Del/Gnd/Twr/App (Archives)
Toledo, Ohio, United States

Feed Status: UP
Listen in your browser - HTML5 player(in browser, HTML5)
Click here to listen with your own player(launches your MP3 player)

KTOL 201552Z 24007KT 9SM OVC035 M03/M08 A3024 RMK AO2 SNB42E51 SLP250 P0000 T10331078

KTOL Airport Info (Airnav.com)

KTOL Flight Activity (Flightaware)

Listeners: 0 out of 1377 total

Toledo Approach (East): 126.100
Toledo Approach (West): 134.350
Toledo Clearance Delivery: 121.750
Toledo Ground: 121.900
Toledo Tower: 118.100

KTUL Del/Gnd/Twr/App (Archives)
Tulsa, Oklahoma, United States

Feed Status: UP
Listen in your browser - HTML5 player(in browser, HTML5)
Click here to listen with your own player(launches your MP3 player)

KTUL 201553Z 18005KT 10SM BKN070 OVC250 04/M03 A3035 RMK AO2 SLP279 T00391028

KTUL Airport Info (Airnav.com)

KTUL Flight Activity (Flightaware)

Listeners: 0 out of 1377 total

Emergency/Guard: 121.500
Tulsa Approach (175-354deg): 124.000
Tulsa Approach (355-174deg): 119.100
Tulsa Approach (Final): 132.100
Tulsa Approach/Departure (KRVS): 134.700
Tulsa Clearance: 134.050
Tulsa Ground: 121.900
Tulsa Tower (Rwy 18R/36L): 118.700
Tulsa Tower (Rwys 18L/36R, 08/26): 121.200

KDMA/KTUS Twr/Ops/ZAB (Archives)
Tucson, Arizona, United States

Feed Status: UP
Listen in your browser - HTML5 player(in browser, HTML5)
Click here to listen with your own player(launches your MP3 player)

KTUS 201553Z 12017G25KT 10SM CLR 13/01 A3015 RMK AO2 SLP187 T01330006

KTUS Airport Info (Airnav.com)

KTUS Flight Activity (Flightaware)

Listeners: 3 out of 1377 total

357FS Ops: 139.725
358FS Ops: 138.500
Albuquerque Center (Sector 47 Silver City/Low/UHF): 327.150
Albuquerque Center (Sector 90 San Simon/High/UHF): 281.500
AWACS: 364.200
BigFoot: 234.800
BigFoot: 271.000
Davis-Monthan AFB: 253.500
Tucson 162FW SOS IOPS: 392.200
Tucson Tower (UHF): 257.800

KTUS Del/Gnd/Twr/App/KDMA (Archives)
Tucson, Arizona, United States

Feed Status: UP
Listen in your browser - HTML5 player(in browser, HTML5)
Click here to listen with your own player(launches your MP3 player)

KTUS 201553Z 12017G25KT 10SM CLR 13/01 A3015 RMK AO2 SLP187 T01330006

KTUS Airport Info (Airnav.com)

KTUS Flight Activity (Flightaware)

Listeners: 0 out of 1377 total

KDMA Tower: 118.850
Tucson Approach (alt): 128.500
Tucson Approach (East/South): 125.100
Tucson Approach (North): 119.400
Tucson Approach (Practice Areas): 125.900
Tucson Clearance Delivery: 126.650
Tucson Ground: 124.400
Tucson Tower: 118.300
Tucson Tower (alt): 119.000

KTYS Del/Gnd/Twr/App (Archives)
Knoxville, Tennessee, United States

Feed Status: UP
Listen in your browser - HTML5 player(in browser, HTML5)
Click here to listen with your own player(launches your MP3 player)

KTYS 201553Z 29007KT 10SM FEW041 FEW250 06/M04 A3032 RMK AO2 SLP270 T00561044

KTYS Airport Info (Airnav.com)

KTYS Flight Activity (Flightaware)

Listeners: 1 out of 1377 total

Knoxville Approach/Departure: 123.900
Knoxville Approach/Departure: 120.650
Knoxville Approach/Departure: 360.800
Knoxville Approach/Departure: 353.600
Knoxville Approach/Departure: 118.000
Knoxville Clearance Delivery: 121.650
Knoxville Ground: 348.600
Knoxville Ground: 121.900
Knoxville Tower: 257.800
Knoxville Tower: 121.200

KROG/KXNA/KVBT/Misc (Archives)
Bentonville, Arkansas, United States

Feed Status: UP
Listen in your browser - HTML5 player(in browser, HTML5)
Click here to listen with your own player(launches your MP3 player)

KROG 201558Z 20007KT 10SM SCT070 04/M03 A3034 RMK AO2 SLP282 T00391033

KROG Airport Info (Airnav.com)

KROG Flight Activity (Flightaware)

Listeners: 0 out of 1377 total

Bentonville CTAF: 122.975
Northwest Regional Tower: 127.100
Razorback Approach/Departure (East): 126.600
Rogers Tower: 119.375

KROG/KXNA/KVBT/Misc (Archives)
Fayetteville/Springdale/Rogers, Arkansas, United States

Feed Status: UP
Listen in your browser - HTML5 player(in browser, HTML5)
Click here to listen with your own player(launches your MP3 player)

KROG 201558Z 20007KT 10SM SCT070 04/M03 A3034 RMK AO2 SLP282 T00391033

KROG Airport Info (Airnav.com)

KROG Flight Activity (Flightaware)

Listeners: 0 out of 1377 total

Bentonville CTAF: 122.975
Northwest Regional Tower: 127.100
Razorback Approach/Departure (East): 126.600
Rogers Tower: 119.375

KBTR/KHZR/L38 Del/Gnd/Twr/App/CTAF
Gonzales, Louisiana, United States

Feed Status: DOWN
Offline since: 2021-01-20 04:08:22 UTC

KBTR 201553Z 05011KT 10SM OVC040 15/09 A3037 RMK AO2 SLP285 T01500094

KBTR Airport Info (Airnav.com)

Baton Rouge Approach/Departure (East): 126.500
Baton Rouge Approach/Departure (Military): 278.300
Baton Rouge Approach/Departure (West): 120.300
Baton Rouge Clearance Delivery: 119.400
Baton Rouge Ground: 121.900
Baton Rouge Tower (Military): 257.800
Baton Rouge Tower/CTAF: 118.450
Baton Rouge UNICOM: 122.950
Houston Center (App/Dep when Approach closed): 338.250
Houston Center (App/Dep when Approach closed): 126.350
Louisiana Regional L38 CTAF: 123.000
United Airlines: 129.925

PANC Del/Gnd/App (Archives)
Anchorage, Alaska, United States

Feed Status: UP
Listen in your browser - HTML5 player(in browser, HTML5)
Click here to listen with your own player(launches your MP3 player)

PANC 201553Z 01004KT 10SM SCT060 OVC100 M03/M06 A3000 RMK AO2 SLP162 T10331056

PANC Airport Info (Airnav.com)

PANC Flight Activity (Flightaware)

Listeners: 0 out of 1377 total

Anchorage Approach/Dep (046-205 deg): 126.400
Anchorage Approach/Dep (206-249 deg): 123.800
Anchorage Approach/Dep (250-330 deg <=1500'): 119.100
Anchorage Approach/Dep (250-330 deg >1500'): 118.600
Anchorage Approach/Dep (331-045 deg <=2500'): 119.100
Anchorage Clearance: 119.400
Anchorage Ground: 121.900

PANC Del/Gnd/Twr/App (Archives)
Anchorage, Alaska, United States

Feed Status: UP
Listen in your browser - HTML5 player(in browser, HTML5)
Click here to listen with your own player(launches your MP3 player)

PANC 201553Z 01004KT 10SM SCT060 OVC100 M03/M06 A3000 RMK AO2 SLP162 T10331056

PANC Airport Info (Airnav.com)

PANC Flight Activity (Flightaware)

Listeners: 1 out of 1377 total

Anchorage Approach/Dep (046-205 deg): 126.400
Anchorage Approach/Dep (206-249 deg): 123.800
Anchorage Approach/Dep (250-330 deg <=1500'): 119.100
Anchorage Approach/Dep (250-330 deg >1500'): 118.600
Anchorage Approach/Dep (331-045 deg <=2500'): 119.100
Anchorage Clearance: 119.400
Anchorage Ground: 121.900
Anchorage Tower: 118.300

PANC Tower (Archives)
Anchorage, Alaska, United States

Feed Status: UP
Listen in your browser - HTML5 player(in browser, HTML5)
Click here to listen with your own player(launches your MP3 player)

PANC 201553Z 01004KT 10SM SCT060 OVC100 M03/M06 A3000 RMK AO2 SLP162 T10331056

PANC Airport Info (Airnav.com)

PANC Flight Activity (Flightaware)

Listeners: 2 out of 1377 total

Anchorage Tower: 118.300

PHOG ATIS (Archives)
Kahului, Hawaii, United States

Feed Status: UP
Listen in your browser - HTML5 player(in browser, HTML5)
Click here to listen with your own player(launches your MP3 player)

PHOG 201554Z 09007KT 10SM CLR 22/18 A2997 RMK AO2 SLP154 T02170178 $

PHOG Airport Info (Airnav.com)

PHOG Flight Activity (Flightaware)

Listeners: 2 out of 1377 total

Maui ATIS: 128.600

PHOG Clearance Delivery (Archives)
Kahului, Hawaii, United States

Feed Status: UP
Listen in your browser - HTML5 player(in browser, HTML5)
Click here to listen with your own player(launches your MP3 player)

PHOG 201554Z 09007KT 10SM CLR 22/18 A2997 RMK AO2 SLP154 T02170178 $

PHOG Airport Info (Airnav.com)

PHOG Flight Activity (Flightaware)

Listeners: 2 out of 1377 total

Maui Clearance Delivery: 120.600

PHOG Del/Gnd/Twr/App (Archives)
Kahului, Hawaii, United States

Feed Status: UP
Listen in your browser - HTML5 player(in browser, HTML5)
Click here to listen with your own player(launches your MP3 player)

PHOG 201554Z 09007KT 10SM CLR 22/18 A2997 RMK AO2 SLP154 T02170178 $

PHOG Airport Info (Airnav.com)

PHOG Flight Activity (Flightaware)

Listeners: 4 out of 1377 total

HCF Approach (Maui/North): 120.200
HCF Approach (Maui/South): 119.500
Maui Clearance Delivery: 120.600
Maui Ground: 121.900
Maui Tower: 118.700

PHOG Ground (Archives)
Kahului, Hawaii, United States

Feed Status: UP
Listen in your browser - HTML5 player(in browser, HTML5)
Click here to listen with your own player(launches your MP3 player)

PHOG 201554Z 09007KT 10SM CLR 22/18 A2997 RMK AO2 SLP154 T02170178 $

PHOG Airport Info (Airnav.com)

PHOG Flight Activity (Flightaware)

Listeners: 2 out of 1377 total

Maui Ground: 121.900

PHOG HCF App (N/S) (Archives)
Kahului, Hawaii, United States

Feed Status: UP
Listen in your browser - HTML5 player(in browser, HTML5)
Click here to listen with your own player(launches your MP3 player)

PHOG 201554Z 09007KT 10SM CLR 22/18 A2997 RMK AO2 SLP154 T02170178 $

PHOG Airport Info (Airnav.com)

PHOG Flight Activity (Flightaware)

Listeners: 0 out of 1377 total

HCF Approach (Maui/North): 120.200
HCF Approach (Maui/South): 119.500

PHOG HCF App (North) (Archives)
Kahului, Hawaii, United States

Feed Status: UP
Listen in your browser - HTML5 player(in browser, HTML5)
Click here to listen with your own player(launches your MP3 player)

PHOG 201554Z 09007KT 10SM CLR 22/18 A2997 RMK AO2 SLP154 T02170178 $

PHOG Airport Info (Airnav.com)

PHOG Flight Activity (Flightaware)

Listeners: 2 out of 1377 total

HCF Approach (Maui/North): 120.200

PHOG HCF App (South) (Archives)
Kahului, Hawaii, United States

Feed Status: UP
Listen in your browser - HTML5 player(in browser, HTML5)
Click here to listen with your own player(launches your MP3 player)

PHOG 201554Z 09007KT 10SM CLR 22/18 A2997 RMK AO2 SLP154 T02170178 $

PHOG Airport Info (Airnav.com)

PHOG Flight Activity (Flightaware)

Listeners: 2 out of 1377 total

HCF Approach (Maui/South): 119.500

PHOG Tower (Archives)
Kahului, Hawaii, United States

Feed Status: UP
Listen in your browser - HTML5 player(in browser, HTML5)
Click here to listen with your own player(launches your MP3 player)

PHOG 201554Z 09007KT 10SM CLR 22/18 A2997 RMK AO2 SLP154 T02170178 $

PHOG Airport Info (Airnav.com)

PHOG Flight Activity (Flightaware)

Listeners: 2 out of 1377 total

Maui Tower: 118.700

TJSJ Approach/Departure (Archives)
San Juan, Puerto Rico, United States

Feed Status: UP
Listen in your browser - HTML5 player(in browser, HTML5)
Click here to listen with your own player(launches your MP3 player)

TJSJ 201556Z 08015KT 10SM FEW027 SCT041 28/22 A3004 RMK AO2 SLP171 T02830217

TJSJ Flight Activity (Flightaware)

Listeners: 0 out of 1377 total

San Juan App/Dep (North/East): 120.900
San Juan Approach: 128.650
San Juan Approach/Departure (West/Southwest): 119.400

TJSJ Del/Gnd/Twr (Archives)
San Juan, Puerto Rico, United States

Feed Status: UP
Listen in your browser - HTML5 player(in browser, HTML5)
Click here to listen with your own player(launches your MP3 player)

TJSJ 201556Z 08015KT 10SM FEW027 SCT041 28/22 A3004 RMK AO2 SLP171 T02830217

TJSJ Flight Activity (Flightaware)

Listeners: 0 out of 1377 total

San Juan Clearance Delivery: 126.400
San Juan Ground: 121.900
San Juan Tower: 132.050